<?xml version="1.0" encoding="UTF-8" standalone="no" ?>
<gpx xmlns="http://www.topografix.com/GPX/1/1" xmlns:xsi="http://www.w3.org/2001/XMLSchema-instance" xsi:schemaLocation="http://www.topografix.com/GPX/1/1 http://www.topografix.com/GPX/1/1/gpx.xsd" version="1.1" creator="VisuGPX - https://www.visugpx.com">
  <metadata>
    <name>Trèfle pédestre</name>
    <desc><![CDATA[Trèfle pédestre du 16/08/20]]></desc>
  </metadata>
  <trk>
    <name><![CDATA[Tombe de la dame]]></name>
    <extensions>
      <line xmlns="http://www.topografix.com/GPX/gpx_style/0/2">
        <color>0000FF</color>
        <width>4</width>
      </line>
    </extensions>
    <trkseg>
      <trkpt lat="45.00667" lon="2.90501">
        <ele>1117.91</ele>
        <time>2017-09-07T13:24:55Z</time>
      </trkpt>
      <trkpt lat="45.00668" lon="2.90501">
        <ele>1117.91</ele>
        <time>2017-09-07T13:24:56Z</time>
      </trkpt>
      <trkpt lat="45.00666" lon="2.90502">
        <ele>1117.91</ele>
        <time>2017-09-07T13:25:01Z</time>
      </trkpt>
      <trkpt lat="45.00666" lon="2.90505">
        <ele>1117.91</ele>
        <time>2017-09-07T13:25:02Z</time>
      </trkpt>
      <trkpt lat="45.00666" lon="2.90508">
        <ele>1117.89</ele>
        <time>2017-09-07T13:25:03Z</time>
      </trkpt>
      <trkpt lat="45.00667" lon="2.90512">
        <ele>1117.88</ele>
        <time>2017-09-07T13:25:04Z</time>
      </trkpt>
      <trkpt lat="45.0067" lon="2.90514">
        <ele>1117.86</ele>
        <time>2017-09-07T13:25:05Z</time>
      </trkpt>
      <trkpt lat="45.00672" lon="2.90516">
        <ele>1117.8</ele>
        <time>2017-09-07T13:25:06Z</time>
      </trkpt>
      <trkpt lat="45.00675" lon="2.90517">
        <ele>1117.67</ele>
        <time>2017-09-07T13:25:07Z</time>
      </trkpt>
      <trkpt lat="45.00722" lon="2.90527">
        <ele>1117.36</ele>
        <time>2017-09-07T13:25:20Z</time>
      </trkpt>
      <trkpt lat="45.00744" lon="2.90525">
        <ele>1117.31</ele>
        <time>2017-09-07T13:25:25Z</time>
      </trkpt>
      <trkpt lat="45.00799" lon="2.9052">
        <ele>1116.03</ele>
        <time>2017-09-07T13:25:38Z</time>
      </trkpt>
      <trkpt lat="45.00803" lon="2.9052">
        <ele>1115.9</ele>
        <time>2017-09-07T13:25:39Z</time>
      </trkpt>
      <trkpt lat="45.00807" lon="2.90523">
        <ele>1115.78</ele>
        <time>2017-09-07T13:25:40Z</time>
      </trkpt>
      <trkpt lat="45.00816" lon="2.90529">
        <ele>1115.47</ele>
        <time>2017-09-07T13:25:42Z</time>
      </trkpt>
      <trkpt lat="45.00821" lon="2.90533">
        <ele>1115.32</ele>
        <time>2017-09-07T13:25:43Z</time>
      </trkpt>
      <trkpt lat="45.00827" lon="2.90538">
        <ele>1115.17</ele>
        <time>2017-09-07T13:25:44Z</time>
      </trkpt>
      <trkpt lat="45.00877" lon="2.90574">
        <ele>1112.73</ele>
        <time>2017-09-07T13:25:52Z</time>
      </trkpt>
      <trkpt lat="45.0094" lon="2.90612">
        <ele>1109.88</ele>
        <time>2017-09-07T13:26:02Z</time>
      </trkpt>
      <trkpt lat="45.00943" lon="2.90617">
        <ele>1110.08</ele>
        <time>2017-09-07T13:26:03Z</time>
      </trkpt>
      <trkpt lat="45.00943" lon="2.90622">
        <ele>1110.38</ele>
        <time>2017-09-07T13:26:04Z</time>
      </trkpt>
      <trkpt lat="45.00942" lon="2.90628">
        <ele>1110.71</ele>
        <time>2017-09-07T13:26:05Z</time>
      </trkpt>
      <trkpt lat="45.00941" lon="2.90634">
        <ele>1110.97</ele>
        <time>2017-09-07T13:26:06Z</time>
      </trkpt>
      <trkpt lat="45.00933" lon="2.90674">
        <ele>1111.18</ele>
        <time>2017-09-07T13:26:11Z</time>
      </trkpt>
      <trkpt lat="45.00931" lon="2.90683">
        <ele>1111.09</ele>
        <time>2017-09-07T13:26:12Z</time>
      </trkpt>
      <trkpt lat="45.00928" lon="2.90706">
        <ele>1110.84</ele>
        <time>2017-09-07T13:26:15Z</time>
      </trkpt>
      <trkpt lat="45.00928" lon="2.90711">
        <ele>1110.77</ele>
        <time>2017-09-07T13:26:16Z</time>
      </trkpt>
      <trkpt lat="45.0093" lon="2.90717">
        <ele>1110.67</ele>
        <time>2017-09-07T13:26:17Z</time>
      </trkpt>
      <trkpt lat="45.00933" lon="2.90721">
        <ele>1110.58</ele>
        <time>2017-09-07T13:26:18Z</time>
      </trkpt>
      <trkpt lat="45.00937" lon="2.90725">
        <ele>1110.47</ele>
        <time>2017-09-07T13:26:19Z</time>
      </trkpt>
      <trkpt lat="45.0094" lon="2.90729">
        <ele>1110.4</ele>
        <time>2017-09-07T13:26:20Z</time>
      </trkpt>
      <trkpt lat="45.00961" lon="2.90759">
        <ele>1112</ele>
        <time>2017-09-07T13:26:30Z</time>
      </trkpt>
      <trkpt lat="45.00986" lon="2.9079">
        <ele>1113.69</ele>
        <time>2017-09-07T13:26:40Z</time>
      </trkpt>
      <trkpt lat="45.01011" lon="2.90814">
        <ele>1115.52</ele>
        <time>2017-09-07T13:26:52Z</time>
      </trkpt>
      <trkpt lat="45.01019" lon="2.90824">
        <ele>1115.74</ele>
        <time>2017-09-07T13:26:59Z</time>
      </trkpt>
      <trkpt lat="45.01021" lon="2.90825">
        <ele>1115.77</ele>
        <time>2017-09-07T13:27:00Z</time>
      </trkpt>
      <trkpt lat="45.01023" lon="2.90826">
        <ele>1115.82</ele>
        <time>2017-09-07T13:27:01Z</time>
      </trkpt>
      <trkpt lat="45.01024" lon="2.90828">
        <ele>1115.86</ele>
        <time>2017-09-07T13:27:02Z</time>
      </trkpt>
      <trkpt lat="45.01026" lon="2.9083">
        <ele>1115.92</ele>
        <time>2017-09-07T13:27:03Z</time>
      </trkpt>
      <trkpt lat="45.01028" lon="2.90833">
        <ele>1115.96</ele>
        <time>2017-09-07T13:27:04Z</time>
      </trkpt>
      <trkpt lat="45.01032" lon="2.90845">
        <ele>1116</ele>
        <time>2017-09-07T13:27:07Z</time>
      </trkpt>
      <trkpt lat="45.01033" lon="2.90877">
        <ele>1115.9</ele>
        <time>2017-09-07T13:27:13Z</time>
      </trkpt>
      <trkpt lat="45.01019" lon="2.90961">
        <ele>1114.36</ele>
        <time>2017-09-07T13:27:24Z</time>
      </trkpt>
      <trkpt lat="45.00983" lon="2.91069">
        <ele>1112.17</ele>
        <time>2017-09-07T13:27:37Z</time>
      </trkpt>
      <trkpt lat="45.00974" lon="2.91095">
        <ele>1111.53</ele>
        <time>2017-09-07T13:27:40Z</time>
      </trkpt>
      <trkpt lat="45.00928" lon="2.91172">
        <ele>1109.49</ele>
        <time>2017-09-07T13:27:50Z</time>
      </trkpt>
      <trkpt lat="45.00924" lon="2.9118">
        <ele>1109.27</ele>
        <time>2017-09-07T13:27:51Z</time>
      </trkpt>
      <trkpt lat="45.0092" lon="2.91189">
        <ele>1109.04</ele>
        <time>2017-09-07T13:27:52Z</time>
      </trkpt>
      <trkpt lat="45.00917" lon="2.91198">
        <ele>1108.8</ele>
        <time>2017-09-07T13:27:53Z</time>
      </trkpt>
      <trkpt lat="45.00914" lon="2.91208">
        <ele>1108.52</ele>
        <time>2017-09-07T13:27:54Z</time>
      </trkpt>
      <trkpt lat="45.00894" lon="2.91304">
        <ele>1105.45</ele>
        <time>2017-09-07T13:28:03Z</time>
      </trkpt>
      <trkpt lat="45.0089" lon="2.91338">
        <ele>1104.19</ele>
        <time>2017-09-07T13:28:06Z</time>
      </trkpt>
      <trkpt lat="45.00887" lon="2.91349">
        <ele>1103.94</ele>
        <time>2017-09-07T13:28:07Z</time>
      </trkpt>
      <trkpt lat="45.00885" lon="2.9136">
        <ele>1103.67</ele>
        <time>2017-09-07T13:28:08Z</time>
      </trkpt>
      <trkpt lat="45.00878" lon="2.91382">
        <ele>1103.01</ele>
        <time>2017-09-07T13:28:10Z</time>
      </trkpt>
      <trkpt lat="45.00858" lon="2.9144">
        <ele>1100.38</ele>
        <time>2017-09-07T13:28:16Z</time>
      </trkpt>
      <trkpt lat="45.00838" lon="2.91509">
        <ele>1096.76</ele>
        <time>2017-09-07T13:28:23Z</time>
      </trkpt>
      <trkpt lat="45.00832" lon="2.91528">
        <ele>1095.16</ele>
        <time>2017-09-07T13:28:25Z</time>
      </trkpt>
      <trkpt lat="45.00827" lon="2.91536">
        <ele>1094.4</ele>
        <time>2017-09-07T13:28:26Z</time>
      </trkpt>
      <trkpt lat="45.00822" lon="2.91543">
        <ele>1093.65</ele>
        <time>2017-09-07T13:28:27Z</time>
      </trkpt>
      <trkpt lat="45.00807" lon="2.9156">
        <ele>1090.24</ele>
        <time>2017-09-07T13:28:30Z</time>
      </trkpt>
      <trkpt lat="45.00804" lon="2.91568">
        <ele>1089.33</ele>
        <time>2017-09-07T13:28:31Z</time>
      </trkpt>
      <trkpt lat="45.00802" lon="2.91577">
        <ele>1088.46</ele>
        <time>2017-09-07T13:28:32Z</time>
      </trkpt>
      <trkpt lat="45.008" lon="2.91587">
        <ele>1087.6</ele>
        <time>2017-09-07T13:28:33Z</time>
      </trkpt>
      <trkpt lat="45.00799" lon="2.91598">
        <ele>1086.71</ele>
        <time>2017-09-07T13:28:34Z</time>
      </trkpt>
      <trkpt lat="45.0079" lon="2.91654">
        <ele>1083.16</ele>
        <time>2017-09-07T13:28:39Z</time>
      </trkpt>
      <trkpt lat="45.0078" lon="2.91704">
        <ele>1080.09</ele>
        <time>2017-09-07T13:28:44Z</time>
      </trkpt>
      <trkpt lat="45.00762" lon="2.9176">
        <ele>1077.12</ele>
        <time>2017-09-07T13:28:50Z</time>
      </trkpt>
      <trkpt lat="45.00758" lon="2.91768">
        <ele>1076.68</ele>
        <time>2017-09-07T13:28:51Z</time>
      </trkpt>
      <trkpt lat="45.00724" lon="2.91827">
        <ele>1073.67</ele>
        <time>2017-09-07T13:28:58Z</time>
      </trkpt>
      <trkpt lat="45.00699" lon="2.91868">
        <ele>1071.49</ele>
        <time>2017-09-07T13:29:04Z</time>
      </trkpt>
      <trkpt lat="45.00668" lon="2.9191">
        <ele>1068.49</ele>
        <time>2017-09-07T13:29:11Z</time>
      </trkpt>
      <trkpt lat="45.00663" lon="2.91916">
        <ele>1068.03</ele>
        <time>2017-09-07T13:29:12Z</time>
      </trkpt>
      <trkpt lat="45.00659" lon="2.91921">
        <ele>1067.53</ele>
        <time>2017-09-07T13:29:13Z</time>
      </trkpt>
      <trkpt lat="45.00647" lon="2.91931">
        <ele>1066.48</ele>
        <time>2017-09-07T13:29:15Z</time>
      </trkpt>
      <trkpt lat="45.0064" lon="2.91936">
        <ele>1065.84</ele>
        <time>2017-09-07T13:29:16Z</time>
      </trkpt>
      <trkpt lat="45.00605" lon="2.91957">
        <ele>1062.59</ele>
        <time>2017-09-07T13:29:21Z</time>
      </trkpt>
      <trkpt lat="45.00554" lon="2.9198">
        <ele>1059.24</ele>
        <time>2017-09-07T13:29:29Z</time>
      </trkpt>
      <trkpt lat="45.00506" lon="2.9201">
        <ele>1056.16</ele>
        <time>2017-09-07T13:29:38Z</time>
      </trkpt>
      <trkpt lat="45.00495" lon="2.92016">
        <ele>1055.64</ele>
        <time>2017-09-07T13:29:40Z</time>
      </trkpt>
      <trkpt lat="45.00489" lon="2.92018">
        <ele>1055.36</ele>
        <time>2017-09-07T13:29:41Z</time>
      </trkpt>
      <trkpt lat="45.00484" lon="2.92021">
        <ele>1055.19</ele>
        <time>2017-09-07T13:29:42Z</time>
      </trkpt>
      <trkpt lat="45.00472" lon="2.92031">
        <ele>1054.67</ele>
        <time>2017-09-07T13:29:45Z</time>
      </trkpt>
      <trkpt lat="45.0045" lon="2.92057">
        <ele>1053.64</ele>
        <time>2017-09-07T13:29:51Z</time>
      </trkpt>
      <trkpt lat="45.00438" lon="2.92071">
        <ele>1052.94</ele>
        <time>2017-09-07T13:29:54Z</time>
      </trkpt>
      <trkpt lat="45.00434" lon="2.92076">
        <ele>1052.79</ele>
        <time>2017-09-07T13:29:55Z</time>
      </trkpt>
      <trkpt lat="45.00412" lon="2.92098">
        <ele>1052.19</ele>
        <time>2017-09-07T13:30:00Z</time>
      </trkpt>
      <trkpt lat="45.00404" lon="2.92105">
        <ele>1051.86</ele>
        <time>2017-09-07T13:30:02Z</time>
      </trkpt>
      <trkpt lat="45.00401" lon="2.9211">
        <ele>1051.69</ele>
        <time>2017-09-07T13:30:03Z</time>
      </trkpt>
      <trkpt lat="45.00398" lon="2.92116">
        <ele>1051.54</ele>
        <time>2017-09-07T13:30:04Z</time>
      </trkpt>
      <trkpt lat="45.00397" lon="2.92124">
        <ele>1051.4</ele>
        <time>2017-09-07T13:30:05Z</time>
      </trkpt>
      <trkpt lat="45.00395" lon="2.92133">
        <ele>1051.25</ele>
        <time>2017-09-07T13:30:06Z</time>
      </trkpt>
      <trkpt lat="45.00376" lon="2.9222">
        <ele>1048.8</ele>
        <time>2017-09-07T13:30:15Z</time>
      </trkpt>
      <trkpt lat="45.00372" lon="2.92231">
        <ele>1048.54</ele>
        <time>2017-09-07T13:30:16Z</time>
      </trkpt>
      <trkpt lat="45.00352" lon="2.92345">
        <ele>1046.36</ele>
        <time>2017-09-07T13:30:27Z</time>
      </trkpt>
      <trkpt lat="45.00333" lon="2.9254">
        <ele>1045.39</ele>
        <time>2017-09-07T13:30:43Z</time>
      </trkpt>
      <trkpt lat="45.00296" lon="2.92688">
        <ele>1046.17</ele>
        <time>2017-09-07T13:30:57Z</time>
      </trkpt>
      <trkpt lat="45.00288" lon="2.92715">
        <ele>1046.77</ele>
        <time>2017-09-07T13:31:01Z</time>
      </trkpt>
      <trkpt lat="45.00285" lon="2.92719">
        <ele>1046.95</ele>
        <time>2017-09-07T13:31:02Z</time>
      </trkpt>
      <trkpt lat="45.00282" lon="2.92722">
        <ele>1047.17</ele>
        <time>2017-09-07T13:31:03Z</time>
      </trkpt>
      <trkpt lat="45.00278" lon="2.92725">
        <ele>1047.37</ele>
        <time>2017-09-07T13:31:04Z</time>
      </trkpt>
      <trkpt lat="45.00274" lon="2.92726">
        <ele>1047.54</ele>
        <time>2017-09-07T13:31:05Z</time>
      </trkpt>
      <trkpt lat="45.0027" lon="2.92726">
        <ele>1047.66</ele>
        <time>2017-09-07T13:31:06Z</time>
      </trkpt>
      <trkpt lat="45.00266" lon="2.92726">
        <ele>1047.73</ele>
        <time>2017-09-07T13:31:07Z</time>
      </trkpt>
      <trkpt lat="45.00263" lon="2.92726">
        <ele>1047.78</ele>
        <time>2017-09-07T13:31:08Z</time>
      </trkpt>
      <trkpt lat="45.00228" lon="2.92736">
        <ele>1047.44</ele>
        <time>2017-09-07T13:31:19Z</time>
      </trkpt>
      <trkpt lat="45.0022" lon="2.92739">
        <ele>1047.32</ele>
        <time>2017-09-07T13:31:21Z</time>
      </trkpt>
      <trkpt lat="45.00217" lon="2.92737">
        <ele>1047.24</ele>
        <time>2017-09-07T13:31:22Z</time>
      </trkpt>
      <trkpt lat="45.00214" lon="2.92734">
        <ele>1047.15</ele>
        <time>2017-09-07T13:31:23Z</time>
      </trkpt>
      <trkpt lat="45.00212" lon="2.92729">
        <ele>1047.06</ele>
        <time>2017-09-07T13:31:24Z</time>
      </trkpt>
      <trkpt lat="45.00212" lon="2.92723">
        <ele>1046.95</ele>
        <time>2017-09-07T13:31:25Z</time>
      </trkpt>
      <trkpt lat="45.00213" lon="2.92717">
        <ele>1046.81</ele>
        <time>2017-09-07T13:31:26Z</time>
      </trkpt>
      <trkpt lat="45.00214" lon="2.92711">
        <ele>1046.6</ele>
        <time>2017-09-07T13:31:27Z</time>
      </trkpt>
      <trkpt lat="45.00215" lon="2.92706">
        <ele>1046.38</ele>
        <time>2017-09-07T13:31:28Z</time>
      </trkpt>
      <trkpt lat="45.00219" lon="2.92681">
        <ele>1045.61</ele>
        <time>2017-09-07T13:31:32Z</time>
      </trkpt>
      <trkpt lat="45.0022" lon="2.92674">
        <ele>1045.43</ele>
        <time>2017-09-07T13:31:33Z</time>
      </trkpt>
      <trkpt lat="45.00219" lon="2.9266">
        <ele>1045.04</ele>
        <time>2017-09-07T13:31:35Z</time>
      </trkpt>
      <trkpt lat="45.00199" lon="2.9255">
        <ele>1042.35</ele>
        <time>2017-09-07T13:31:50Z</time>
      </trkpt>
      <trkpt lat="45.00198" lon="2.92543">
        <ele>1042.24</ele>
        <time>2017-09-07T13:31:51Z</time>
      </trkpt>
      <trkpt lat="45.00197" lon="2.92522">
        <ele>1041.99</ele>
        <time>2017-09-07T13:31:54Z</time>
      </trkpt>
      <trkpt lat="45.00194" lon="2.92502">
        <ele>1041.65</ele>
        <time>2017-09-07T13:31:57Z</time>
      </trkpt>
      <trkpt lat="45.00192" lon="2.92496">
        <ele>1041.55</ele>
        <time>2017-09-07T13:31:58Z</time>
      </trkpt>
      <trkpt lat="45.00189" lon="2.92491">
        <ele>1041.46</ele>
        <time>2017-09-07T13:31:59Z</time>
      </trkpt>
      <trkpt lat="45.00186" lon="2.92486">
        <ele>1041.39</ele>
        <time>2017-09-07T13:32:00Z</time>
      </trkpt>
      <trkpt lat="45.00183" lon="2.92482">
        <ele>1041.35</ele>
        <time>2017-09-07T13:32:01Z</time>
      </trkpt>
      <trkpt lat="45.00179" lon="2.92479">
        <ele>1041.3</ele>
        <time>2017-09-07T13:32:02Z</time>
      </trkpt>
      <trkpt lat="45.00175" lon="2.92476">
        <ele>1041.22</ele>
        <time>2017-09-07T13:32:03Z</time>
      </trkpt>
      <trkpt lat="45.0017" lon="2.92474">
        <ele>1041.09</ele>
        <time>2017-09-07T13:32:04Z</time>
      </trkpt>
      <trkpt lat="45.00081" lon="2.9243">
        <ele>1040.4</ele>
        <time>2017-09-07T13:32:20Z</time>
      </trkpt>
      <trkpt lat="45.00037" lon="2.924">
        <ele>1040.47</ele>
        <time>2017-09-07T13:32:28Z</time>
      </trkpt>
      <trkpt lat="45.00033" lon="2.92394">
        <ele>1040.54</ele>
        <time>2017-09-07T13:32:29Z</time>
      </trkpt>
      <trkpt lat="45.0003" lon="2.92387">
        <ele>1040.6</ele>
        <time>2017-09-07T13:32:30Z</time>
      </trkpt>
      <trkpt lat="45.00027" lon="2.92381">
        <ele>1040.68</ele>
        <time>2017-09-07T13:32:31Z</time>
      </trkpt>
      <trkpt lat="45.00025" lon="2.92374">
        <ele>1040.78</ele>
        <time>2017-09-07T13:32:32Z</time>
      </trkpt>
      <trkpt lat="45.00024" lon="2.92366">
        <ele>1040.86</ele>
        <time>2017-09-07T13:32:33Z</time>
      </trkpt>
      <trkpt lat="45.00023" lon="2.92359">
        <ele>1040.94</ele>
        <time>2017-09-07T13:32:34Z</time>
      </trkpt>
      <trkpt lat="45.00021" lon="2.92352">
        <ele>1041</ele>
        <time>2017-09-07T13:32:35Z</time>
      </trkpt>
      <trkpt lat="44.99994" lon="2.92266">
        <ele>1044.02</ele>
        <time>2017-09-07T13:32:50Z</time>
      </trkpt>
      <trkpt lat="44.99977" lon="2.92227">
        <ele>1045.74</ele>
        <time>2017-09-07T13:33:01Z</time>
      </trkpt>
      <trkpt lat="44.99966" lon="2.92196">
        <ele>1045.65</ele>
        <time>2017-09-07T13:33:07Z</time>
      </trkpt>
      <trkpt lat="44.99936" lon="2.92093">
        <ele>1043.91</ele>
        <time>2017-09-07T13:33:23Z</time>
      </trkpt>
      <trkpt lat="44.99898" lon="2.91999">
        <ele>1044.11</ele>
        <time>2017-09-07T13:33:39Z</time>
      </trkpt>
      <trkpt lat="44.9988" lon="2.91916">
        <ele>1046.97</ele>
        <time>2017-09-07T13:33:54Z</time>
      </trkpt>
      <trkpt lat="44.99868" lon="2.91856">
        <ele>1049.45</ele>
        <time>2017-09-07T13:34:08Z</time>
      </trkpt>
      <trkpt lat="44.99851" lon="2.91786">
        <ele>1052.46</ele>
        <time>2017-09-07T13:34:25Z</time>
      </trkpt>
      <trkpt lat="44.99839" lon="2.91745">
        <ele>1054.8</ele>
        <time>2017-09-07T13:34:38Z</time>
      </trkpt>
      <trkpt lat="44.99838" lon="2.91744">
        <ele>1055.3</ele>
        <time>2017-09-07T13:34:51Z</time>
      </trkpt>
      <trkpt lat="44.99837" lon="2.91742">
        <ele>1055.29</ele>
        <time>2017-09-07T13:34:52Z</time>
      </trkpt>
      <trkpt lat="44.99829" lon="2.91691">
        <ele>1056.26</ele>
        <time>2017-09-07T13:35:06Z</time>
      </trkpt>
      <trkpt lat="44.99824" lon="2.91632">
        <ele>1057.36</ele>
        <time>2017-09-07T13:35:19Z</time>
      </trkpt>
      <trkpt lat="44.99814" lon="2.91576">
        <ele>1058.3</ele>
        <time>2017-09-07T13:35:31Z</time>
      </trkpt>
      <trkpt lat="44.998" lon="2.91496">
        <ele>1059.21</ele>
        <time>2017-09-07T13:35:48Z</time>
      </trkpt>
      <trkpt lat="44.99793" lon="2.91463">
        <ele>1059.37</ele>
        <time>2017-09-07T13:35:55Z</time>
      </trkpt>
      <trkpt lat="44.99776" lon="2.91397">
        <ele>1059.35</ele>
        <time>2017-09-07T13:36:08Z</time>
      </trkpt>
      <trkpt lat="44.99754" lon="2.91337">
        <ele>1059.07</ele>
        <time>2017-09-07T13:36:20Z</time>
      </trkpt>
      <trkpt lat="44.99728" lon="2.91262">
        <ele>1058.88</ele>
        <time>2017-09-07T13:36:35Z</time>
      </trkpt>
      <trkpt lat="44.99708" lon="2.91213">
        <ele>1058.94</ele>
        <time>2017-09-07T13:36:46Z</time>
      </trkpt>
      <trkpt lat="44.99709" lon="2.91208">
        <ele>1058.95</ele>
        <time>2017-09-07T13:36:47Z</time>
      </trkpt>
      <trkpt lat="44.99711" lon="2.91203">
        <ele>1058.98</ele>
        <time>2017-09-07T13:36:48Z</time>
      </trkpt>
      <trkpt lat="44.99712" lon="2.91198">
        <ele>1058.99</ele>
        <time>2017-09-07T13:36:49Z</time>
      </trkpt>
      <trkpt lat="44.99713" lon="2.91193">
        <ele>1059.02</ele>
        <time>2017-09-07T13:36:50Z</time>
      </trkpt>
      <trkpt lat="44.99729" lon="2.9113">
        <ele>1059.89</ele>
        <time>2017-09-07T13:37:03Z</time>
      </trkpt>
      <trkpt lat="44.9974" lon="2.91063">
        <ele>1061.72</ele>
        <time>2017-09-07T13:37:15Z</time>
      </trkpt>
      <trkpt lat="44.99755" lon="2.90979">
        <ele>1063.33</ele>
        <time>2017-09-07T13:37:30Z</time>
      </trkpt>
      <trkpt lat="44.9977" lon="2.90906">
        <ele>1065.59</ele>
        <time>2017-09-07T13:37:45Z</time>
      </trkpt>
      <trkpt lat="44.99778" lon="2.90861">
        <ele>1067.48</ele>
        <time>2017-09-07T13:37:59Z</time>
      </trkpt>
      <trkpt lat="44.99789" lon="2.90823">
        <ele>1069.57</ele>
        <time>2017-09-07T13:38:14Z</time>
      </trkpt>
      <trkpt lat="44.99815" lon="2.90778">
        <ele>1071.76</ele>
        <time>2017-09-07T13:38:31Z</time>
      </trkpt>
      <trkpt lat="44.99824" lon="2.90765">
        <ele>1073.12</ele>
        <time>2017-09-07T13:38:42Z</time>
      </trkpt>
      <trkpt lat="44.99835" lon="2.90747">
        <ele>1073.58</ele>
        <time>2017-09-07T13:39:24Z</time>
      </trkpt>
      <trkpt lat="44.99847" lon="2.90725">
        <ele>1075.5</ele>
        <time>2017-09-07T13:39:39Z</time>
      </trkpt>
      <trkpt lat="44.9986" lon="2.90706">
        <ele>1076.39</ele>
        <time>2017-09-07T13:39:57Z</time>
      </trkpt>
      <trkpt lat="44.99883" lon="2.90664">
        <ele>1078.97</ele>
        <time>2017-09-07T13:40:13Z</time>
      </trkpt>
      <trkpt lat="44.99898" lon="2.90632">
        <ele>1081.25</ele>
        <time>2017-09-07T13:40:26Z</time>
      </trkpt>
      <trkpt lat="44.99914" lon="2.90615">
        <ele>1083.3</ele>
        <time>2017-09-07T13:40:38Z</time>
      </trkpt>
      <trkpt lat="44.99915" lon="2.90614">
        <ele>1083.44</ele>
        <time>2017-09-07T13:40:39Z</time>
      </trkpt>
      <trkpt lat="44.99917" lon="2.90613">
        <ele>1083.61</ele>
        <time>2017-09-07T13:40:40Z</time>
      </trkpt>
      <trkpt lat="44.99918" lon="2.90613">
        <ele>1083.76</ele>
        <time>2017-09-07T13:40:41Z</time>
      </trkpt>
      <trkpt lat="44.9992" lon="2.90612">
        <ele>1083.9</ele>
        <time>2017-09-07T13:40:42Z</time>
      </trkpt>
      <trkpt lat="44.99921" lon="2.90611">
        <ele>1084.03</ele>
        <time>2017-09-07T13:40:43Z</time>
      </trkpt>
      <trkpt lat="44.99922" lon="2.90609">
        <ele>1084.17</ele>
        <time>2017-09-07T13:40:44Z</time>
      </trkpt>
      <trkpt lat="44.99927" lon="2.90604">
        <ele>1084.75</ele>
        <time>2017-09-07T13:40:48Z</time>
      </trkpt>
      <trkpt lat="44.99932" lon="2.90595">
        <ele>1085.6</ele>
        <time>2017-09-07T13:40:53Z</time>
      </trkpt>
      <trkpt lat="44.99932" lon="2.90593">
        <ele>1086.02</ele>
        <time>2017-09-07T13:40:54Z</time>
      </trkpt>
      <trkpt lat="44.99933" lon="2.90591">
        <ele>1086.28</ele>
        <time>2017-09-07T13:40:55Z</time>
      </trkpt>
      <trkpt lat="44.99934" lon="2.90589">
        <ele>1086.54</ele>
        <time>2017-09-07T13:40:56Z</time>
      </trkpt>
      <trkpt lat="44.99935" lon="2.90587">
        <ele>1086.78</ele>
        <time>2017-09-07T13:40:57Z</time>
      </trkpt>
      <trkpt lat="44.99935" lon="2.90584">
        <ele>1086.99</ele>
        <time>2017-09-07T13:40:58Z</time>
      </trkpt>
      <trkpt lat="44.9994" lon="2.9056">
        <ele>1088.98</ele>
        <time>2017-09-07T13:41:10Z</time>
      </trkpt>
      <trkpt lat="44.9994" lon="2.90558">
        <ele>1089.08</ele>
        <time>2017-09-07T13:41:11Z</time>
      </trkpt>
      <trkpt lat="44.9994" lon="2.90555">
        <ele>1089.17</ele>
        <time>2017-09-07T13:41:12Z</time>
      </trkpt>
      <trkpt lat="44.9994" lon="2.90552">
        <ele>1089.24</ele>
        <time>2017-09-07T13:41:13Z</time>
      </trkpt>
      <trkpt lat="44.99942" lon="2.90528">
        <ele>1090.26</ele>
        <time>2017-09-07T13:41:24Z</time>
      </trkpt>
      <trkpt lat="44.99926" lon="2.90506">
        <ele>1091.48</ele>
        <time>2017-09-07T13:41:36Z</time>
      </trkpt>
      <trkpt lat="44.99924" lon="2.905">
        <ele>1092.06</ele>
        <time>2017-09-07T13:41:53Z</time>
      </trkpt>
      <trkpt lat="44.99923" lon="2.90499">
        <ele>1092.06</ele>
        <time>2017-09-07T13:41:54Z</time>
      </trkpt>
      <trkpt lat="44.99922" lon="2.90497">
        <ele>1092.06</ele>
        <time>2017-09-07T13:41:55Z</time>
      </trkpt>
      <trkpt lat="44.99921" lon="2.90495">
        <ele>1092.06</ele>
        <time>2017-09-07T13:41:56Z</time>
      </trkpt>
      <trkpt lat="44.9992" lon="2.90493">
        <ele>1092.06</ele>
        <time>2017-09-07T13:41:57Z</time>
      </trkpt>
      <trkpt lat="44.9992" lon="2.9049">
        <ele>1092.08</ele>
        <time>2017-09-07T13:41:58Z</time>
      </trkpt>
      <trkpt lat="44.99919" lon="2.90486">
        <ele>1092.11</ele>
        <time>2017-09-07T13:41:59Z</time>
      </trkpt>
      <trkpt lat="44.99924" lon="2.90438">
        <ele>1092.57</ele>
        <time>2017-09-07T13:42:12Z</time>
      </trkpt>
      <trkpt lat="44.99935" lon="2.90394">
        <ele>1094.51</ele>
        <time>2017-09-07T13:42:25Z</time>
      </trkpt>
      <trkpt lat="44.99952" lon="2.90402">
        <ele>1096.49</ele>
        <time>2017-09-07T13:42:36Z</time>
      </trkpt>
      <trkpt lat="44.9998" lon="2.90417">
        <ele>1098.32</ele>
        <time>2017-09-07T13:42:49Z</time>
      </trkpt>
      <trkpt lat="45.00029" lon="2.90425">
        <ele>1099.08</ele>
        <time>2017-09-07T13:43:04Z</time>
      </trkpt>
      <trkpt lat="45.00084" lon="2.9042">
        <ele>1100.1</ele>
        <time>2017-09-07T13:43:20Z</time>
      </trkpt>
      <trkpt lat="45.00121" lon="2.90431">
        <ele>1100.37</ele>
        <time>2017-09-07T13:43:31Z</time>
      </trkpt>
      <trkpt lat="45.00125" lon="2.90435">
        <ele>1100.34</ele>
        <time>2017-09-07T13:43:32Z</time>
      </trkpt>
      <trkpt lat="45.00129" lon="2.90438">
        <ele>1100.31</ele>
        <time>2017-09-07T13:43:33Z</time>
      </trkpt>
      <trkpt lat="45.00134" lon="2.90441">
        <ele>1100.25</ele>
        <time>2017-09-07T13:43:34Z</time>
      </trkpt>
      <trkpt lat="45.00138" lon="2.90445">
        <ele>1100.17</ele>
        <time>2017-09-07T13:43:35Z</time>
      </trkpt>
      <trkpt lat="45.00143" lon="2.90448">
        <ele>1100.03</ele>
        <time>2017-09-07T13:43:36Z</time>
      </trkpt>
      <trkpt lat="45.00148" lon="2.90451">
        <ele>1099.85</ele>
        <time>2017-09-07T13:43:37Z</time>
      </trkpt>
      <trkpt lat="45.00152" lon="2.90453">
        <ele>1099.65</ele>
        <time>2017-09-07T13:43:38Z</time>
      </trkpt>
      <trkpt lat="45.00185" lon="2.90468">
        <ele>1098.31</ele>
        <time>2017-09-07T13:43:47Z</time>
      </trkpt>
      <trkpt lat="45.00213" lon="2.90483">
        <ele>1098.11</ele>
        <time>2017-09-07T13:43:57Z</time>
      </trkpt>
      <trkpt lat="45.00219" lon="2.90486">
        <ele>1098.07</ele>
        <time>2017-09-07T13:43:59Z</time>
      </trkpt>
      <trkpt lat="45.00221" lon="2.90488">
        <ele>1098.06</ele>
        <time>2017-09-07T13:44:00Z</time>
      </trkpt>
      <trkpt lat="45.00222" lon="2.9049">
        <ele>1098.05</ele>
        <time>2017-09-07T13:44:01Z</time>
      </trkpt>
      <trkpt lat="45.00224" lon="2.90492">
        <ele>1098.05</ele>
        <time>2017-09-07T13:44:02Z</time>
      </trkpt>
      <trkpt lat="45.00227" lon="2.90495">
        <ele>1098.07</ele>
        <time>2017-09-07T13:44:03Z</time>
      </trkpt>
      <trkpt lat="45.0023" lon="2.90497">
        <ele>1098.11</ele>
        <time>2017-09-07T13:44:04Z</time>
      </trkpt>
      <trkpt lat="45.00233" lon="2.905">
        <ele>1098.16</ele>
        <time>2017-09-07T13:44:05Z</time>
      </trkpt>
      <trkpt lat="45.00236" lon="2.90503">
        <ele>1098.21</ele>
        <time>2017-09-07T13:44:06Z</time>
      </trkpt>
      <trkpt lat="45.00273" lon="2.90531">
        <ele>1098.57</ele>
        <time>2017-09-07T13:44:19Z</time>
      </trkpt>
      <trkpt lat="45.00301" lon="2.9055">
        <ele>1098.87</ele>
        <time>2017-09-07T13:44:29Z</time>
      </trkpt>
      <trkpt lat="45.00325" lon="2.90568">
        <ele>1099.73</ele>
        <time>2017-09-07T13:44:39Z</time>
      </trkpt>
      <trkpt lat="45.0037" lon="2.90573">
        <ele>1100.93</ele>
        <time>2017-09-07T13:44:53Z</time>
      </trkpt>
      <trkpt lat="45.00413" lon="2.9058">
        <ele>1102.67</ele>
        <time>2017-09-07T13:45:07Z</time>
      </trkpt>
      <trkpt lat="45.00448" lon="2.90581">
        <ele>1103.46</ele>
        <time>2017-09-07T13:45:21Z</time>
      </trkpt>
      <trkpt lat="45.0045" lon="2.90578">
        <ele>1103.52</ele>
        <time>2017-09-07T13:45:22Z</time>
      </trkpt>
      <trkpt lat="45.00452" lon="2.90574">
        <ele>1103.6</ele>
        <time>2017-09-07T13:45:23Z</time>
      </trkpt>
      <trkpt lat="45.00452" lon="2.90571">
        <ele>1103.7</ele>
        <time>2017-09-07T13:45:24Z</time>
      </trkpt>
      <trkpt lat="45.00454" lon="2.90567">
        <ele>1103.93</ele>
        <time>2017-09-07T13:45:25Z</time>
      </trkpt>
      <trkpt lat="45.00455" lon="2.90563">
        <ele>1104.04</ele>
        <time>2017-09-07T13:45:26Z</time>
      </trkpt>
      <trkpt lat="45.00456" lon="2.9056">
        <ele>1104.17</ele>
        <time>2017-09-07T13:45:27Z</time>
      </trkpt>
      <trkpt lat="45.00458" lon="2.90557">
        <ele>1104.35</ele>
        <time>2017-09-07T13:45:28Z</time>
      </trkpt>
      <trkpt lat="45.00459" lon="2.90554">
        <ele>1104.55</ele>
        <time>2017-09-07T13:45:29Z</time>
      </trkpt>
      <trkpt lat="45.00493" lon="2.90527">
        <ele>1107.03</ele>
        <time>2017-09-07T13:45:44Z</time>
      </trkpt>
      <trkpt lat="45.00533" lon="2.9052">
        <ele>1109.94</ele>
        <time>2017-09-07T13:45:59Z</time>
      </trkpt>
      <trkpt lat="45.00571" lon="2.90515">
        <ele>1112.02</ele>
        <time>2017-09-07T13:46:12Z</time>
      </trkpt>
      <trkpt lat="45.00603" lon="2.90504">
        <ele>1114.37</ele>
        <time>2017-09-07T13:46:23Z</time>
      </trkpt>
      <trkpt lat="45.00643" lon="2.90506">
        <ele>1117.27</ele>
        <time>2017-09-07T13:46:38Z</time>
      </trkpt>
      <trkpt lat="45.00661" lon="2.90512">
        <ele>1118.99</ele>
        <time>2017-09-07T13:46:51Z</time>
      </trkpt>
      <trkpt lat="45.00665" lon="2.90512">
        <ele>1119.41</ele>
        <time>2017-09-07T13:47:12Z</time>
      </trkpt>
    </trkseg>
  </trk>
  <trk>
    <name><![CDATA[Trèfle pédestre_2]]></name>
    <trkseg>
      <trkpt lat="45.00669" lon="2.90507">
        <ele>1116.1</ele>
        <time>2010-01-01T00:00:00Z</time>
      </trkpt>
      <trkpt lat="45.00668" lon="2.90507">
        <ele>1116.1</ele>
        <time>2010-01-01T00:00:00Z</time>
      </trkpt>
      <trkpt lat="45.00668" lon="2.9051">
        <ele>1115.8</ele>
        <time>2010-01-01T00:00:00Z</time>
      </trkpt>
      <trkpt lat="45.0068" lon="2.90517">
        <ele>1114.9</ele>
        <time>2010-01-01T00:00:00Z</time>
      </trkpt>
      <trkpt lat="45.00682" lon="2.90518">
        <ele>1114.8</ele>
        <time>2010-01-01T00:00:00Z</time>
      </trkpt>
      <trkpt lat="45.00694" lon="2.90522">
        <ele>1114.4</ele>
        <time>2010-01-01T00:00:00Z</time>
      </trkpt>
      <trkpt lat="45.00702" lon="2.90524">
        <ele>1114.2</ele>
        <time>2010-01-01T00:00:00Z</time>
      </trkpt>
      <trkpt lat="45.00705" lon="2.90525">
        <ele>1114.1</ele>
        <time>2010-01-01T00:00:00Z</time>
      </trkpt>
      <trkpt lat="45.00721" lon="2.90526">
        <ele>1114</ele>
        <time>2010-01-01T00:00:00Z</time>
      </trkpt>
      <trkpt lat="45.00748" lon="2.90523">
        <ele>1114.3</ele>
        <time>2010-01-01T00:00:00Z</time>
      </trkpt>
      <trkpt lat="45.00783" lon="2.9052">
        <ele>1112.7</ele>
        <time>2010-01-01T00:00:00Z</time>
      </trkpt>
      <trkpt lat="45.00806" lon="2.90517">
        <ele>1112.5</ele>
        <time>2010-01-01T00:00:00Z</time>
      </trkpt>
      <trkpt lat="45.0083" lon="2.90538">
        <ele>1111.5</ele>
        <time>2010-01-01T00:00:00Z</time>
      </trkpt>
      <trkpt lat="45.00852" lon="2.90555">
        <ele>1109.3</ele>
        <time>2010-01-01T00:00:00Z</time>
      </trkpt>
      <trkpt lat="45.00866" lon="2.90565">
        <ele>1109</ele>
        <time>2010-01-01T00:00:00Z</time>
      </trkpt>
      <trkpt lat="45.00879" lon="2.90573">
        <ele>1108.8</ele>
        <time>2010-01-01T00:00:00Z</time>
      </trkpt>
      <trkpt lat="45.00895" lon="2.9058">
        <ele>1108.4</ele>
        <time>2010-01-01T00:00:00Z</time>
      </trkpt>
      <trkpt lat="45.00912" lon="2.9059">
        <ele>1106.5</ele>
        <time>2010-01-01T00:00:00Z</time>
      </trkpt>
      <trkpt lat="45.00933" lon="2.90602">
        <ele>1108.5</ele>
        <time>2010-01-01T00:00:00Z</time>
      </trkpt>
      <trkpt lat="45.00946" lon="2.90612">
        <ele>1109.1</ele>
        <time>2010-01-01T00:00:00Z</time>
      </trkpt>
      <trkpt lat="45.00949" lon="2.90613">
        <ele>1109.2</ele>
        <time>2010-01-01T00:00:00Z</time>
      </trkpt>
      <trkpt lat="45.00952" lon="2.90612">
        <ele>1109.4</ele>
        <time>2010-01-01T00:00:00Z</time>
      </trkpt>
      <trkpt lat="45.00958" lon="2.9061">
        <ele>1109.7</ele>
        <time>2010-01-01T00:00:00Z</time>
      </trkpt>
      <trkpt lat="45.00962" lon="2.90628">
        <ele>1109.6</ele>
        <time>2010-01-01T00:00:00Z</time>
      </trkpt>
      <trkpt lat="45.00962" lon="2.90628">
        <ele>1109.6</ele>
        <time>2010-01-01T00:00:00Z</time>
      </trkpt>
      <trkpt lat="45.00962" lon="2.90631">
        <ele>1109.6</ele>
        <time>2010-01-01T00:00:00Z</time>
      </trkpt>
      <trkpt lat="45.00963" lon="2.90634">
        <ele>1109.6</ele>
        <time>2010-01-01T00:00:00Z</time>
      </trkpt>
      <trkpt lat="45.00963" lon="2.90637">
        <ele>1109.6</ele>
        <time>2010-01-01T00:00:00Z</time>
      </trkpt>
      <trkpt lat="45.00974" lon="2.90643">
        <ele>1110</ele>
        <time>2010-01-01T00:00:00Z</time>
      </trkpt>
      <trkpt lat="45.00994" lon="2.90658">
        <ele>1111.2</ele>
        <time>2010-01-01T00:00:00Z</time>
      </trkpt>
      <trkpt lat="45.01014" lon="2.90671">
        <ele>1113.2</ele>
        <time>2010-01-01T00:00:00Z</time>
      </trkpt>
      <trkpt lat="45.01045" lon="2.90687">
        <ele>1114.6</ele>
        <time>2010-01-01T00:00:00Z</time>
      </trkpt>
      <trkpt lat="45.01058" lon="2.90693">
        <ele>1115</ele>
        <time>2010-01-01T00:00:00Z</time>
      </trkpt>
      <trkpt lat="45.01065" lon="2.90694">
        <ele>1115.2</ele>
        <time>2010-01-01T00:00:00Z</time>
      </trkpt>
      <trkpt lat="45.01073" lon="2.90691">
        <ele>1115.4</ele>
        <time>2010-01-01T00:00:00Z</time>
      </trkpt>
      <trkpt lat="45.01079" lon="2.90688">
        <ele>1115.6</ele>
        <time>2010-01-01T00:00:00Z</time>
      </trkpt>
      <trkpt lat="45.01084" lon="2.90682">
        <ele>1116.5</ele>
        <time>2010-01-01T00:00:00Z</time>
      </trkpt>
      <trkpt lat="45.0109" lon="2.90673">
        <ele>1116.6</ele>
        <time>2010-01-01T00:00:00Z</time>
      </trkpt>
      <trkpt lat="45.01097" lon="2.90661">
        <ele>1117.5</ele>
        <time>2010-01-01T00:00:00Z</time>
      </trkpt>
      <trkpt lat="45.01114" lon="2.90627">
        <ele>1118.2</ele>
        <time>2010-01-01T00:00:00Z</time>
      </trkpt>
      <trkpt lat="45.01134" lon="2.90588">
        <ele>1119.1</ele>
        <time>2010-01-01T00:00:00Z</time>
      </trkpt>
      <trkpt lat="45.01152" lon="2.9055">
        <ele>1121.2</ele>
        <time>2010-01-01T00:00:00Z</time>
      </trkpt>
      <trkpt lat="45.01169" lon="2.90517">
        <ele>1122</ele>
        <time>2010-01-01T00:00:00Z</time>
      </trkpt>
      <trkpt lat="45.01177" lon="2.90503">
        <ele>1122.3</ele>
        <time>2010-01-01T00:00:00Z</time>
      </trkpt>
      <trkpt lat="45.01183" lon="2.90496">
        <ele>1123.7</ele>
        <time>2010-01-01T00:00:00Z</time>
      </trkpt>
      <trkpt lat="45.01191" lon="2.9049">
        <ele>1123.9</ele>
        <time>2010-01-01T00:00:00Z</time>
      </trkpt>
      <trkpt lat="45.01203" lon="2.90484">
        <ele>1124.1</ele>
        <time>2010-01-01T00:00:00Z</time>
      </trkpt>
      <trkpt lat="45.01222" lon="2.90478">
        <ele>1124.1</ele>
        <time>2010-01-01T00:00:00Z</time>
      </trkpt>
      <trkpt lat="45.01245" lon="2.90471">
        <ele>1124.1</ele>
        <time>2010-01-01T00:00:00Z</time>
      </trkpt>
      <trkpt lat="45.01268" lon="2.90463">
        <ele>1123.9</ele>
        <time>2010-01-01T00:00:00Z</time>
      </trkpt>
      <trkpt lat="45.01298" lon="2.9045">
        <ele>1124</ele>
        <time>2010-01-01T00:00:00Z</time>
      </trkpt>
      <trkpt lat="45.01316" lon="2.90442">
        <ele>1124</ele>
        <time>2010-01-01T00:00:00Z</time>
      </trkpt>
      <trkpt lat="45.01325" lon="2.90436">
        <ele>1124</ele>
        <time>2010-01-01T00:00:00Z</time>
      </trkpt>
      <trkpt lat="45.01325" lon="2.90436">
        <ele>1124</ele>
        <time>2010-01-01T00:00:00Z</time>
      </trkpt>
      <trkpt lat="45.0133" lon="2.90432">
        <ele>1124</ele>
        <time>2010-01-01T00:00:00Z</time>
      </trkpt>
      <trkpt lat="45.01339" lon="2.90393">
        <ele>1124.7</ele>
        <time>2010-01-01T00:00:00Z</time>
      </trkpt>
      <trkpt lat="45.01349" lon="2.90358">
        <ele>1125.6</ele>
        <time>2010-01-01T00:00:00Z</time>
      </trkpt>
      <trkpt lat="45.01357" lon="2.90325">
        <ele>1127.8</ele>
        <time>2010-01-01T00:00:00Z</time>
      </trkpt>
      <trkpt lat="45.01361" lon="2.90308">
        <ele>1128.2</ele>
        <time>2010-01-01T00:00:00Z</time>
      </trkpt>
      <trkpt lat="45.01362" lon="2.90297">
        <ele>1128.4</ele>
        <time>2010-01-01T00:00:00Z</time>
      </trkpt>
      <trkpt lat="45.01361" lon="2.9027">
        <ele>1129.2</ele>
        <time>2010-01-01T00:00:00Z</time>
      </trkpt>
      <trkpt lat="45.0136" lon="2.90237">
        <ele>1131.6</ele>
        <time>2010-01-01T00:00:00Z</time>
      </trkpt>
      <trkpt lat="45.01358" lon="2.90221">
        <ele>1131.8</ele>
        <time>2010-01-01T00:00:00Z</time>
      </trkpt>
      <trkpt lat="45.01353" lon="2.90203">
        <ele>1132.2</ele>
        <time>2010-01-01T00:00:00Z</time>
      </trkpt>
      <trkpt lat="45.01349" lon="2.90181">
        <ele>1132.9</ele>
        <time>2010-01-01T00:00:00Z</time>
      </trkpt>
      <trkpt lat="45.01348" lon="2.90164">
        <ele>1134.4</ele>
        <time>2010-01-01T00:00:00Z</time>
      </trkpt>
      <trkpt lat="45.01349" lon="2.90147">
        <ele>1134.6</ele>
        <time>2010-01-01T00:00:00Z</time>
      </trkpt>
      <trkpt lat="45.01354" lon="2.90114">
        <ele>1135.2</ele>
        <time>2010-01-01T00:00:00Z</time>
      </trkpt>
      <trkpt lat="45.01356" lon="2.901">
        <ele>1135.4</ele>
        <time>2010-01-01T00:00:00Z</time>
      </trkpt>
      <trkpt lat="45.01357" lon="2.90087">
        <ele>1135.5</ele>
        <time>2010-01-01T00:00:00Z</time>
      </trkpt>
      <trkpt lat="45.01353" lon="2.90056">
        <ele>1137.7</ele>
        <time>2010-01-01T00:00:00Z</time>
      </trkpt>
      <trkpt lat="45.01351" lon="2.90029">
        <ele>1138.3</ele>
        <time>2010-01-01T00:00:00Z</time>
      </trkpt>
      <trkpt lat="45.01351" lon="2.90029">
        <ele>1138.3</ele>
        <time>2010-01-01T00:00:00Z</time>
      </trkpt>
      <trkpt lat="45.01351" lon="2.90015">
        <ele>1138.6</ele>
        <time>2010-01-01T00:00:00Z</time>
      </trkpt>
      <trkpt lat="45.01352" lon="2.90004">
        <ele>1138.7</ele>
        <time>2010-01-01T00:00:00Z</time>
      </trkpt>
      <trkpt lat="45.01357" lon="2.89986">
        <ele>1140.8</ele>
        <time>2010-01-01T00:00:00Z</time>
      </trkpt>
      <trkpt lat="45.0136" lon="2.89964">
        <ele>1141.5</ele>
        <time>2010-01-01T00:00:00Z</time>
      </trkpt>
      <trkpt lat="45.01363" lon="2.89949">
        <ele>1141.9</ele>
        <time>2010-01-01T00:00:00Z</time>
      </trkpt>
      <trkpt lat="45.0137" lon="2.89926">
        <ele>1142.3</ele>
        <time>2010-01-01T00:00:00Z</time>
      </trkpt>
      <trkpt lat="45.01382" lon="2.89888">
        <ele>1145.4</ele>
        <time>2010-01-01T00:00:00Z</time>
      </trkpt>
      <trkpt lat="45.01396" lon="2.89837">
        <ele>1146.9</ele>
        <time>2010-01-01T00:00:00Z</time>
      </trkpt>
      <trkpt lat="45.01406" lon="2.89796">
        <ele>1150.8</ele>
        <time>2010-01-01T00:00:00Z</time>
      </trkpt>
      <trkpt lat="45.01409" lon="2.89783">
        <ele>1151.5</ele>
        <time>2010-01-01T00:00:00Z</time>
      </trkpt>
      <trkpt lat="45.01408" lon="2.89774">
        <ele>1151.9</ele>
        <time>2010-01-01T00:00:00Z</time>
      </trkpt>
      <trkpt lat="45.01407" lon="2.89763">
        <ele>1152.6</ele>
        <time>2010-01-01T00:00:00Z</time>
      </trkpt>
      <trkpt lat="45.014" lon="2.8974">
        <ele>1156</ele>
        <time>2010-01-01T00:00:00Z</time>
      </trkpt>
      <trkpt lat="45.01389" lon="2.89713">
        <ele>1157.6</ele>
        <time>2010-01-01T00:00:00Z</time>
      </trkpt>
      <trkpt lat="45.0138" lon="2.89688">
        <ele>1158.7</ele>
        <time>2010-01-01T00:00:00Z</time>
      </trkpt>
      <trkpt lat="45.01375" lon="2.89666">
        <ele>1164.1</ele>
        <time>2010-01-01T00:00:00Z</time>
      </trkpt>
      <trkpt lat="45.01371" lon="2.89631">
        <ele>1165.4</ele>
        <time>2010-01-01T00:00:00Z</time>
      </trkpt>
      <trkpt lat="45.01367" lon="2.89597">
        <ele>1166.8</ele>
        <time>2010-01-01T00:00:00Z</time>
      </trkpt>
      <trkpt lat="45.01367" lon="2.89567">
        <ele>1171.8</ele>
        <time>2010-01-01T00:00:00Z</time>
      </trkpt>
      <trkpt lat="45.01367" lon="2.89528">
        <ele>1173.3</ele>
        <time>2010-01-01T00:00:00Z</time>
      </trkpt>
      <trkpt lat="45.01367" lon="2.89515">
        <ele>1173.7</ele>
        <time>2010-01-01T00:00:00Z</time>
      </trkpt>
      <trkpt lat="45.01364" lon="2.89501">
        <ele>1174.1</ele>
        <time>2010-01-01T00:00:00Z</time>
      </trkpt>
      <trkpt lat="45.01356" lon="2.89469">
        <ele>1177.8</ele>
        <time>2010-01-01T00:00:00Z</time>
      </trkpt>
      <trkpt lat="45.01348" lon="2.89447">
        <ele>1178.7</ele>
        <time>2010-01-01T00:00:00Z</time>
      </trkpt>
      <trkpt lat="45.01339" lon="2.89426">
        <ele>1180.5</ele>
        <time>2010-01-01T00:00:00Z</time>
      </trkpt>
      <trkpt lat="45.01335" lon="2.8941">
        <ele>1182</ele>
        <time>2010-01-01T00:00:00Z</time>
      </trkpt>
      <trkpt lat="45.01327" lon="2.89364">
        <ele>1186.7</ele>
        <time>2010-01-01T00:00:00Z</time>
      </trkpt>
      <trkpt lat="45.01319" lon="2.89317">
        <ele>1190.2</ele>
        <time>2010-01-01T00:00:00Z</time>
      </trkpt>
      <trkpt lat="45.01309" lon="2.89267">
        <ele>1192.2</ele>
        <time>2010-01-01T00:00:00Z</time>
      </trkpt>
      <trkpt lat="45.01305" lon="2.89248">
        <ele>1195.2</ele>
        <time>2010-01-01T00:00:00Z</time>
      </trkpt>
      <trkpt lat="45.01301" lon="2.89238">
        <ele>1195.8</ele>
        <time>2010-01-01T00:00:00Z</time>
      </trkpt>
      <trkpt lat="45.01296" lon="2.89231">
        <ele>1196.3</ele>
        <time>2010-01-01T00:00:00Z</time>
      </trkpt>
      <trkpt lat="45.01296" lon="2.89237">
        <ele>1196.1</ele>
        <time>2010-01-01T00:00:00Z</time>
      </trkpt>
      <trkpt lat="45.01296" lon="2.89241">
        <ele>1196</ele>
        <time>2010-01-01T00:00:00Z</time>
      </trkpt>
      <trkpt lat="45.01296" lon="2.89241">
        <ele>1196</ele>
        <time>2010-01-01T00:00:00Z</time>
      </trkpt>
      <trkpt lat="45.01296" lon="2.89237">
        <ele>1196.1</ele>
        <time>2010-01-01T00:00:00Z</time>
      </trkpt>
      <trkpt lat="45.01296" lon="2.89231">
        <ele>1196.3</ele>
        <time>2010-01-01T00:00:00Z</time>
      </trkpt>
      <trkpt lat="45.01296" lon="2.89213">
        <ele>1196.9</ele>
        <time>2010-01-01T00:00:00Z</time>
      </trkpt>
      <trkpt lat="45.01294" lon="2.89176">
        <ele>1198</ele>
        <time>2010-01-01T00:00:00Z</time>
      </trkpt>
      <trkpt lat="45.0129" lon="2.89134">
        <ele>1201.3</ele>
        <time>2010-01-01T00:00:00Z</time>
      </trkpt>
      <trkpt lat="45.0129" lon="2.89111">
        <ele>1201.6</ele>
        <time>2010-01-01T00:00:00Z</time>
      </trkpt>
      <trkpt lat="45.01291" lon="2.89087">
        <ele>1201.8</ele>
        <time>2010-01-01T00:00:00Z</time>
      </trkpt>
      <trkpt lat="45.01292" lon="2.89077">
        <ele>1202.9</ele>
        <time>2010-01-01T00:00:00Z</time>
      </trkpt>
      <trkpt lat="45.01288" lon="2.89069">
        <ele>1203.6</ele>
        <time>2010-01-01T00:00:00Z</time>
      </trkpt>
      <trkpt lat="45.01285" lon="2.8906">
        <ele>1204</ele>
        <time>2010-01-01T00:00:00Z</time>
      </trkpt>
      <trkpt lat="45.01283" lon="2.8903">
        <ele>1204.6</ele>
        <time>2010-01-01T00:00:00Z</time>
      </trkpt>
      <trkpt lat="45.0128" lon="2.89021">
        <ele>1205.4</ele>
        <time>2010-01-01T00:00:00Z</time>
      </trkpt>
      <trkpt lat="45.0128" lon="2.8902">
        <ele>1205.4</ele>
        <time>2010-01-01T00:00:00Z</time>
      </trkpt>
      <trkpt lat="45.0128" lon="2.8902">
        <ele>1205.4</ele>
        <time>2010-01-01T00:00:00Z</time>
      </trkpt>
      <trkpt lat="45.01277" lon="2.89016">
        <ele>1206.2</ele>
        <time>2010-01-01T00:00:00Z</time>
      </trkpt>
      <trkpt lat="45.01279" lon="2.88992">
        <ele>1206.5</ele>
        <time>2010-01-01T00:00:00Z</time>
      </trkpt>
      <trkpt lat="45.01278" lon="2.8898">
        <ele>1206.2</ele>
        <time>2010-01-01T00:00:00Z</time>
      </trkpt>
      <trkpt lat="45.01278" lon="2.88975">
        <ele>1205.9</ele>
        <time>2010-01-01T00:00:00Z</time>
      </trkpt>
      <trkpt lat="45.01275" lon="2.88961">
        <ele>1205.9</ele>
        <time>2010-01-01T00:00:00Z</time>
      </trkpt>
      <trkpt lat="45.01275" lon="2.88941">
        <ele>1206</ele>
        <time>2010-01-01T00:00:00Z</time>
      </trkpt>
      <trkpt lat="45.01275" lon="2.88908">
        <ele>1205.1</ele>
        <time>2010-01-01T00:00:00Z</time>
      </trkpt>
      <trkpt lat="45.01273" lon="2.88874">
        <ele>1203.3</ele>
        <time>2010-01-01T00:00:00Z</time>
      </trkpt>
      <trkpt lat="45.01272" lon="2.8886">
        <ele>1203.1</ele>
        <time>2010-01-01T00:00:00Z</time>
      </trkpt>
      <trkpt lat="45.01267" lon="2.88847">
        <ele>1203.8</ele>
        <time>2010-01-01T00:00:00Z</time>
      </trkpt>
      <trkpt lat="45.01261" lon="2.88841">
        <ele>1204.7</ele>
        <time>2010-01-01T00:00:00Z</time>
      </trkpt>
      <trkpt lat="45.01254" lon="2.88833">
        <ele>1205.5</ele>
        <time>2010-01-01T00:00:00Z</time>
      </trkpt>
      <trkpt lat="45.01249" lon="2.88824">
        <ele>1207.4</ele>
        <time>2010-01-01T00:00:00Z</time>
      </trkpt>
      <trkpt lat="45.01243" lon="2.8881">
        <ele>1207.6</ele>
        <time>2010-01-01T00:00:00Z</time>
      </trkpt>
      <trkpt lat="45.01236" lon="2.88796">
        <ele>1207.4</ele>
        <time>2010-01-01T00:00:00Z</time>
      </trkpt>
      <trkpt lat="45.01228" lon="2.88784">
        <ele>1207.2</ele>
        <time>2010-01-01T00:00:00Z</time>
      </trkpt>
      <trkpt lat="45.01217" lon="2.88775">
        <ele>1207.5</ele>
        <time>2010-01-01T00:00:00Z</time>
      </trkpt>
      <trkpt lat="45.01204" lon="2.88766">
        <ele>1208.2</ele>
        <time>2010-01-01T00:00:00Z</time>
      </trkpt>
      <trkpt lat="45.01196" lon="2.88758">
        <ele>1208.7</ele>
        <time>2010-01-01T00:00:00Z</time>
      </trkpt>
      <trkpt lat="45.01196" lon="2.88757">
        <ele>1208.7</ele>
        <time>2010-01-01T00:00:00Z</time>
      </trkpt>
      <trkpt lat="45.01196" lon="2.88757">
        <ele>1208.7</ele>
        <time>2010-01-01T00:00:00Z</time>
      </trkpt>
      <trkpt lat="45.01188" lon="2.88745">
        <ele>1206.4</ele>
        <time>2010-01-01T00:00:00Z</time>
      </trkpt>
      <trkpt lat="45.01178" lon="2.88736">
        <ele>1207</ele>
        <time>2010-01-01T00:00:00Z</time>
      </trkpt>
      <trkpt lat="45.01164" lon="2.88724">
        <ele>1210.8</ele>
        <time>2010-01-01T00:00:00Z</time>
      </trkpt>
      <trkpt lat="45.0115" lon="2.88712">
        <ele>1210.6</ele>
        <time>2010-01-01T00:00:00Z</time>
      </trkpt>
      <trkpt lat="45.01133" lon="2.88702">
        <ele>1210.9</ele>
        <time>2010-01-01T00:00:00Z</time>
      </trkpt>
      <trkpt lat="45.01118" lon="2.88694">
        <ele>1211.4</ele>
        <time>2010-01-01T00:00:00Z</time>
      </trkpt>
      <trkpt lat="45.01103" lon="2.88685">
        <ele>1211.9</ele>
        <time>2010-01-01T00:00:00Z</time>
      </trkpt>
      <trkpt lat="45.01091" lon="2.88677">
        <ele>1212.4</ele>
        <time>2010-01-01T00:00:00Z</time>
      </trkpt>
      <trkpt lat="45.01074" lon="2.88665">
        <ele>1213.2</ele>
        <time>2010-01-01T00:00:00Z</time>
      </trkpt>
      <trkpt lat="45.01062" lon="2.88658">
        <ele>1213.6</ele>
        <time>2010-01-01T00:00:00Z</time>
      </trkpt>
      <trkpt lat="45.01051" lon="2.88654">
        <ele>1214.1</ele>
        <time>2010-01-01T00:00:00Z</time>
      </trkpt>
      <trkpt lat="45.01035" lon="2.88647">
        <ele>1215.1</ele>
        <time>2010-01-01T00:00:00Z</time>
      </trkpt>
      <trkpt lat="45.01013" lon="2.88639">
        <ele>1216.2</ele>
        <time>2010-01-01T00:00:00Z</time>
      </trkpt>
      <trkpt lat="45.00995" lon="2.88633">
        <ele>1220.7</ele>
        <time>2010-01-01T00:00:00Z</time>
      </trkpt>
      <trkpt lat="45.00974" lon="2.88628">
        <ele>1220.7</ele>
        <time>2010-01-01T00:00:00Z</time>
      </trkpt>
      <trkpt lat="45.00954" lon="2.88622">
        <ele>1220.9</ele>
        <time>2010-01-01T00:00:00Z</time>
      </trkpt>
      <trkpt lat="45.0094" lon="2.88619">
        <ele>1221.1</ele>
        <time>2010-01-01T00:00:00Z</time>
      </trkpt>
      <trkpt lat="45.00925" lon="2.88616">
        <ele>1221</ele>
        <time>2010-01-01T00:00:00Z</time>
      </trkpt>
      <trkpt lat="45.00905" lon="2.88613">
        <ele>1221.7</ele>
        <time>2010-01-01T00:00:00Z</time>
      </trkpt>
      <trkpt lat="45.00884" lon="2.8861">
        <ele>1221.5</ele>
        <time>2010-01-01T00:00:00Z</time>
      </trkpt>
      <trkpt lat="45.00862" lon="2.88608">
        <ele>1220.8</ele>
        <time>2010-01-01T00:00:00Z</time>
      </trkpt>
      <trkpt lat="45.00844" lon="2.88608">
        <ele>1219.8</ele>
        <time>2010-01-01T00:00:00Z</time>
      </trkpt>
      <trkpt lat="45.00829" lon="2.8861">
        <ele>1215.9</ele>
        <time>2010-01-01T00:00:00Z</time>
      </trkpt>
      <trkpt lat="45.00813" lon="2.88615">
        <ele>1216.1</ele>
        <time>2010-01-01T00:00:00Z</time>
      </trkpt>
      <trkpt lat="45.00789" lon="2.88621">
        <ele>1215.4</ele>
        <time>2010-01-01T00:00:00Z</time>
      </trkpt>
      <trkpt lat="45.00774" lon="2.88627">
        <ele>1215.2</ele>
        <time>2010-01-01T00:00:00Z</time>
      </trkpt>
      <trkpt lat="45.00761" lon="2.88633">
        <ele>1215.6</ele>
        <time>2010-01-01T00:00:00Z</time>
      </trkpt>
      <trkpt lat="45.0075" lon="2.8864">
        <ele>1216.5</ele>
        <time>2010-01-01T00:00:00Z</time>
      </trkpt>
      <trkpt lat="45.00739" lon="2.88645">
        <ele>1210.4</ele>
        <time>2010-01-01T00:00:00Z</time>
      </trkpt>
      <trkpt lat="45.00727" lon="2.88649">
        <ele>1209.4</ele>
        <time>2010-01-01T00:00:00Z</time>
      </trkpt>
      <trkpt lat="45.0071" lon="2.88653">
        <ele>1207.5</ele>
        <time>2010-01-01T00:00:00Z</time>
      </trkpt>
      <trkpt lat="45.00696" lon="2.88658">
        <ele>1206.7</ele>
        <time>2010-01-01T00:00:00Z</time>
      </trkpt>
      <trkpt lat="45.0068" lon="2.88666">
        <ele>1206.8</ele>
        <time>2010-01-01T00:00:00Z</time>
      </trkpt>
      <trkpt lat="45.00667" lon="2.88675">
        <ele>1212.5</ele>
        <time>2010-01-01T00:00:00Z</time>
      </trkpt>
      <trkpt lat="45.00649" lon="2.88688">
        <ele>1210.3</ele>
        <time>2010-01-01T00:00:00Z</time>
      </trkpt>
      <trkpt lat="45.00624" lon="2.88706">
        <ele>1210.7</ele>
        <time>2010-01-01T00:00:00Z</time>
      </trkpt>
      <trkpt lat="45.00605" lon="2.88721">
        <ele>1210.8</ele>
        <time>2010-01-01T00:00:00Z</time>
      </trkpt>
      <trkpt lat="45.00581" lon="2.8874">
        <ele>1207.6</ele>
        <time>2010-01-01T00:00:00Z</time>
      </trkpt>
      <trkpt lat="45.00557" lon="2.8876">
        <ele>1212.1</ele>
        <time>2010-01-01T00:00:00Z</time>
      </trkpt>
      <trkpt lat="45.0053" lon="2.88782">
        <ele>1211.4</ele>
        <time>2010-01-01T00:00:00Z</time>
      </trkpt>
      <trkpt lat="45.00508" lon="2.88801">
        <ele>1211.7</ele>
        <time>2010-01-01T00:00:00Z</time>
      </trkpt>
      <trkpt lat="45.00483" lon="2.88822">
        <ele>1205.9</ele>
        <time>2010-01-01T00:00:00Z</time>
      </trkpt>
      <trkpt lat="45.00469" lon="2.88836">
        <ele>1209.9</ele>
        <time>2010-01-01T00:00:00Z</time>
      </trkpt>
      <trkpt lat="45.00457" lon="2.88849">
        <ele>1209.1</ele>
        <time>2010-01-01T00:00:00Z</time>
      </trkpt>
      <trkpt lat="45.00444" lon="2.88864">
        <ele>1208.8</ele>
        <time>2010-01-01T00:00:00Z</time>
      </trkpt>
      <trkpt lat="45.00428" lon="2.88882">
        <ele>1209.1</ele>
        <time>2010-01-01T00:00:00Z</time>
      </trkpt>
      <trkpt lat="45.00416" lon="2.88897">
        <ele>1203.1</ele>
        <time>2010-01-01T00:00:00Z</time>
      </trkpt>
      <trkpt lat="45.00405" lon="2.88911">
        <ele>1204.4</ele>
        <time>2010-01-01T00:00:00Z</time>
      </trkpt>
      <trkpt lat="45.00396" lon="2.88928">
        <ele>1206.3</ele>
        <time>2010-01-01T00:00:00Z</time>
      </trkpt>
      <trkpt lat="45.00383" lon="2.88951">
        <ele>1205.4</ele>
        <time>2010-01-01T00:00:00Z</time>
      </trkpt>
      <trkpt lat="45.00372" lon="2.88972">
        <ele>1205.2</ele>
        <time>2010-01-01T00:00:00Z</time>
      </trkpt>
      <trkpt lat="45.00359" lon="2.88996">
        <ele>1204.2</ele>
        <time>2010-01-01T00:00:00Z</time>
      </trkpt>
      <trkpt lat="45.00352" lon="2.89014">
        <ele>1205.7</ele>
        <time>2010-01-01T00:00:00Z</time>
      </trkpt>
      <trkpt lat="45.00341" lon="2.89042">
        <ele>1206.1</ele>
        <time>2010-01-01T00:00:00Z</time>
      </trkpt>
      <trkpt lat="45.00331" lon="2.89065">
        <ele>1197.9</ele>
        <time>2010-01-01T00:00:00Z</time>
      </trkpt>
      <trkpt lat="45.00325" lon="2.89086">
        <ele>1199.6</ele>
        <time>2010-01-01T00:00:00Z</time>
      </trkpt>
      <trkpt lat="45.0032" lon="2.8911">
        <ele>1196.7</ele>
        <time>2010-01-01T00:00:00Z</time>
      </trkpt>
      <trkpt lat="45.00326" lon="2.89106">
        <ele>1197.4</ele>
        <time>2010-01-01T00:00:00Z</time>
      </trkpt>
      <trkpt lat="45.00326" lon="2.89106">
        <ele>1197.4</ele>
        <time>2010-01-01T00:00:00Z</time>
      </trkpt>
      <trkpt lat="45.00332" lon="2.89104">
        <ele>1197.9</ele>
        <time>2010-01-01T00:00:00Z</time>
      </trkpt>
      <trkpt lat="45.00349" lon="2.89097">
        <ele>1205.3</ele>
        <time>2010-01-01T00:00:00Z</time>
      </trkpt>
      <trkpt lat="45.00364" lon="2.89092">
        <ele>1206.9</ele>
        <time>2010-01-01T00:00:00Z</time>
      </trkpt>
      <trkpt lat="45.00375" lon="2.89091">
        <ele>1208.2</ele>
        <time>2010-01-01T00:00:00Z</time>
      </trkpt>
      <trkpt lat="45.00393" lon="2.89092">
        <ele>1210.5</ele>
        <time>2010-01-01T00:00:00Z</time>
      </trkpt>
      <trkpt lat="45.0041" lon="2.8909">
        <ele>1213.4</ele>
        <time>2010-01-01T00:00:00Z</time>
      </trkpt>
      <trkpt lat="45.00425" lon="2.89086">
        <ele>1217.3</ele>
        <time>2010-01-01T00:00:00Z</time>
      </trkpt>
      <trkpt lat="45.00435" lon="2.89079">
        <ele>1218.7</ele>
        <time>2010-01-01T00:00:00Z</time>
      </trkpt>
      <trkpt lat="45.00445" lon="2.89067">
        <ele>1219.9</ele>
        <time>2010-01-01T00:00:00Z</time>
      </trkpt>
      <trkpt lat="45.00464" lon="2.89052">
        <ele>1221.4</ele>
        <time>2010-01-01T00:00:00Z</time>
      </trkpt>
      <trkpt lat="45.00485" lon="2.89035">
        <ele>1222.7</ele>
        <time>2010-01-01T00:00:00Z</time>
      </trkpt>
      <trkpt lat="45.00491" lon="2.89032">
        <ele>1223</ele>
        <time>2010-01-01T00:00:00Z</time>
      </trkpt>
      <trkpt lat="45.00494" lon="2.89033">
        <ele>1223.1</ele>
        <time>2010-01-01T00:00:00Z</time>
      </trkpt>
      <trkpt lat="45.00499" lon="2.89037">
        <ele>1223.1</ele>
        <time>2010-01-01T00:00:00Z</time>
      </trkpt>
      <trkpt lat="45.00508" lon="2.89039">
        <ele>1230.6</ele>
        <time>2010-01-01T00:00:00Z</time>
      </trkpt>
      <trkpt lat="45.00523" lon="2.89038">
        <ele>1231.4</ele>
        <time>2010-01-01T00:00:00Z</time>
      </trkpt>
      <trkpt lat="45.00532" lon="2.89035">
        <ele>1232</ele>
        <time>2010-01-01T00:00:00Z</time>
      </trkpt>
      <trkpt lat="45.00541" lon="2.89028">
        <ele>1232.7</ele>
        <time>2010-01-01T00:00:00Z</time>
      </trkpt>
      <trkpt lat="45.00551" lon="2.89018">
        <ele>1233.5</ele>
        <time>2010-01-01T00:00:00Z</time>
      </trkpt>
      <trkpt lat="45.00558" lon="2.89007">
        <ele>1234.3</ele>
        <time>2010-01-01T00:00:00Z</time>
      </trkpt>
      <trkpt lat="45.00563" lon="2.88996">
        <ele>1233.7</ele>
        <time>2010-01-01T00:00:00Z</time>
      </trkpt>
      <trkpt lat="45.00569" lon="2.88971">
        <ele>1232.9</ele>
        <time>2010-01-01T00:00:00Z</time>
      </trkpt>
      <trkpt lat="45.00572" lon="2.88957">
        <ele>1232.5</ele>
        <time>2010-01-01T00:00:00Z</time>
      </trkpt>
      <trkpt lat="45.00578" lon="2.88947">
        <ele>1232.8</ele>
        <time>2010-01-01T00:00:00Z</time>
      </trkpt>
      <trkpt lat="45.00587" lon="2.88934">
        <ele>1239.3</ele>
        <time>2010-01-01T00:00:00Z</time>
      </trkpt>
      <trkpt lat="45.00587" lon="2.88937">
        <ele>1239.6</ele>
        <time>2010-01-01T00:00:00Z</time>
      </trkpt>
      <trkpt lat="45.00587" lon="2.88937">
        <ele>1239.6</ele>
        <time>2010-01-01T00:00:00Z</time>
      </trkpt>
      <trkpt lat="45.00589" lon="2.8898">
        <ele>1240.4</ele>
        <time>2010-01-01T00:00:00Z</time>
      </trkpt>
      <trkpt lat="45.00589" lon="2.89007">
        <ele>1239.6</ele>
        <time>2010-01-01T00:00:00Z</time>
      </trkpt>
      <trkpt lat="45.0059" lon="2.89035">
        <ele>1241.6</ele>
        <time>2010-01-01T00:00:00Z</time>
      </trkpt>
      <trkpt lat="45.0059" lon="2.89053">
        <ele>1241.8</ele>
        <time>2010-01-01T00:00:00Z</time>
      </trkpt>
      <trkpt lat="45.00592" lon="2.89075">
        <ele>1241.2</ele>
        <time>2010-01-01T00:00:00Z</time>
      </trkpt>
      <trkpt lat="45.00596" lon="2.89093">
        <ele>1241.3</ele>
        <time>2010-01-01T00:00:00Z</time>
      </trkpt>
      <trkpt lat="45.00602" lon="2.89122">
        <ele>1241.9</ele>
        <time>2010-01-01T00:00:00Z</time>
      </trkpt>
      <trkpt lat="45.00607" lon="2.89142">
        <ele>1241.8</ele>
        <time>2010-01-01T00:00:00Z</time>
      </trkpt>
      <trkpt lat="45.00611" lon="2.89161">
        <ele>1241.7</ele>
        <time>2010-01-01T00:00:00Z</time>
      </trkpt>
      <trkpt lat="45.00611" lon="2.89161">
        <ele>1241.7</ele>
        <time>2010-01-01T00:00:00Z</time>
      </trkpt>
      <trkpt lat="45.00611" lon="2.89161">
        <ele>1241.7</ele>
        <time>2010-01-01T00:00:00Z</time>
      </trkpt>
      <trkpt lat="45.00612" lon="2.89175">
        <ele>1240</ele>
        <time>2010-01-01T00:00:00Z</time>
      </trkpt>
      <trkpt lat="45.00612" lon="2.8918">
        <ele>1239.9</ele>
        <time>2010-01-01T00:00:00Z</time>
      </trkpt>
      <trkpt lat="45.00612" lon="2.89195">
        <ele>1239.7</ele>
        <time>2010-01-01T00:00:00Z</time>
      </trkpt>
      <trkpt lat="45.00611" lon="2.89212">
        <ele>1239.3</ele>
        <time>2010-01-01T00:00:00Z</time>
      </trkpt>
      <trkpt lat="45.00606" lon="2.89229">
        <ele>1239</ele>
        <time>2010-01-01T00:00:00Z</time>
      </trkpt>
      <trkpt lat="45.00602" lon="2.89245">
        <ele>1238.7</ele>
        <time>2010-01-01T00:00:00Z</time>
      </trkpt>
      <trkpt lat="45.00597" lon="2.89256">
        <ele>1236.2</ele>
        <time>2010-01-01T00:00:00Z</time>
      </trkpt>
      <trkpt lat="45.00591" lon="2.89265">
        <ele>1235.9</ele>
        <time>2010-01-01T00:00:00Z</time>
      </trkpt>
      <trkpt lat="45.0058" lon="2.89276">
        <ele>1232.4</ele>
        <time>2010-01-01T00:00:00Z</time>
      </trkpt>
      <trkpt lat="45.0057" lon="2.89284">
        <ele>1231.2</ele>
        <time>2010-01-01T00:00:00Z</time>
      </trkpt>
      <trkpt lat="45.00564" lon="2.89294">
        <ele>1230.4</ele>
        <time>2010-01-01T00:00:00Z</time>
      </trkpt>
      <trkpt lat="45.00561" lon="2.89303">
        <ele>1230</ele>
        <time>2010-01-01T00:00:00Z</time>
      </trkpt>
      <trkpt lat="45.00557" lon="2.8932">
        <ele>1229.6</ele>
        <time>2010-01-01T00:00:00Z</time>
      </trkpt>
      <trkpt lat="45.00556" lon="2.89337">
        <ele>1226.6</ele>
        <time>2010-01-01T00:00:00Z</time>
      </trkpt>
      <trkpt lat="45.00555" lon="2.89364">
        <ele>1225.3</ele>
        <time>2010-01-01T00:00:00Z</time>
      </trkpt>
      <trkpt lat="45.00555" lon="2.89379">
        <ele>1224.6</ele>
        <time>2010-01-01T00:00:00Z</time>
      </trkpt>
      <trkpt lat="45.00553" lon="2.89387">
        <ele>1224.2</ele>
        <time>2010-01-01T00:00:00Z</time>
      </trkpt>
      <trkpt lat="45.00549" lon="2.89393">
        <ele>1223.9</ele>
        <time>2010-01-01T00:00:00Z</time>
      </trkpt>
      <trkpt lat="45.00538" lon="2.89412">
        <ele>1223.1</ele>
        <time>2010-01-01T00:00:00Z</time>
      </trkpt>
      <trkpt lat="45.00525" lon="2.89435">
        <ele>1217.7</ele>
        <time>2010-01-01T00:00:00Z</time>
      </trkpt>
      <trkpt lat="45.00511" lon="2.89459">
        <ele>1216.3</ele>
        <time>2010-01-01T00:00:00Z</time>
      </trkpt>
      <trkpt lat="45.00506" lon="2.89469">
        <ele>1215.5</ele>
        <time>2010-01-01T00:00:00Z</time>
      </trkpt>
      <trkpt lat="45.00506" lon="2.89469">
        <ele>1215.5</ele>
        <time>2010-01-01T00:00:00Z</time>
      </trkpt>
      <trkpt lat="45.005" lon="2.89478">
        <ele>1214.7</ele>
        <time>2010-01-01T00:00:00Z</time>
      </trkpt>
      <trkpt lat="45.00504" lon="2.8948">
        <ele>1214.6</ele>
        <time>2010-01-01T00:00:00Z</time>
      </trkpt>
      <trkpt lat="45.00511" lon="2.89482">
        <ele>1214.6</ele>
        <time>2010-01-01T00:00:00Z</time>
      </trkpt>
      <trkpt lat="45.00519" lon="2.89482">
        <ele>1214.8</ele>
        <time>2010-01-01T00:00:00Z</time>
      </trkpt>
      <trkpt lat="45.00531" lon="2.89481">
        <ele>1215.2</ele>
        <time>2010-01-01T00:00:00Z</time>
      </trkpt>
      <trkpt lat="45.00539" lon="2.8948">
        <ele>1215.3</ele>
        <time>2010-01-01T00:00:00Z</time>
      </trkpt>
      <trkpt lat="45.00547" lon="2.89476">
        <ele>1215.5</ele>
        <time>2010-01-01T00:00:00Z</time>
      </trkpt>
      <trkpt lat="45.00555" lon="2.89474">
        <ele>1215.5</ele>
        <time>2010-01-01T00:00:00Z</time>
      </trkpt>
      <trkpt lat="45.00568" lon="2.89472">
        <ele>1215.4</ele>
        <time>2010-01-01T00:00:00Z</time>
      </trkpt>
      <trkpt lat="45.00587" lon="2.89471">
        <ele>1214.1</ele>
        <time>2010-01-01T00:00:00Z</time>
      </trkpt>
      <trkpt lat="45.0061" lon="2.89469">
        <ele>1214.1</ele>
        <time>2010-01-01T00:00:00Z</time>
      </trkpt>
      <trkpt lat="45.00618" lon="2.89469">
        <ele>1214</ele>
        <time>2010-01-01T00:00:00Z</time>
      </trkpt>
      <trkpt lat="45.00625" lon="2.89472">
        <ele>1213.6</ele>
        <time>2010-01-01T00:00:00Z</time>
      </trkpt>
      <trkpt lat="45.00633" lon="2.89477">
        <ele>1213</ele>
        <time>2010-01-01T00:00:00Z</time>
      </trkpt>
      <trkpt lat="45.00638" lon="2.89479">
        <ele>1212.7</ele>
        <time>2010-01-01T00:00:00Z</time>
      </trkpt>
      <trkpt lat="45.00645" lon="2.8948">
        <ele>1212.2</ele>
        <time>2010-01-01T00:00:00Z</time>
      </trkpt>
      <trkpt lat="45.00662" lon="2.8948">
        <ele>1211.2</ele>
        <time>2010-01-01T00:00:00Z</time>
      </trkpt>
      <trkpt lat="45.00679" lon="2.89482">
        <ele>1208</ele>
        <time>2010-01-01T00:00:00Z</time>
      </trkpt>
      <trkpt lat="45.00695" lon="2.89486">
        <ele>1207.6</ele>
        <time>2010-01-01T00:00:00Z</time>
      </trkpt>
      <trkpt lat="45.00709" lon="2.8949">
        <ele>1206.8</ele>
        <time>2010-01-01T00:00:00Z</time>
      </trkpt>
      <trkpt lat="45.00728" lon="2.89496">
        <ele>1204.9</ele>
        <time>2010-01-01T00:00:00Z</time>
      </trkpt>
      <trkpt lat="45.0075" lon="2.89502">
        <ele>1199.5</ele>
        <time>2010-01-01T00:00:00Z</time>
      </trkpt>
      <trkpt lat="45.00772" lon="2.89509">
        <ele>1196.1</ele>
        <time>2010-01-01T00:00:00Z</time>
      </trkpt>
      <trkpt lat="45.00795" lon="2.89516">
        <ele>1194.5</ele>
        <time>2010-01-01T00:00:00Z</time>
      </trkpt>
      <trkpt lat="45.00823" lon="2.89525">
        <ele>1193.8</ele>
        <time>2010-01-01T00:00:00Z</time>
      </trkpt>
      <trkpt lat="45.00852" lon="2.89534">
        <ele>1190.5</ele>
        <time>2010-01-01T00:00:00Z</time>
      </trkpt>
      <trkpt lat="45.00877" lon="2.89542">
        <ele>1189.4</ele>
        <time>2010-01-01T00:00:00Z</time>
      </trkpt>
      <trkpt lat="45.00897" lon="2.89549">
        <ele>1188.5</ele>
        <time>2010-01-01T00:00:00Z</time>
      </trkpt>
      <trkpt lat="45.00913" lon="2.89553">
        <ele>1187.8</ele>
        <time>2010-01-01T00:00:00Z</time>
      </trkpt>
      <trkpt lat="45.00929" lon="2.89555">
        <ele>1185</ele>
        <time>2010-01-01T00:00:00Z</time>
      </trkpt>
      <trkpt lat="45.00945" lon="2.89558">
        <ele>1184.6</ele>
        <time>2010-01-01T00:00:00Z</time>
      </trkpt>
      <trkpt lat="45.00958" lon="2.89561">
        <ele>1184.1</ele>
        <time>2010-01-01T00:00:00Z</time>
      </trkpt>
      <trkpt lat="45.00969" lon="2.89566">
        <ele>1183.3</ele>
        <time>2010-01-01T00:00:00Z</time>
      </trkpt>
      <trkpt lat="45.00981" lon="2.8957">
        <ele>1182</ele>
        <time>2010-01-01T00:00:00Z</time>
      </trkpt>
      <trkpt lat="45.00995" lon="2.89573">
        <ele>1180.1</ele>
        <time>2010-01-01T00:00:00Z</time>
      </trkpt>
      <trkpt lat="45.01012" lon="2.89576">
        <ele>1178.1</ele>
        <time>2010-01-01T00:00:00Z</time>
      </trkpt>
      <trkpt lat="45.01027" lon="2.89579">
        <ele>1178.2</ele>
        <time>2010-01-01T00:00:00Z</time>
      </trkpt>
      <trkpt lat="45.01038" lon="2.8958">
        <ele>1177.8</ele>
        <time>2010-01-01T00:00:00Z</time>
      </trkpt>
      <trkpt lat="45.01042" lon="2.89579">
        <ele>1177.7</ele>
        <time>2010-01-01T00:00:00Z</time>
      </trkpt>
      <trkpt lat="45.01045" lon="2.89579">
        <ele>1177.5</ele>
        <time>2010-01-01T00:00:00Z</time>
      </trkpt>
      <trkpt lat="45.01056" lon="2.89576">
        <ele>1176.7</ele>
        <time>2010-01-01T00:00:00Z</time>
      </trkpt>
      <trkpt lat="45.01069" lon="2.89576">
        <ele>1175.1</ele>
        <time>2010-01-01T00:00:00Z</time>
      </trkpt>
      <trkpt lat="45.01072" lon="2.89577">
        <ele>1174.5</ele>
        <time>2010-01-01T00:00:00Z</time>
      </trkpt>
      <trkpt lat="45.01072" lon="2.89577">
        <ele>1174.5</ele>
        <time>2010-01-01T00:00:00Z</time>
      </trkpt>
      <trkpt lat="45.01077" lon="2.89578">
        <ele>1173.5</ele>
        <time>2010-01-01T00:00:00Z</time>
      </trkpt>
      <trkpt lat="45.0106" lon="2.89613">
        <ele>1170</ele>
        <time>2010-01-01T00:00:00Z</time>
      </trkpt>
      <trkpt lat="45.01041" lon="2.89653">
        <ele>1168.8</ele>
        <time>2010-01-01T00:00:00Z</time>
      </trkpt>
      <trkpt lat="45.01028" lon="2.89685">
        <ele>1163.4</ele>
        <time>2010-01-01T00:00:00Z</time>
      </trkpt>
      <trkpt lat="45.01014" lon="2.89721">
        <ele>1161.3</ele>
        <time>2010-01-01T00:00:00Z</time>
      </trkpt>
      <trkpt lat="45.01004" lon="2.89748">
        <ele>1159.4</ele>
        <time>2010-01-01T00:00:00Z</time>
      </trkpt>
      <trkpt lat="45.00995" lon="2.89768">
        <ele>1158.8</ele>
        <time>2010-01-01T00:00:00Z</time>
      </trkpt>
      <trkpt lat="45.00984" lon="2.89789">
        <ele>1158.1</ele>
        <time>2010-01-01T00:00:00Z</time>
      </trkpt>
      <trkpt lat="45.00973" lon="2.89808">
        <ele>1157.3</ele>
        <time>2010-01-01T00:00:00Z</time>
      </trkpt>
      <trkpt lat="45.00957" lon="2.89829">
        <ele>1157.5</ele>
        <time>2010-01-01T00:00:00Z</time>
      </trkpt>
      <trkpt lat="45.00939" lon="2.89851">
        <ele>1152.8</ele>
        <time>2010-01-01T00:00:00Z</time>
      </trkpt>
      <trkpt lat="45.00919" lon="2.89875">
        <ele>1151.4</ele>
        <time>2010-01-01T00:00:00Z</time>
      </trkpt>
      <trkpt lat="45.00899" lon="2.89903">
        <ele>1152.7</ele>
        <time>2010-01-01T00:00:00Z</time>
      </trkpt>
      <trkpt lat="45.00879" lon="2.89932">
        <ele>1148</ele>
        <time>2010-01-01T00:00:00Z</time>
      </trkpt>
      <trkpt lat="45.00861" lon="2.89957">
        <ele>1147.3</ele>
        <time>2010-01-01T00:00:00Z</time>
      </trkpt>
      <trkpt lat="45.00843" lon="2.8998">
        <ele>1145.7</ele>
        <time>2010-01-01T00:00:00Z</time>
      </trkpt>
      <trkpt lat="45.00821" lon="2.90009">
        <ele>1142.4</ele>
        <time>2010-01-01T00:00:00Z</time>
      </trkpt>
      <trkpt lat="45.00801" lon="2.90034">
        <ele>1141.7</ele>
        <time>2010-01-01T00:00:00Z</time>
      </trkpt>
      <trkpt lat="45.00787" lon="2.90052">
        <ele>1141.1</ele>
        <time>2010-01-01T00:00:00Z</time>
      </trkpt>
      <trkpt lat="45.00778" lon="2.90068">
        <ele>1140.4</ele>
        <time>2010-01-01T00:00:00Z</time>
      </trkpt>
      <trkpt lat="45.00772" lon="2.90082">
        <ele>1139.9</ele>
        <time>2010-01-01T00:00:00Z</time>
      </trkpt>
      <trkpt lat="45.00767" lon="2.90101">
        <ele>1136.7</ele>
        <time>2010-01-01T00:00:00Z</time>
      </trkpt>
      <trkpt lat="45.00764" lon="2.90117">
        <ele>1136.3</ele>
        <time>2010-01-01T00:00:00Z</time>
      </trkpt>
      <trkpt lat="45.00764" lon="2.90134">
        <ele>1135.7</ele>
        <time>2010-01-01T00:00:00Z</time>
      </trkpt>
      <trkpt lat="45.00765" lon="2.90156">
        <ele>1135</ele>
        <time>2010-01-01T00:00:00Z</time>
      </trkpt>
      <trkpt lat="45.00768" lon="2.90175">
        <ele>1132.8</ele>
        <time>2010-01-01T00:00:00Z</time>
      </trkpt>
      <trkpt lat="45.00769" lon="2.90193">
        <ele>1132.3</ele>
        <time>2010-01-01T00:00:00Z</time>
      </trkpt>
      <trkpt lat="45.00769" lon="2.90204">
        <ele>1132</ele>
        <time>2010-01-01T00:00:00Z</time>
      </trkpt>
      <trkpt lat="45.00768" lon="2.90213">
        <ele>1131.7</ele>
        <time>2010-01-01T00:00:00Z</time>
      </trkpt>
      <trkpt lat="45.00765" lon="2.90222">
        <ele>1131.4</ele>
        <time>2010-01-01T00:00:00Z</time>
      </trkpt>
      <trkpt lat="45.00759" lon="2.90237">
        <ele>1130.8</ele>
        <time>2010-01-01T00:00:00Z</time>
      </trkpt>
      <trkpt lat="45.00744" lon="2.90266">
        <ele>1128.6</ele>
        <time>2010-01-01T00:00:00Z</time>
      </trkpt>
      <trkpt lat="45.00727" lon="2.90298">
        <ele>1127.2</ele>
        <time>2010-01-01T00:00:00Z</time>
      </trkpt>
      <trkpt lat="45.00709" lon="2.90333">
        <ele>1126.6</ele>
        <time>2010-01-01T00:00:00Z</time>
      </trkpt>
      <trkpt lat="45.00705" lon="2.9034">
        <ele>1123.8</ele>
        <time>2010-01-01T00:00:00Z</time>
      </trkpt>
      <trkpt lat="45.0069" lon="2.9037">
        <ele>1123.1</ele>
        <time>2010-01-01T00:00:00Z</time>
      </trkpt>
      <trkpt lat="45.00689" lon="2.90373">
        <ele>1123</ele>
        <time>2010-01-01T00:00:00Z</time>
      </trkpt>
      <trkpt lat="45.00681" lon="2.9039">
        <ele>1122.2</ele>
        <time>2010-01-01T00:00:00Z</time>
      </trkpt>
      <trkpt lat="45.00678" lon="2.90399">
        <ele>1121.7</ele>
        <time>2010-01-01T00:00:00Z</time>
      </trkpt>
      <trkpt lat="45.00677" lon="2.90404">
        <ele>1121.4</ele>
        <time>2010-01-01T00:00:00Z</time>
      </trkpt>
      <trkpt lat="45.00673" lon="2.90424">
        <ele>1119.5</ele>
        <time>2010-01-01T00:00:00Z</time>
      </trkpt>
      <trkpt lat="45.00673" lon="2.90438">
        <ele>1119.1</ele>
        <time>2010-01-01T00:00:00Z</time>
      </trkpt>
      <trkpt lat="45.00673" lon="2.90438">
        <ele>1119.1</ele>
        <time>2010-01-01T00:00:00Z</time>
      </trkpt>
      <trkpt lat="45.00673" lon="2.90444">
        <ele>1118.9</ele>
        <time>2010-01-01T00:00:00Z</time>
      </trkpt>
      <trkpt lat="45.00673" lon="2.90451">
        <ele>1118.7</ele>
        <time>2010-01-01T00:00:00Z</time>
      </trkpt>
      <trkpt lat="45.00673" lon="2.90467">
        <ele>1118.3</ele>
        <time>2010-01-01T00:00:00Z</time>
      </trkpt>
      <trkpt lat="45.00671" lon="2.90479">
        <ele>1117.9</ele>
        <time>2010-01-01T00:00:00Z</time>
      </trkpt>
      <trkpt lat="45.00668" lon="2.90507">
        <ele>1116.1</ele>
        <time>2010-01-01T00:00:00Z</time>
      </trkpt>
    </trkseg>
  </trk>
  <trk>
    <name><![CDATA[Marche du soir]]></name>
    <trkseg>
      <trkpt lat="45.00679" lon="2.9056">
        <ele>1170.2466</ele>
        <time>2020-08-03T17:26:51.032Z</time>
      </trkpt>
      <trkpt lat="45.00682" lon="2.90547">
        <ele>1170.2466</ele>
        <time>2020-08-03T17:27:00.711Z</time>
      </trkpt>
      <trkpt lat="45.00678" lon="2.90535">
        <ele>1170.2466</ele>
        <time>2020-08-03T17:27:32.705Z</time>
      </trkpt>
      <trkpt lat="45.00683" lon="2.90524">
        <ele>1170.2466</ele>
        <time>2020-08-03T17:27:43.714Z</time>
      </trkpt>
      <trkpt lat="45.00693" lon="2.90522">
        <ele>1170.2466</ele>
        <time>2020-08-03T17:27:53.710Z</time>
      </trkpt>
      <trkpt lat="45.00702" lon="2.9052">
        <ele>1170.2466</ele>
        <time>2020-08-03T17:28:07.725Z</time>
      </trkpt>
      <trkpt lat="45.00705" lon="2.90507">
        <ele>1170.2466</ele>
        <time>2020-08-03T17:28:16.719Z</time>
      </trkpt>
      <trkpt lat="45.00712" lon="2.90498">
        <ele>1170.2466</ele>
        <time>2020-08-03T17:28:33.741Z</time>
      </trkpt>
      <trkpt lat="45.00717" lon="2.90485">
        <ele>1170.2466</ele>
        <time>2020-08-03T17:28:45.706Z</time>
      </trkpt>
      <trkpt lat="45.00722" lon="2.90474">
        <ele>1170.2466</ele>
        <time>2020-08-03T17:28:54.726Z</time>
      </trkpt>
      <trkpt lat="45.0073" lon="2.90467">
        <ele>1170.380882</ele>
        <time>2020-08-03T17:29:05.718Z</time>
      </trkpt>
      <trkpt lat="45.00728" lon="2.90454">
        <ele>1170.608176</ele>
        <time>2020-08-03T17:29:17.708Z</time>
      </trkpt>
      <trkpt lat="45.00728" lon="2.90441">
        <ele>1170.844838</ele>
        <time>2020-08-03T17:29:24.712Z</time>
      </trkpt>
      <trkpt lat="45.00727" lon="2.90428">
        <ele>1171.072165</ele>
        <time>2020-08-03T17:29:33.719Z</time>
      </trkpt>
      <trkpt lat="45.00719" lon="2.90422">
        <ele>1171.303401</ele>
        <time>2020-08-03T17:29:42.706Z</time>
      </trkpt>
      <trkpt lat="45.00712" lon="2.90415">
        <ele>1171.528731</ele>
        <time>2020-08-03T17:29:55.716Z</time>
      </trkpt>
      <trkpt lat="45.00705" lon="2.90404">
        <ele>1171.771831</ele>
        <time>2020-08-03T17:30:06.715Z</time>
      </trkpt>
      <trkpt lat="45.00699" lon="2.90393">
        <ele>1172.019521</ele>
        <time>2020-08-03T17:30:17.717Z</time>
      </trkpt>
      <trkpt lat="45.00691" lon="2.90388">
        <ele>1172.248429</ele>
        <time>2020-08-03T17:30:26.728Z</time>
      </trkpt>
      <trkpt lat="45.00681" lon="2.90386">
        <ele>1172.480829</ele>
        <time>2020-08-03T17:30:45.720Z</time>
      </trkpt>
      <trkpt lat="45.00674" lon="2.90393">
        <ele>1172.709216</ele>
        <time>2020-08-03T17:30:58.706Z</time>
      </trkpt>
      <trkpt lat="45.00665" lon="2.9039">
        <ele>1172.938563</ele>
        <time>2020-08-03T17:31:07.715Z</time>
      </trkpt>
      <trkpt lat="45.00661" lon="2.90378">
        <ele>1173.177134</ele>
        <time>2020-08-03T17:31:17.721Z</time>
      </trkpt>
      <trkpt lat="45.00658" lon="2.90365">
        <ele>1173.406452</ele>
        <time>2020-08-03T17:31:25.717Z</time>
      </trkpt>
      <trkpt lat="45.00654" lon="2.90354">
        <ele>1173.640456</ele>
        <time>2020-08-03T17:31:36.718Z</time>
      </trkpt>
      <trkpt lat="45.0065" lon="2.90341">
        <ele>1173.882624</ele>
        <time>2020-08-03T17:31:48.724Z</time>
      </trkpt>
      <trkpt lat="45.00646" lon="2.9033">
        <ele>1174.107984</ele>
        <time>2020-08-03T17:31:59.717Z</time>
      </trkpt>
      <trkpt lat="45.00642" lon="2.90317">
        <ele>1174.348176</ele>
        <time>2020-08-03T17:32:12.714Z</time>
      </trkpt>
      <trkpt lat="45.00637" lon="2.90307">
        <ele>1174.577379</ele>
        <time>2020-08-03T17:32:24.722Z</time>
      </trkpt>
      <trkpt lat="45.0063" lon="2.90298">
        <ele>1174.938044</ele>
        <time>2020-08-03T17:32:33.717Z</time>
      </trkpt>
      <trkpt lat="45.00621" lon="2.90292">
        <ele>1175.578184</ele>
        <time>2020-08-03T17:32:49.712Z</time>
      </trkpt>
      <trkpt lat="45.00612" lon="2.90289">
        <ele>1176.215473</ele>
        <time>2020-08-03T17:32:59.716Z</time>
      </trkpt>
      <trkpt lat="45.00604" lon="2.90285">
        <ele>1176.828554</ele>
        <time>2020-08-03T17:33:11.705Z</time>
      </trkpt>
      <trkpt lat="45.00595" lon="2.9028">
        <ele>1177.45611</ele>
        <time>2020-08-03T17:33:23.718Z</time>
      </trkpt>
      <trkpt lat="45.00587" lon="2.90274">
        <ele>1178.071791</ele>
        <time>2020-08-03T17:33:33.715Z</time>
      </trkpt>
      <trkpt lat="45.00578" lon="2.9027">
        <ele>1178.715352</ele>
        <time>2020-08-03T17:33:44.704Z</time>
      </trkpt>
      <trkpt lat="45.00569" lon="2.90266">
        <ele>1179.333285</ele>
        <time>2020-08-03T17:33:55.696Z</time>
      </trkpt>
      <trkpt lat="45.00559" lon="2.90262">
        <ele>1179.994801</ele>
        <time>2020-08-03T17:34:05.707Z</time>
      </trkpt>
      <trkpt lat="45.0055" lon="2.90258">
        <ele>1180.641282</ele>
        <time>2020-08-03T17:34:14.706Z</time>
      </trkpt>
      <trkpt lat="45.00541" lon="2.90253">
        <ele>1181.31154</ele>
        <time>2020-08-03T17:34:25.707Z</time>
      </trkpt>
      <trkpt lat="45.00532" lon="2.9025">
        <ele>1181.968511</ele>
        <time>2020-08-03T17:34:37.702Z</time>
      </trkpt>
      <trkpt lat="45.00522" lon="2.90246">
        <ele>1182.613025</ele>
        <time>2020-08-03T17:34:48.703Z</time>
      </trkpt>
      <trkpt lat="45.00514" lon="2.9024">
        <ele>1183.237349</ele>
        <time>2020-08-03T17:35:00.694Z</time>
      </trkpt>
      <trkpt lat="45.00506" lon="2.90234">
        <ele>1183.892181</ele>
        <time>2020-08-03T17:35:12.721Z</time>
      </trkpt>
      <trkpt lat="45.00497" lon="2.90228">
        <ele>1184.503722</ele>
        <time>2020-08-03T17:35:24.696Z</time>
      </trkpt>
      <trkpt lat="45.0049" lon="2.90219">
        <ele>1185.139455</ele>
        <time>2020-08-03T17:35:39.711Z</time>
      </trkpt>
      <trkpt lat="45.00482" lon="2.90212">
        <ele>1185.799861</ele>
        <time>2020-08-03T17:35:50.714Z</time>
      </trkpt>
      <trkpt lat="45.00473" lon="2.90207">
        <ele>1186.435861</ele>
        <time>2020-08-03T17:36:06.739Z</time>
      </trkpt>
      <trkpt lat="45.00465" lon="2.90203">
        <ele>1186.936798</ele>
        <time>2020-08-03T17:36:17.699Z</time>
      </trkpt>
      <trkpt lat="45.00457" lon="2.90197">
        <ele>1187.180377</ele>
        <time>2020-08-03T17:36:26.700Z</time>
      </trkpt>
      <trkpt lat="45.00448" lon="2.90192">
        <ele>1187.429148</ele>
        <time>2020-08-03T17:36:35.695Z</time>
      </trkpt>
      <trkpt lat="45.00439" lon="2.90186">
        <ele>1187.681667</ele>
        <time>2020-08-03T17:36:46.707Z</time>
      </trkpt>
      <trkpt lat="45.00432" lon="2.90178">
        <ele>1187.925471</ele>
        <time>2020-08-03T17:36:55.700Z</time>
      </trkpt>
      <trkpt lat="45.00424" lon="2.90171">
        <ele>1188.176916</ele>
        <time>2020-08-03T17:37:06.703Z</time>
      </trkpt>
      <trkpt lat="45.00417" lon="2.90164">
        <ele>1188.424927</ele>
        <time>2020-08-03T17:37:21.698Z</time>
      </trkpt>
      <trkpt lat="45.00408" lon="2.90159">
        <ele>1188.674424</ele>
        <time>2020-08-03T17:37:33.709Z</time>
      </trkpt>
      <trkpt lat="45.00401" lon="2.9015">
        <ele>1188.933943</ele>
        <time>2020-08-03T17:37:50.696Z</time>
      </trkpt>
      <trkpt lat="45.00394" lon="2.9014">
        <ele>1189.189667</ele>
        <time>2020-08-03T17:38:05.713Z</time>
      </trkpt>
      <trkpt lat="45.00385" lon="2.90134">
        <ele>1189.446228</ele>
        <time>2020-08-03T17:38:14.701Z</time>
      </trkpt>
      <trkpt lat="45.00378" lon="2.90127">
        <ele>1189.693076</ele>
        <time>2020-08-03T17:38:24.713Z</time>
      </trkpt>
      <trkpt lat="45.00371" lon="2.90115">
        <ele>1189.96365</ele>
        <time>2020-08-03T17:38:33.719Z</time>
      </trkpt>
      <trkpt lat="45.00365" lon="2.90104">
        <ele>1190.232732</ele>
        <time>2020-08-03T17:38:42.697Z</time>
      </trkpt>
      <trkpt lat="45.00356" lon="2.90098">
        <ele>1190.499228</ele>
        <time>2020-08-03T17:38:50.696Z</time>
      </trkpt>
      <trkpt lat="45.00349" lon="2.90089">
        <ele>1190.769449</ele>
        <time>2020-08-03T17:38:59.696Z</time>
      </trkpt>
      <trkpt lat="45.00341" lon="2.90081">
        <ele>1191.01085</ele>
        <time>2020-08-03T17:39:06.709Z</time>
      </trkpt>
      <trkpt lat="45.00333" lon="2.90074">
        <ele>1191.265344</ele>
        <time>2020-08-03T17:39:13.703Z</time>
      </trkpt>
      <trkpt lat="45.00327" lon="2.90065">
        <ele>1191.511944</ele>
        <time>2020-08-03T17:39:23.699Z</time>
      </trkpt>
      <trkpt lat="45.0032" lon="2.90056">
        <ele>1191.846181</ele>
        <time>2020-08-03T17:39:31.705Z</time>
      </trkpt>
      <trkpt lat="45.00314" lon="2.90045">
        <ele>1192.381328</ele>
        <time>2020-08-03T17:39:40.701Z</time>
      </trkpt>
      <trkpt lat="45.00305" lon="2.90039">
        <ele>1192.920456</ele>
        <time>2020-08-03T17:39:49.704Z</time>
      </trkpt>
      <trkpt lat="45.00298" lon="2.90031">
        <ele>1193.421348</ele>
        <time>2020-08-03T17:39:57.695Z</time>
      </trkpt>
      <trkpt lat="45.00289" lon="2.90028">
        <ele>1193.935103</ele>
        <time>2020-08-03T17:40:05.699Z</time>
      </trkpt>
      <trkpt lat="45.0028" lon="2.90024">
        <ele>1194.469214</ele>
        <time>2020-08-03T17:40:14.701Z</time>
      </trkpt>
      <trkpt lat="45.00272" lon="2.90016">
        <ele>1194.979367</ele>
        <time>2020-08-03T17:40:25.695Z</time>
      </trkpt>
      <trkpt lat="45.00264" lon="2.90009">
        <ele>1195.517122</ele>
        <time>2020-08-03T17:40:34.705Z</time>
      </trkpt>
      <trkpt lat="45.00255" lon="2.90004">
        <ele>1196.066988</ele>
        <time>2020-08-03T17:40:46.693Z</time>
      </trkpt>
      <trkpt lat="45.00246" lon="2.90002">
        <ele>1196.57324</ele>
        <time>2020-08-03T17:40:54.728Z</time>
      </trkpt>
      <trkpt lat="45.00239" lon="2.89993">
        <ele>1197.099792</ele>
        <time>2020-08-03T17:41:06.707Z</time>
      </trkpt>
      <trkpt lat="45.00231" lon="2.89985">
        <ele>1197.630063</ele>
        <time>2020-08-03T17:41:18.696Z</time>
      </trkpt>
      <trkpt lat="45.00222" lon="2.89982">
        <ele>1198.166362</ele>
        <time>2020-08-03T17:41:25.701Z</time>
      </trkpt>
      <trkpt lat="45.00213" lon="2.89977">
        <ele>1198.720706</ele>
        <time>2020-08-03T17:41:32.708Z</time>
      </trkpt>
      <trkpt lat="45.00204" lon="2.89972">
        <ele>1199.24801</ele>
        <time>2020-08-03T17:41:40.716Z</time>
      </trkpt>
      <trkpt lat="45.00195" lon="2.89966">
        <ele>1199.771842</ele>
        <time>2020-08-03T17:41:50.709Z</time>
      </trkpt>
      <trkpt lat="45.00187" lon="2.89961">
        <ele>1200.285836</ele>
        <time>2020-08-03T17:41:59.715Z</time>
      </trkpt>
      <trkpt lat="45.00178" lon="2.89957">
        <ele>1200.801297</ele>
        <time>2020-08-03T17:42:07.709Z</time>
      </trkpt>
      <trkpt lat="45.00171" lon="2.89948">
        <ele>1201.318497</ele>
        <time>2020-08-03T17:42:22.701Z</time>
      </trkpt>
      <trkpt lat="45.00161" lon="2.89948">
        <ele>1201.772921</ele>
        <time>2020-08-03T17:42:32.698Z</time>
      </trkpt>
      <trkpt lat="45.00152" lon="2.89943">
        <ele>1202.11164</ele>
        <time>2020-08-03T17:42:42.700Z</time>
      </trkpt>
      <trkpt lat="45.00144" lon="2.89936">
        <ele>1202.432847</ele>
        <time>2020-08-03T17:42:51.703Z</time>
      </trkpt>
      <trkpt lat="45.00135" lon="2.89931">
        <ele>1202.748113</ele>
        <time>2020-08-03T17:43:02.711Z</time>
      </trkpt>
      <trkpt lat="45.00127" lon="2.89925">
        <ele>1203.066913</ele>
        <time>2020-08-03T17:43:12.698Z</time>
      </trkpt>
      <trkpt lat="45.00118" lon="2.89922">
        <ele>1203.375482</ele>
        <time>2020-08-03T17:43:23.700Z</time>
      </trkpt>
      <trkpt lat="45.00109" lon="2.89918">
        <ele>1203.691749</ele>
        <time>2020-08-03T17:43:35.705Z</time>
      </trkpt>
      <trkpt lat="45.001" lon="2.89914">
        <ele>1204.008748</ele>
        <time>2020-08-03T17:43:44.699Z</time>
      </trkpt>
      <trkpt lat="45.00091" lon="2.8991">
        <ele>1204.32238</ele>
        <time>2020-08-03T17:43:58.697Z</time>
      </trkpt>
      <trkpt lat="45.00083" lon="2.89903">
        <ele>1204.624571</ele>
        <time>2020-08-03T17:44:11.735Z</time>
      </trkpt>
      <trkpt lat="45.00075" lon="2.89898">
        <ele>1204.939819</ele>
        <time>2020-08-03T17:44:24.705Z</time>
      </trkpt>
      <trkpt lat="45.00065" lon="2.89894">
        <ele>1205.267707</ele>
        <time>2020-08-03T17:44:35.710Z</time>
      </trkpt>
      <trkpt lat="45.00056" lon="2.89891">
        <ele>1205.592404</ele>
        <time>2020-08-03T17:44:46.703Z</time>
      </trkpt>
      <trkpt lat="45.00047" lon="2.89888">
        <ele>1205.899837</ele>
        <time>2020-08-03T17:44:57.714Z</time>
      </trkpt>
      <trkpt lat="45.00038" lon="2.89884">
        <ele>1206.210504</ele>
        <time>2020-08-03T17:45:07.722Z</time>
      </trkpt>
      <trkpt lat="45.00029" lon="2.8988">
        <ele>1206.526798</ele>
        <time>2020-08-03T17:45:18.709Z</time>
      </trkpt>
      <trkpt lat="45.00021" lon="2.89876">
        <ele>1206.838127</ele>
        <time>2020-08-03T17:45:28.702Z</time>
      </trkpt>
      <trkpt lat="45.00012" lon="2.89869">
        <ele>1207.157538</ele>
        <time>2020-08-03T17:45:38.696Z</time>
      </trkpt>
      <trkpt lat="45.00004" lon="2.89862">
        <ele>1207.469312</ele>
        <time>2020-08-03T17:45:47.707Z</time>
      </trkpt>
      <trkpt lat="44.99997" lon="2.89853">
        <ele>1207.607221</ele>
        <time>2020-08-03T17:45:59.698Z</time>
      </trkpt>
      <trkpt lat="44.9999" lon="2.89844">
        <ele>1207.308608</ele>
        <time>2020-08-03T17:46:10.733Z</time>
      </trkpt>
      <trkpt lat="44.99983" lon="2.89835">
        <ele>1207.021044</ele>
        <time>2020-08-03T17:46:20.706Z</time>
      </trkpt>
      <trkpt lat="44.99976" lon="2.89826">
        <ele>1206.729087</ele>
        <time>2020-08-03T17:46:33.701Z</time>
      </trkpt>
      <trkpt lat="44.9997" lon="2.89815">
        <ele>1206.428459</ele>
        <time>2020-08-03T17:46:43.704Z</time>
      </trkpt>
      <trkpt lat="44.99965" lon="2.89804">
        <ele>1206.142266</ele>
        <time>2020-08-03T17:46:54.716Z</time>
      </trkpt>
      <trkpt lat="44.99961" lon="2.89792">
        <ele>1205.862737</ele>
        <time>2020-08-03T17:47:04.700Z</time>
      </trkpt>
      <trkpt lat="44.99957" lon="2.8978">
        <ele>1205.572098</ele>
        <time>2020-08-03T17:47:13.700Z</time>
      </trkpt>
      <trkpt lat="44.99952" lon="2.89768">
        <ele>1205.27528</ele>
        <time>2020-08-03T17:47:26.711Z</time>
      </trkpt>
      <trkpt lat="44.99947" lon="2.89757">
        <ele>1204.98443</ele>
        <time>2020-08-03T17:47:37.697Z</time>
      </trkpt>
      <trkpt lat="44.99941" lon="2.89746">
        <ele>1204.679528</ele>
        <time>2020-08-03T17:47:47.697Z</time>
      </trkpt>
      <trkpt lat="44.99935" lon="2.89735">
        <ele>1204.376401</ele>
        <time>2020-08-03T17:47:58.702Z</time>
      </trkpt>
      <trkpt lat="44.9993" lon="2.89723">
        <ele>1204.073064</ele>
        <time>2020-08-03T17:48:07.705Z</time>
      </trkpt>
      <trkpt lat="44.99924" lon="2.89713">
        <ele>1203.791879</ele>
        <time>2020-08-03T17:48:16.708Z</time>
      </trkpt>
      <trkpt lat="44.99918" lon="2.89702">
        <ele>1203.488542</ele>
        <time>2020-08-03T17:48:25.701Z</time>
      </trkpt>
      <trkpt lat="44.99912" lon="2.89692">
        <ele>1203.210755</ele>
        <time>2020-08-03T17:48:33.696Z</time>
      </trkpt>
      <trkpt lat="44.99907" lon="2.8968">
        <ele>1202.909905</ele>
        <time>2020-08-03T17:48:41.706Z</time>
      </trkpt>
      <trkpt lat="44.99903" lon="2.89668">
        <ele>1202.616922</ele>
        <time>2020-08-03T17:48:52.701Z</time>
      </trkpt>
      <trkpt lat="44.99898" lon="2.89656">
        <ele>1202.307011</ele>
        <time>2020-08-03T17:49:01.699Z</time>
      </trkpt>
      <trkpt lat="44.99893" lon="2.89644">
        <ele>1201.72224</ele>
        <time>2020-08-03T17:49:10.699Z</time>
      </trkpt>
      <trkpt lat="44.99889" lon="2.89632">
        <ele>1200.905628</ele>
        <time>2020-08-03T17:49:18.699Z</time>
      </trkpt>
      <trkpt lat="44.99885" lon="2.8962">
        <ele>1200.083117</ele>
        <time>2020-08-03T17:49:27.697Z</time>
      </trkpt>
      <trkpt lat="44.99882" lon="2.89607">
        <ele>1199.273473</ele>
        <time>2020-08-03T17:49:38.703Z</time>
      </trkpt>
      <trkpt lat="44.99879" lon="2.89594">
        <ele>1198.4522</ele>
        <time>2020-08-03T17:49:47.697Z</time>
      </trkpt>
      <trkpt lat="44.99878" lon="2.89581">
        <ele>1197.615753</ele>
        <time>2020-08-03T17:49:57.711Z</time>
      </trkpt>
      <trkpt lat="44.99876" lon="2.89568">
        <ele>1196.821441</ele>
        <time>2020-08-03T17:50:07.724Z</time>
      </trkpt>
      <trkpt lat="44.99876" lon="2.89555">
        <ele>1196.029066</ele>
        <time>2020-08-03T17:50:18.709Z</time>
      </trkpt>
      <trkpt lat="44.99875" lon="2.89542">
        <ele>1195.229988</ele>
        <time>2020-08-03T17:50:29.701Z</time>
      </trkpt>
      <trkpt lat="44.99874" lon="2.89529">
        <ele>1194.441855</ele>
        <time>2020-08-03T17:50:41.697Z</time>
      </trkpt>
      <trkpt lat="44.99872" lon="2.89515">
        <ele>1193.606516</ele>
        <time>2020-08-03T17:50:53.715Z</time>
      </trkpt>
      <trkpt lat="44.99872" lon="2.89502">
        <ele>1192.806951</ele>
        <time>2020-08-03T17:51:06.697Z</time>
      </trkpt>
      <trkpt lat="44.99871" lon="2.89489">
        <ele>1191.989789</ele>
        <time>2020-08-03T17:51:16.722Z</time>
      </trkpt>
      <trkpt lat="44.99871" lon="2.89476">
        <ele>1191.167747</ele>
        <time>2020-08-03T17:51:25.708Z</time>
      </trkpt>
      <trkpt lat="44.99872" lon="2.89462">
        <ele>1190.315202</ele>
        <time>2020-08-03T17:51:35.699Z</time>
      </trkpt>
      <trkpt lat="44.99875" lon="2.89449">
        <ele>1189.511802</ele>
        <time>2020-08-03T17:51:48.700Z</time>
      </trkpt>
      <trkpt lat="44.99876" lon="2.89435">
        <ele>1188.669749</ele>
        <time>2020-08-03T17:51:55.699Z</time>
      </trkpt>
      <trkpt lat="44.9988" lon="2.89423">
        <ele>1187.877307</ele>
        <time>2020-08-03T17:52:02.708Z</time>
      </trkpt>
      <trkpt lat="44.99883" lon="2.89411">
        <ele>1187.085426</ele>
        <time>2020-08-03T17:52:10.707Z</time>
      </trkpt>
      <trkpt lat="44.99881" lon="2.89397">
        <ele>1186.386332</ele>
        <time>2020-08-03T17:52:17.703Z</time>
      </trkpt>
      <trkpt lat="44.9988" lon="2.89385">
        <ele>1185.872507</ele>
        <time>2020-08-03T17:52:24.695Z</time>
      </trkpt>
      <trkpt lat="44.99879" lon="2.89372">
        <ele>1185.351307</ele>
        <time>2020-08-03T17:52:32.716Z</time>
      </trkpt>
      <trkpt lat="44.99882" lon="2.89359">
        <ele>1184.827083</ele>
        <time>2020-08-03T17:52:43.700Z</time>
      </trkpt>
      <trkpt lat="44.99882" lon="2.89345">
        <ele>1184.267508</ele>
        <time>2020-08-03T17:52:52.697Z</time>
      </trkpt>
      <trkpt lat="44.99881" lon="2.89332">
        <ele>1183.706062</ele>
        <time>2020-08-03T17:53:01.717Z</time>
      </trkpt>
      <trkpt lat="44.99881" lon="2.89319">
        <ele>1183.191265</ele>
        <time>2020-08-03T17:53:11.705Z</time>
      </trkpt>
      <trkpt lat="44.9988" lon="2.89306">
        <ele>1182.654551</ele>
        <time>2020-08-03T17:53:28.705Z</time>
      </trkpt>
      <trkpt lat="44.99876" lon="2.89293">
        <ele>1182.105288</ele>
        <time>2020-08-03T17:53:35.712Z</time>
      </trkpt>
      <trkpt lat="44.99873" lon="2.8928">
        <ele>1181.54831</ele>
        <time>2020-08-03T17:53:45.708Z</time>
      </trkpt>
      <trkpt lat="44.9987" lon="2.89268">
        <ele>1181.031243</ele>
        <time>2020-08-03T17:53:55.705Z</time>
      </trkpt>
      <trkpt lat="44.99867" lon="2.89255">
        <ele>1180.451087</ele>
        <time>2020-08-03T17:54:05.723Z</time>
      </trkpt>
      <trkpt lat="44.99866" lon="2.89241">
        <ele>1179.883431</ele>
        <time>2020-08-03T17:54:16.700Z</time>
      </trkpt>
      <trkpt lat="44.99863" lon="2.89228">
        <ele>1179.335062</ele>
        <time>2020-08-03T17:54:25.699Z</time>
      </trkpt>
      <trkpt lat="44.99862" lon="2.89214">
        <ele>1178.765562</ele>
        <time>2020-08-03T17:54:38.716Z</time>
      </trkpt>
      <trkpt lat="44.9986" lon="2.89201">
        <ele>1178.250637</ele>
        <time>2020-08-03T17:54:50.713Z</time>
      </trkpt>
      <trkpt lat="44.99859" lon="2.89187">
        <ele>1177.65697</ele>
        <time>2020-08-03T17:54:57.714Z</time>
      </trkpt>
      <trkpt lat="44.99859" lon="2.89172">
        <ele>1177.073715</ele>
        <time>2020-08-03T17:55:05.707Z</time>
      </trkpt>
      <trkpt lat="44.99858" lon="2.89159">
        <ele>1176.52183</ele>
        <time>2020-08-03T17:55:13.703Z</time>
      </trkpt>
      <trkpt lat="44.99856" lon="2.89146">
        <ele>1175.859811</ele>
        <time>2020-08-03T17:55:19.700Z</time>
      </trkpt>
      <trkpt lat="44.99855" lon="2.89133">
        <ele>1175.145325</ele>
        <time>2020-08-03T17:55:27.705Z</time>
      </trkpt>
      <trkpt lat="44.99854" lon="2.8912">
        <ele>1174.421051</ele>
        <time>2020-08-03T17:55:35.710Z</time>
      </trkpt>
      <trkpt lat="44.99852" lon="2.89108">
        <ele>1173.694938</ele>
        <time>2020-08-03T17:55:43.699Z</time>
      </trkpt>
      <trkpt lat="44.9985" lon="2.89094">
        <ele>1172.948986</ele>
        <time>2020-08-03T17:55:54.707Z</time>
      </trkpt>
      <trkpt lat="44.99847" lon="2.89082">
        <ele>1172.222746</ele>
        <time>2020-08-03T17:56:00.709Z</time>
      </trkpt>
      <trkpt lat="44.99842" lon="2.89071">
        <ele>1171.484923</ele>
        <time>2020-08-03T17:56:09.707Z</time>
      </trkpt>
      <trkpt lat="44.99836" lon="2.89061">
        <ele>1170.757634</ele>
        <time>2020-08-03T17:56:18.705Z</time>
      </trkpt>
      <trkpt lat="44.99831" lon="2.89048">
        <ele>1169.944018</ele>
        <time>2020-08-03T17:56:28.701Z</time>
      </trkpt>
      <trkpt lat="44.99826" lon="2.89036">
        <ele>1169.143058</ele>
        <time>2020-08-03T17:56:35.704Z</time>
      </trkpt>
      <trkpt lat="44.99821" lon="2.89024">
        <ele>1168.40057</ele>
        <time>2020-08-03T17:56:42.701Z</time>
      </trkpt>
      <trkpt lat="44.99816" lon="2.89012">
        <ele>1167.656801</ele>
        <time>2020-08-03T17:56:50.704Z</time>
      </trkpt>
      <trkpt lat="44.99814" lon="2.89">
        <ele>1166.943233</ele>
        <time>2020-08-03T17:56:59.701Z</time>
      </trkpt>
      <trkpt lat="44.9981" lon="2.88987">
        <ele>1166.173319</ele>
        <time>2020-08-03T17:57:07.720Z</time>
      </trkpt>
      <trkpt lat="44.99806" lon="2.88976">
        <ele>1165.465235</ele>
        <time>2020-08-03T17:57:14.704Z</time>
      </trkpt>
      <trkpt lat="44.99804" lon="2.88963">
        <ele>1164.717634</ele>
        <time>2020-08-03T17:57:24.705Z</time>
      </trkpt>
      <trkpt lat="44.99803" lon="2.88949">
        <ele>1163.950948</ele>
        <time>2020-08-03T17:57:33.713Z</time>
      </trkpt>
      <trkpt lat="44.99803" lon="2.88935">
        <ele>1163.164413</ele>
        <time>2020-08-03T17:57:42.706Z</time>
      </trkpt>
      <trkpt lat="44.998" lon="2.88922">
        <ele>1162.443658</ele>
        <time>2020-08-03T17:57:49.712Z</time>
      </trkpt>
      <trkpt lat="44.998" lon="2.88909">
        <ele>1162.219754</ele>
        <time>2020-08-03T17:57:57.708Z</time>
      </trkpt>
      <trkpt lat="44.99803" lon="2.88896">
        <ele>1162.105892</ele>
        <time>2020-08-03T17:58:08.709Z</time>
      </trkpt>
      <trkpt lat="44.99807" lon="2.88884">
        <ele>1161.99656</ele>
        <time>2020-08-03T17:58:21.708Z</time>
      </trkpt>
      <trkpt lat="44.99809" lon="2.8887">
        <ele>1161.878847</ele>
        <time>2020-08-03T17:58:29.706Z</time>
      </trkpt>
      <trkpt lat="44.99811" lon="2.88857">
        <ele>1161.772998</ele>
        <time>2020-08-03T17:58:36.701Z</time>
      </trkpt>
      <trkpt lat="44.99814" lon="2.88844">
        <ele>1161.659051</ele>
        <time>2020-08-03T17:58:45.705Z</time>
      </trkpt>
      <trkpt lat="44.99814" lon="2.88831">
        <ele>1161.554865</ele>
        <time>2020-08-03T17:58:52.697Z</time>
      </trkpt>
      <trkpt lat="44.99815" lon="2.88818">
        <ele>1161.446883</ele>
        <time>2020-08-03T17:59:02.703Z</time>
      </trkpt>
      <trkpt lat="44.99813" lon="2.88805">
        <ele>1161.341488</ele>
        <time>2020-08-03T17:59:10.704Z</time>
      </trkpt>
      <trkpt lat="44.99818" lon="2.88793">
        <ele>1161.230421</ele>
        <time>2020-08-03T17:59:25.707Z</time>
      </trkpt>
      <trkpt lat="44.99823" lon="2.88782">
        <ele>1161.120065</ele>
        <time>2020-08-03T17:59:41.708Z</time>
      </trkpt>
      <trkpt lat="44.99827" lon="2.8877">
        <ele>1161.0112</ele>
        <time>2020-08-03T17:59:52.706Z</time>
      </trkpt>
      <trkpt lat="44.99831" lon="2.88758">
        <ele>1160.905068</ele>
        <time>2020-08-03T18:00:03.702Z</time>
      </trkpt>
      <trkpt lat="44.99837" lon="2.88747">
        <ele>1160.790112</ele>
        <time>2020-08-03T18:00:15.700Z</time>
      </trkpt>
      <trkpt lat="44.99842" lon="2.88736">
        <ele>1160.680503</ele>
        <time>2020-08-03T18:00:26.699Z</time>
      </trkpt>
      <trkpt lat="44.99847" lon="2.88724">
        <ele>1160.565658</ele>
        <time>2020-08-03T18:00:37.705Z</time>
      </trkpt>
      <trkpt lat="44.99851" lon="2.88712">
        <ele>1160.456464</ele>
        <time>2020-08-03T18:00:47.699Z</time>
      </trkpt>
      <trkpt lat="44.99857" lon="2.88701">
        <ele>1160.349406</ele>
        <time>2020-08-03T18:00:58.702Z</time>
      </trkpt>
      <trkpt lat="44.99863" lon="2.8869">
        <ele>1160.238464</ele>
        <time>2020-08-03T18:01:08.722Z</time>
      </trkpt>
      <trkpt lat="44.99869" lon="2.8868">
        <ele>1160.244246</ele>
        <time>2020-08-03T18:01:18.699Z</time>
      </trkpt>
      <trkpt lat="44.99873" lon="2.88668">
        <ele>1160.263485</ele>
        <time>2020-08-03T18:01:28.708Z</time>
      </trkpt>
      <trkpt lat="44.99878" lon="2.88656">
        <ele>1160.28277</ele>
        <time>2020-08-03T18:01:39.704Z</time>
      </trkpt>
      <trkpt lat="44.99883" lon="2.88645">
        <ele>1160.300899</ele>
        <time>2020-08-03T18:01:47.707Z</time>
      </trkpt>
      <trkpt lat="44.99889" lon="2.88635">
        <ele>1160.319556</ele>
        <time>2020-08-03T18:01:57.707Z</time>
      </trkpt>
      <trkpt lat="44.99895" lon="2.88625">
        <ele>1160.337602</ele>
        <time>2020-08-03T18:02:05.709Z</time>
      </trkpt>
      <trkpt lat="44.99904" lon="2.88619">
        <ele>1160.356253</ele>
        <time>2020-08-03T18:02:15.703Z</time>
      </trkpt>
      <trkpt lat="44.99912" lon="2.88614">
        <ele>1160.37424</ele>
        <time>2020-08-03T18:02:24.720Z</time>
      </trkpt>
      <trkpt lat="44.99921" lon="2.88612">
        <ele>1160.392039</ele>
        <time>2020-08-03T18:02:35.699Z</time>
      </trkpt>
      <trkpt lat="44.9993" lon="2.88606">
        <ele>1160.410674</ele>
        <time>2020-08-03T18:02:46.702Z</time>
      </trkpt>
      <trkpt lat="44.99938" lon="2.88601">
        <ele>1160.428576</ele>
        <time>2020-08-03T18:02:56.704Z</time>
      </trkpt>
      <trkpt lat="44.99947" lon="2.88599">
        <ele>1160.446662</ele>
        <time>2020-08-03T18:03:06.713Z</time>
      </trkpt>
      <trkpt lat="44.99957" lon="2.88592">
        <ele>1160.4676</ele>
        <time>2020-08-03T18:03:18.728Z</time>
      </trkpt>
      <trkpt lat="44.99965" lon="2.88584">
        <ele>1160.487148</ele>
        <time>2020-08-03T18:03:32.017Z</time>
      </trkpt>
      <trkpt lat="44.99969" lon="2.88561">
        <ele>1160.519954</ele>
        <time>2020-08-03T18:04:52.698Z</time>
      </trkpt>
      <trkpt lat="44.99973" lon="2.88549">
        <ele>1160.538366</ele>
        <time>2020-08-03T18:05:02.707Z</time>
      </trkpt>
      <trkpt lat="44.99977" lon="2.88538">
        <ele>1160.556451</ele>
        <time>2020-08-03T18:05:09.712Z</time>
      </trkpt>
      <trkpt lat="44.99985" lon="2.88528">
        <ele>1160.575911</ele>
        <time>2020-08-03T18:05:19.716Z</time>
      </trkpt>
      <trkpt lat="44.99992" lon="2.88522">
        <ele>1160.043321</ele>
        <time>2020-08-03T18:05:27.706Z</time>
      </trkpt>
      <trkpt lat="44.99999" lon="2.88511">
        <ele>1159.216568</ele>
        <time>2020-08-03T18:05:35.695Z</time>
      </trkpt>
      <trkpt lat="45.00007" lon="2.88503">
        <ele>1158.419156</ele>
        <time>2020-08-03T18:05:43.711Z</time>
      </trkpt>
      <trkpt lat="45.00013" lon="2.88493">
        <ele>1157.638572</ele>
        <time>2020-08-03T18:05:51.713Z</time>
      </trkpt>
      <trkpt lat="45.00019" lon="2.88482">
        <ele>1156.882772</ele>
        <time>2020-08-03T18:05:58.703Z</time>
      </trkpt>
      <trkpt lat="45.00019" lon="2.88469">
        <ele>1156.134593</ele>
        <time>2020-08-03T18:06:05.703Z</time>
      </trkpt>
      <trkpt lat="45.0001" lon="2.88465">
        <ele>1155.325933</ele>
        <time>2020-08-03T18:06:16.709Z</time>
      </trkpt>
      <trkpt lat="45.00001" lon="2.88463">
        <ele>1154.565623</ele>
        <time>2020-08-03T18:06:26.706Z</time>
      </trkpt>
      <trkpt lat="44.99991" lon="2.88463">
        <ele>1153.785334</ele>
        <time>2020-08-03T18:06:35.712Z</time>
      </trkpt>
      <trkpt lat="44.99981" lon="2.8846">
        <ele>1152.963669</ele>
        <time>2020-08-03T18:06:45.699Z</time>
      </trkpt>
      <trkpt lat="44.99971" lon="2.88457">
        <ele>1152.156706</ele>
        <time>2020-08-03T18:06:53.701Z</time>
      </trkpt>
      <trkpt lat="44.99962" lon="2.88456">
        <ele>1151.406343</ele>
        <time>2020-08-03T18:07:01.699Z</time>
      </trkpt>
      <trkpt lat="44.99953" lon="2.8846">
        <ele>1150.58794</ele>
        <time>2020-08-03T18:07:10.747Z</time>
      </trkpt>
      <trkpt lat="44.99944" lon="2.88465">
        <ele>1149.840685</ele>
        <time>2020-08-03T18:07:18.697Z</time>
      </trkpt>
      <trkpt lat="44.99936" lon="2.88471">
        <ele>1149.078442</ele>
        <time>2020-08-03T18:07:26.732Z</time>
      </trkpt>
      <trkpt lat="44.99927" lon="2.88479">
        <ele>1148.268535</ele>
        <time>2020-08-03T18:07:35.753Z</time>
      </trkpt>
      <trkpt lat="44.99919" lon="2.88485">
        <ele>1147.491701</ele>
        <time>2020-08-03T18:07:44.735Z</time>
      </trkpt>
      <trkpt lat="44.99911" lon="2.88493">
        <ele>1146.691866</ele>
        <time>2020-08-03T18:07:53.749Z</time>
      </trkpt>
      <trkpt lat="44.99905" lon="2.88503">
        <ele>1145.969776</ele>
        <time>2020-08-03T18:08:01.743Z</time>
      </trkpt>
      <trkpt lat="44.99898" lon="2.88514">
        <ele>1146.112046</ele>
        <time>2020-08-03T18:08:09.692Z</time>
      </trkpt>
      <trkpt lat="44.99891" lon="2.88524">
        <ele>1146.244081</ele>
        <time>2020-08-03T18:08:22.727Z</time>
      </trkpt>
      <trkpt lat="44.99884" lon="2.88534">
        <ele>1146.383757</ele>
        <time>2020-08-03T18:08:35.730Z</time>
      </trkpt>
      <trkpt lat="44.99877" lon="2.88544">
        <ele>1146.521472</ele>
        <time>2020-08-03T18:08:44.722Z</time>
      </trkpt>
      <trkpt lat="44.99872" lon="2.88555">
        <ele>1146.64868</ele>
        <time>2020-08-03T18:08:51.756Z</time>
      </trkpt>
      <trkpt lat="44.99867" lon="2.88567">
        <ele>1146.78263</ele>
        <time>2020-08-03T18:08:59.693Z</time>
      </trkpt>
      <trkpt lat="44.99861" lon="2.88577">
        <ele>1146.9077</ele>
        <time>2020-08-03T18:09:11.728Z</time>
      </trkpt>
      <trkpt lat="44.99855" lon="2.88588">
        <ele>1147.047628</ele>
        <time>2020-08-03T18:09:20.738Z</time>
      </trkpt>
      <trkpt lat="44.9985" lon="2.88599">
        <ele>1147.170861</ele>
        <time>2020-08-03T18:09:29.693Z</time>
      </trkpt>
      <trkpt lat="44.99844" lon="2.88609">
        <ele>1147.299758</ele>
        <time>2020-08-03T18:09:41.711Z</time>
      </trkpt>
      <trkpt lat="44.99836" lon="2.88618">
        <ele>1147.43976</ele>
        <time>2020-08-03T18:09:50.698Z</time>
      </trkpt>
      <trkpt lat="44.99831" lon="2.8863">
        <ele>1147.575898</ele>
        <time>2020-08-03T18:10:12.705Z</time>
      </trkpt>
      <trkpt lat="44.99827" lon="2.88642">
        <ele>1147.71118</ele>
        <time>2020-08-03T18:10:23.704Z</time>
      </trkpt>
      <trkpt lat="44.99823" lon="2.88655">
        <ele>1147.844564</ele>
        <time>2020-08-03T18:10:31.704Z</time>
      </trkpt>
      <trkpt lat="44.99818" lon="2.88666">
        <ele>1147.974745</ele>
        <time>2020-08-03T18:10:39.702Z</time>
      </trkpt>
      <trkpt lat="44.99814" lon="2.88679">
        <ele>1148.109226</ele>
        <time>2020-08-03T18:10:51.718Z</time>
      </trkpt>
      <trkpt lat="44.99808" lon="2.8869">
        <ele>1148.242837</ele>
        <time>2020-08-03T18:11:01.705Z</time>
      </trkpt>
      <trkpt lat="44.99809" lon="2.88703">
        <ele>1148.369491</ele>
        <time>2020-08-03T18:11:11.697Z</time>
      </trkpt>
      <trkpt lat="44.99807" lon="2.88717">
        <ele>1148.570536</ele>
        <time>2020-08-03T18:11:21.706Z</time>
      </trkpt>
      <trkpt lat="44.99807" lon="2.8873">
        <ele>1148.835853</ele>
        <time>2020-08-03T18:11:32.703Z</time>
      </trkpt>
      <trkpt lat="44.99806" lon="2.88743">
        <ele>1149.088245</ele>
        <time>2020-08-03T18:11:43.707Z</time>
      </trkpt>
      <trkpt lat="44.99806" lon="2.88757">
        <ele>1149.353176</ele>
        <time>2020-08-03T18:11:53.702Z</time>
      </trkpt>
      <trkpt lat="44.99804" lon="2.8877">
        <ele>1149.623013</ele>
        <time>2020-08-03T18:12:03.700Z</time>
      </trkpt>
      <trkpt lat="44.998" lon="2.88782">
        <ele>1149.873239</ele>
        <time>2020-08-03T18:12:13.705Z</time>
      </trkpt>
      <trkpt lat="44.99796" lon="2.88794">
        <ele>1150.139895</ele>
        <time>2020-08-03T18:12:31.692Z</time>
      </trkpt>
      <trkpt lat="44.99791" lon="2.88806">
        <ele>1150.404659</ele>
        <time>2020-08-03T18:12:44.697Z</time>
      </trkpt>
      <trkpt lat="44.99789" lon="2.88818">
        <ele>1150.652505</ele>
        <time>2020-08-03T18:13:02.702Z</time>
      </trkpt>
      <trkpt lat="44.99786" lon="2.88832">
        <ele>1150.929086</ele>
        <time>2020-08-03T18:13:31.701Z</time>
      </trkpt>
      <trkpt lat="44.99781" lon="2.88844">
        <ele>1151.191087</ele>
        <time>2020-08-03T18:13:38.693Z</time>
      </trkpt>
      <trkpt lat="44.99777" lon="2.88856">
        <ele>1151.468918</ele>
        <time>2020-08-03T18:13:45.702Z</time>
      </trkpt>
      <trkpt lat="44.99773" lon="2.88868">
        <ele>1151.719146</ele>
        <time>2020-08-03T18:13:53.705Z</time>
      </trkpt>
      <trkpt lat="44.99769" lon="2.8888">
        <ele>1151.970997</ele>
        <time>2020-08-03T18:14:09.705Z</time>
      </trkpt>
      <trkpt lat="44.99764" lon="2.8889">
        <ele>1152.228738</ele>
        <time>2020-08-03T18:14:20.697Z</time>
      </trkpt>
      <trkpt lat="44.99764" lon="2.88904">
        <ele>1152.485813</ele>
        <time>2020-08-03T18:14:35.705Z</time>
      </trkpt>
      <trkpt lat="44.99761" lon="2.88916">
        <ele>1152.742835</ele>
        <time>2020-08-03T18:14:44.708Z</time>
      </trkpt>
      <trkpt lat="44.99759" lon="2.8893">
        <ele>1153.01448</ele>
        <time>2020-08-03T18:14:52.705Z</time>
      </trkpt>
      <trkpt lat="44.99753" lon="2.88939">
        <ele>1153.262491</ele>
        <time>2020-08-03T18:15:02.707Z</time>
      </trkpt>
      <trkpt lat="44.99751" lon="2.88952">
        <ele>1153.221056</ele>
        <time>2020-08-03T18:15:21.699Z</time>
      </trkpt>
      <trkpt lat="44.99746" lon="2.88964">
        <ele>1152.880605</ele>
        <time>2020-08-03T18:15:28.702Z</time>
      </trkpt>
      <trkpt lat="44.9974" lon="2.88976">
        <ele>1152.521931</ele>
        <time>2020-08-03T18:15:37.701Z</time>
      </trkpt>
      <trkpt lat="44.99739" lon="2.8899">
        <ele>1152.161426</ele>
        <time>2020-08-03T18:15:46.697Z</time>
      </trkpt>
      <trkpt lat="44.99737" lon="2.89003">
        <ele>1151.827726</ele>
        <time>2020-08-03T18:15:58.706Z</time>
      </trkpt>
      <trkpt lat="44.99736" lon="2.89016">
        <ele>1151.478851</ele>
        <time>2020-08-03T18:16:07.709Z</time>
      </trkpt>
      <trkpt lat="44.99736" lon="2.8903">
        <ele>1151.138773</ele>
        <time>2020-08-03T18:16:16.705Z</time>
      </trkpt>
      <trkpt lat="44.99734" lon="2.89042">
        <ele>1150.806931</ele>
        <time>2020-08-03T18:16:28.703Z</time>
      </trkpt>
      <trkpt lat="44.99733" lon="2.89055">
        <ele>1150.48587</ele>
        <time>2020-08-03T18:16:39.705Z</time>
      </trkpt>
      <trkpt lat="44.99732" lon="2.89068">
        <ele>1150.146788</ele>
        <time>2020-08-03T18:16:49.705Z</time>
      </trkpt>
      <trkpt lat="44.9973" lon="2.89082">
        <ele>1149.792619</ele>
        <time>2020-08-03T18:16:59.706Z</time>
      </trkpt>
      <trkpt lat="44.99733" lon="2.89095">
        <ele>1149.450155</ele>
        <time>2020-08-03T18:17:07.700Z</time>
      </trkpt>
      <trkpt lat="44.99731" lon="2.89108">
        <ele>1149.110031</ele>
        <time>2020-08-03T18:17:22.699Z</time>
      </trkpt>
      <trkpt lat="44.99727" lon="2.89121">
        <ele>1148.747496</ele>
        <time>2020-08-03T18:17:33.706Z</time>
      </trkpt>
      <trkpt lat="44.99725" lon="2.89134">
        <ele>1148.417287</ele>
        <time>2020-08-03T18:17:44.705Z</time>
      </trkpt>
      <trkpt lat="44.99724" lon="2.89147">
        <ele>1148.07701</ele>
        <time>2020-08-03T18:18:02.750Z</time>
      </trkpt>
      <trkpt lat="44.99722" lon="2.89161">
        <ele>1147.723723</ele>
        <time>2020-08-03T18:18:13.738Z</time>
      </trkpt>
      <trkpt lat="44.99719" lon="2.89173">
        <ele>1147.393047</ele>
        <time>2020-08-03T18:18:22.701Z</time>
      </trkpt>
      <trkpt lat="44.99717" lon="2.89186">
        <ele>1147.067237</ele>
        <time>2020-08-03T18:18:37.761Z</time>
      </trkpt>
      <trkpt lat="44.9971" lon="2.89196">
        <ele>1146.971498</ele>
        <time>2020-08-03T18:18:47.797Z</time>
      </trkpt>
      <trkpt lat="44.99706" lon="2.89207">
        <ele>1147.023325</ele>
        <time>2020-08-03T18:18:59.700Z</time>
      </trkpt>
      <trkpt lat="44.99698" lon="2.8922">
        <ele>1147.094693</ele>
        <time>2020-08-03T18:19:58.708Z</time>
      </trkpt>
      <trkpt lat="44.99691" lon="2.8923">
        <ele>1147.147545</ele>
        <time>2020-08-03T18:20:07.691Z</time>
      </trkpt>
      <trkpt lat="44.99685" lon="2.89239">
        <ele>1147.201384</ele>
        <time>2020-08-03T18:20:18.701Z</time>
      </trkpt>
      <trkpt lat="44.99677" lon="2.89246">
        <ele>1147.253823</ele>
        <time>2020-08-03T18:20:26.704Z</time>
      </trkpt>
      <trkpt lat="44.9967" lon="2.89255">
        <ele>1147.308368</ele>
        <time>2020-08-03T18:20:35.700Z</time>
      </trkpt>
      <trkpt lat="44.99664" lon="2.89265">
        <ele>1147.363603</ele>
        <time>2020-08-03T18:20:46.698Z</time>
      </trkpt>
      <trkpt lat="44.99657" lon="2.89275">
        <ele>1147.420507</ele>
        <time>2020-08-03T18:21:02.926Z</time>
      </trkpt>
      <trkpt lat="44.99652" lon="2.89287">
        <ele>1147.47519</ele>
        <time>2020-08-03T18:21:23.704Z</time>
      </trkpt>
      <trkpt lat="44.99645" lon="2.89297">
        <ele>1147.530811</ele>
        <time>2020-08-03T18:21:35.706Z</time>
      </trkpt>
      <trkpt lat="44.9964" lon="2.89307">
        <ele>1147.583354</ele>
        <time>2020-08-03T18:21:46.695Z</time>
      </trkpt>
      <trkpt lat="44.99633" lon="2.89315">
        <ele>1147.636297</ele>
        <time>2020-08-03T18:21:57.697Z</time>
      </trkpt>
      <trkpt lat="44.99625" lon="2.89321">
        <ele>1147.68944</ele>
        <time>2020-08-03T18:22:14.699Z</time>
      </trkpt>
      <trkpt lat="44.99618" lon="2.89329">
        <ele>1147.741444</ele>
        <time>2020-08-03T18:22:28.696Z</time>
      </trkpt>
      <trkpt lat="44.9961" lon="2.89338">
        <ele>1147.796353</ele>
        <time>2020-08-03T18:22:40.690Z</time>
      </trkpt>
      <trkpt lat="44.99603" lon="2.89346">
        <ele>1147.852554</ele>
        <time>2020-08-03T18:22:54.702Z</time>
      </trkpt>
      <trkpt lat="44.99596" lon="2.89355">
        <ele>1147.90593</ele>
        <time>2020-08-03T18:23:03.714Z</time>
      </trkpt>
      <trkpt lat="44.99589" lon="2.89364">
        <ele>1147.959573</ele>
        <time>2020-08-03T18:23:11.700Z</time>
      </trkpt>
      <trkpt lat="44.99584" lon="2.89374">
        <ele>1147.43543</ele>
        <time>2020-08-03T18:23:18.695Z</time>
      </trkpt>
      <trkpt lat="44.99577" lon="2.89383">
        <ele>1146.683385</ele>
        <time>2020-08-03T18:23:28.698Z</time>
      </trkpt>
      <trkpt lat="44.9957" lon="2.89392">
        <ele>1145.95682</ele>
        <time>2020-08-03T18:23:38.731Z</time>
      </trkpt>
      <trkpt lat="44.99564" lon="2.89401">
        <ele>1145.202511</ele>
        <time>2020-08-03T18:23:48.707Z</time>
      </trkpt>
      <trkpt lat="44.99558" lon="2.89411">
        <ele>1144.471111</ele>
        <time>2020-08-03T18:23:57.698Z</time>
      </trkpt>
      <trkpt lat="44.99552" lon="2.89422">
        <ele>1143.703899</ele>
        <time>2020-08-03T18:24:10.709Z</time>
      </trkpt>
      <trkpt lat="44.99549" lon="2.89434">
        <ele>1142.978315</ele>
        <time>2020-08-03T18:24:18.708Z</time>
      </trkpt>
      <trkpt lat="44.99543" lon="2.89444">
        <ele>1142.246914</ele>
        <time>2020-08-03T18:24:28.700Z</time>
      </trkpt>
      <trkpt lat="44.99537" lon="2.89454">
        <ele>1141.514827</ele>
        <time>2020-08-03T18:24:42.768Z</time>
      </trkpt>
      <trkpt lat="44.99532" lon="2.89465">
        <ele>1140.72874</ele>
        <time>2020-08-03T18:24:51.720Z</time>
      </trkpt>
      <trkpt lat="44.99526" lon="2.89476">
        <ele>1139.928612</ele>
        <time>2020-08-03T18:25:01.703Z</time>
      </trkpt>
      <trkpt lat="44.9952" lon="2.89487">
        <ele>1139.192767</ele>
        <time>2020-08-03T18:25:11.683Z</time>
      </trkpt>
      <trkpt lat="44.99514" lon="2.89498">
        <ele>1138.366054</ele>
        <time>2020-08-03T18:25:19.703Z</time>
      </trkpt>
      <trkpt lat="44.99506" lon="2.89507">
        <ele>1137.554313</ele>
        <time>2020-08-03T18:25:28.704Z</time>
      </trkpt>
      <trkpt lat="44.99497" lon="2.89509">
        <ele>1136.796814</ele>
        <time>2020-08-03T18:25:37.707Z</time>
      </trkpt>
      <trkpt lat="44.99489" lon="2.89517">
        <ele>1135.990505</ele>
        <time>2020-08-03T18:25:47.699Z</time>
      </trkpt>
      <trkpt lat="44.9948" lon="2.89522">
        <ele>1135.226818</ele>
        <time>2020-08-03T18:25:57.704Z</time>
      </trkpt>
      <trkpt lat="44.99471" lon="2.89533">
        <ele>1134.306939</ele>
        <time>2020-08-03T18:26:05.700Z</time>
      </trkpt>
      <trkpt lat="44.99464" lon="2.89542">
        <ele>1133.558862</ele>
        <time>2020-08-03T18:26:14.704Z</time>
      </trkpt>
      <trkpt lat="44.99456" lon="2.89548">
        <ele>1134.071586</ele>
        <time>2020-08-03T18:26:22.705Z</time>
      </trkpt>
      <trkpt lat="44.99446" lon="2.89551">
        <ele>1134.708165</ele>
        <time>2020-08-03T18:26:30.706Z</time>
      </trkpt>
      <trkpt lat="44.99439" lon="2.89559">
        <ele>1135.306527</ele>
        <time>2020-08-03T18:26:38.819Z</time>
      </trkpt>
      <trkpt lat="44.99434" lon="2.8957">
        <ele>1135.900372</ele>
        <time>2020-08-03T18:26:46.691Z</time>
      </trkpt>
      <trkpt lat="44.99428" lon="2.89582">
        <ele>1136.602748</ele>
        <time>2020-08-03T18:26:55.699Z</time>
      </trkpt>
      <trkpt lat="44.99423" lon="2.89593">
        <ele>1137.195581</ele>
        <time>2020-08-03T18:27:05.700Z</time>
      </trkpt>
      <trkpt lat="44.99417" lon="2.89604">
        <ele>1137.811071</ele>
        <time>2020-08-03T18:27:15.702Z</time>
      </trkpt>
      <trkpt lat="44.99411" lon="2.89614">
        <ele>1138.462119</ele>
        <time>2020-08-03T18:27:25.782Z</time>
      </trkpt>
      <trkpt lat="44.99405" lon="2.89625">
        <ele>1139.098297</ele>
        <time>2020-08-03T18:27:33.724Z</time>
      </trkpt>
      <trkpt lat="44.994" lon="2.89636">
        <ele>1139.706941</ele>
        <time>2020-08-03T18:27:42.733Z</time>
      </trkpt>
      <trkpt lat="44.99396" lon="2.89649">
        <ele>1140.352286</ele>
        <time>2020-08-03T18:27:52.701Z</time>
      </trkpt>
      <trkpt lat="44.99393" lon="2.89661">
        <ele>1140.967266</ele>
        <time>2020-08-03T18:28:02.710Z</time>
      </trkpt>
      <trkpt lat="44.99389" lon="2.89674">
        <ele>1141.593379</ele>
        <time>2020-08-03T18:28:10.704Z</time>
      </trkpt>
      <trkpt lat="44.99387" lon="2.89687">
        <ele>1142.212753</ele>
        <time>2020-08-03T18:28:20.704Z</time>
      </trkpt>
      <trkpt lat="44.99385" lon="2.89699">
        <ele>1142.808486</ele>
        <time>2020-08-03T18:28:28.712Z</time>
      </trkpt>
      <trkpt lat="44.99384" lon="2.89713">
        <ele>1143.429897</ele>
        <time>2020-08-03T18:28:38.700Z</time>
      </trkpt>
      <trkpt lat="44.99384" lon="2.89726">
        <ele>1144.02739</ele>
        <time>2020-08-03T18:28:46.697Z</time>
      </trkpt>
      <trkpt lat="44.99381" lon="2.89739">
        <ele>1144.670015</ele>
        <time>2020-08-03T18:28:54.708Z</time>
      </trkpt>
      <trkpt lat="44.9938" lon="2.89752">
        <ele>1145.253664</ele>
        <time>2020-08-03T18:29:01.703Z</time>
      </trkpt>
      <trkpt lat="44.99378" lon="2.89765">
        <ele>1145.449533</ele>
        <time>2020-08-03T18:29:10.703Z</time>
      </trkpt>
      <trkpt lat="44.99377" lon="2.89778">
        <ele>1145.636377</ele>
        <time>2020-08-03T18:29:18.709Z</time>
      </trkpt>
      <trkpt lat="44.99375" lon="2.89792">
        <ele>1145.840363</ele>
        <time>2020-08-03T18:29:26.705Z</time>
      </trkpt>
      <trkpt lat="44.99371" lon="2.89878">
        <ele>1147.071902</ele>
        <time>2020-08-03T18:30:50.782Z</time>
      </trkpt>
      <trkpt lat="44.99368" lon="2.8989">
        <ele>1147.260769</ele>
        <time>2020-08-03T18:30:58.719Z</time>
      </trkpt>
      <trkpt lat="44.99367" lon="2.89903">
        <ele>1147.44619</ele>
        <time>2020-08-03T18:31:05.704Z</time>
      </trkpt>
      <trkpt lat="44.99367" lon="2.89916">
        <ele>1147.634486</ele>
        <time>2020-08-03T18:31:12.699Z</time>
      </trkpt>
      <trkpt lat="44.99369" lon="2.89929">
        <ele>1147.821511</ele>
        <time>2020-08-03T18:31:19.708Z</time>
      </trkpt>
      <trkpt lat="44.99371" lon="2.89943">
        <ele>1148.024815</ele>
        <time>2020-08-03T18:31:27.695Z</time>
      </trkpt>
      <trkpt lat="44.99372" lon="2.89957">
        <ele>1148.230433</ele>
        <time>2020-08-03T18:31:35.702Z</time>
      </trkpt>
      <trkpt lat="44.99374" lon="2.89971">
        <ele>1148.436186</ele>
        <time>2020-08-03T18:31:43.700Z</time>
      </trkpt>
      <trkpt lat="44.99377" lon="2.89984">
        <ele>1148.631036</ele>
        <time>2020-08-03T18:31:52.702Z</time>
      </trkpt>
      <trkpt lat="44.99378" lon="2.89997">
        <ele>1148.819872</ele>
        <time>2020-08-03T18:32:00.704Z</time>
      </trkpt>
      <trkpt lat="44.99381" lon="2.9001">
        <ele>1148.374029</ele>
        <time>2020-08-03T18:32:09.703Z</time>
      </trkpt>
      <trkpt lat="44.99382" lon="2.90023">
        <ele>1147.388436</ele>
        <time>2020-08-03T18:32:16.720Z</time>
      </trkpt>
      <trkpt lat="44.99382" lon="2.90036">
        <ele>1146.42286</ele>
        <time>2020-08-03T18:32:22.700Z</time>
      </trkpt>
      <trkpt lat="44.99378" lon="2.90049">
        <ele>1145.435627</ele>
        <time>2020-08-03T18:32:29.699Z</time>
      </trkpt>
      <trkpt lat="44.99376" lon="2.90061">
        <ele>1144.464312</ele>
        <time>2020-08-03T18:32:38.713Z</time>
      </trkpt>
      <trkpt lat="44.99373" lon="2.90074">
        <ele>1143.487286</ele>
        <time>2020-08-03T18:32:46.692Z</time>
      </trkpt>
      <trkpt lat="44.99374" lon="2.90087">
        <ele>1142.532799</ele>
        <time>2020-08-03T18:32:55.701Z</time>
      </trkpt>
      <trkpt lat="44.99374" lon="2.901">
        <ele>1141.596306</ele>
        <time>2020-08-03T18:33:02.695Z</time>
      </trkpt>
      <trkpt lat="44.99374" lon="2.90113">
        <ele>1140.6294</ele>
        <time>2020-08-03T18:33:11.698Z</time>
      </trkpt>
      <trkpt lat="44.99375" lon="2.90127">
        <ele>1139.631988</ele>
        <time>2020-08-03T18:33:19.699Z</time>
      </trkpt>
      <trkpt lat="44.99375" lon="2.9014">
        <ele>1138.672888</ele>
        <time>2020-08-03T18:33:27.705Z</time>
      </trkpt>
      <trkpt lat="44.99376" lon="2.90153">
        <ele>1137.690066</ele>
        <time>2020-08-03T18:33:37.689Z</time>
      </trkpt>
      <trkpt lat="44.99377" lon="2.90167">
        <ele>1136.674265</ele>
        <time>2020-08-03T18:33:52.704Z</time>
      </trkpt>
      <trkpt lat="44.99377" lon="2.9018">
        <ele>1135.722867</ele>
        <time>2020-08-03T18:34:00.701Z</time>
      </trkpt>
      <trkpt lat="44.99378" lon="2.90194">
        <ele>1134.712981</ele>
        <time>2020-08-03T18:34:10.691Z</time>
      </trkpt>
      <trkpt lat="44.99378" lon="2.90207">
        <ele>1133.725028</ele>
        <time>2020-08-03T18:34:19.696Z</time>
      </trkpt>
      <trkpt lat="44.9938" lon="2.9022">
        <ele>1132.771024</ele>
        <time>2020-08-03T18:34:28.702Z</time>
      </trkpt>
      <trkpt lat="44.99379" lon="2.90234">
        <ele>1131.755223</ele>
        <time>2020-08-03T18:34:36.703Z</time>
      </trkpt>
      <trkpt lat="44.99379" lon="2.90248">
        <ele>1130.716505</ele>
        <time>2020-08-03T18:34:44.698Z</time>
      </trkpt>
      <trkpt lat="44.99379" lon="2.90261">
        <ele>1130.060618</ele>
        <time>2020-08-03T18:34:51.695Z</time>
      </trkpt>
      <trkpt lat="44.99376" lon="2.90274">
        <ele>1129.623432</ele>
        <time>2020-08-03T18:35:01.701Z</time>
      </trkpt>
      <trkpt lat="44.9937" lon="2.90286">
        <ele>1129.142822</ele>
        <time>2020-08-03T18:35:08.707Z</time>
      </trkpt>
      <trkpt lat="44.99365" lon="2.90298">
        <ele>1128.7178</ele>
        <time>2020-08-03T18:35:16.702Z</time>
      </trkpt>
      <trkpt lat="44.99356" lon="2.90302">
        <ele>1128.275304</ele>
        <time>2020-08-03T18:35:24.707Z</time>
      </trkpt>
      <trkpt lat="44.99346" lon="2.90304">
        <ele>1127.836682</ele>
        <time>2020-08-03T18:35:32.692Z</time>
      </trkpt>
      <trkpt lat="44.99337" lon="2.90306">
        <ele>1127.392554</ele>
        <time>2020-08-03T18:35:40.705Z</time>
      </trkpt>
      <trkpt lat="44.99328" lon="2.90307">
        <ele>1126.975966</ele>
        <time>2020-08-03T18:35:48.699Z</time>
      </trkpt>
      <trkpt lat="44.99318" lon="2.90311">
        <ele>1126.533469</ele>
        <time>2020-08-03T18:35:56.697Z</time>
      </trkpt>
      <trkpt lat="44.99309" lon="2.90316">
        <ele>1126.097525</ele>
        <time>2020-08-03T18:36:04.701Z</time>
      </trkpt>
      <trkpt lat="44.993" lon="2.90318">
        <ele>1125.676454</ele>
        <time>2020-08-03T18:36:12.690Z</time>
      </trkpt>
      <trkpt lat="44.99291" lon="2.90323">
        <ele>1125.220927</ele>
        <time>2020-08-03T18:36:20.702Z</time>
      </trkpt>
      <trkpt lat="44.99282" lon="2.90325">
        <ele>1124.791336</ele>
        <time>2020-08-03T18:36:29.703Z</time>
      </trkpt>
      <trkpt lat="44.99272" lon="2.90328">
        <ele>1124.322514</ele>
        <time>2020-08-03T18:36:38.694Z</time>
      </trkpt>
      <trkpt lat="44.99263" lon="2.90329">
        <ele>1123.907857</ele>
        <time>2020-08-03T18:36:46.693Z</time>
      </trkpt>
      <trkpt lat="44.99253" lon="2.90332">
        <ele>1123.46265</ele>
        <time>2020-08-03T18:36:54.700Z</time>
      </trkpt>
      <trkpt lat="44.99243" lon="2.90334">
        <ele>1123.01</ele>
        <time>2020-08-03T18:37:02.696Z</time>
      </trkpt>
      <trkpt lat="44.99233" lon="2.90336">
        <ele>1122.555796</ele>
        <time>2020-08-03T18:37:11.698Z</time>
      </trkpt>
      <trkpt lat="44.99224" lon="2.90339">
        <ele>1122.105373</ele>
        <time>2020-08-03T18:37:19.706Z</time>
      </trkpt>
      <trkpt lat="44.99216" lon="2.90349">
        <ele>1121.572771</ele>
        <time>2020-08-03T18:37:27.705Z</time>
      </trkpt>
      <trkpt lat="44.99212" lon="2.90361">
        <ele>1121.066228</ele>
        <time>2020-08-03T18:37:35.706Z</time>
      </trkpt>
      <trkpt lat="44.99209" lon="2.90373">
        <ele>1120.587458</ele>
        <time>2020-08-03T18:37:43.697Z</time>
      </trkpt>
      <trkpt lat="44.99208" lon="2.90386">
        <ele>1120.094345</ele>
        <time>2020-08-03T18:37:53.702Z</time>
      </trkpt>
      <trkpt lat="44.99204" lon="2.904">
        <ele>1119.563553</ele>
        <time>2020-08-03T18:38:02.707Z</time>
      </trkpt>
      <trkpt lat="44.99198" lon="2.9041">
        <ele>1119.091584</ele>
        <time>2020-08-03T18:38:09.702Z</time>
      </trkpt>
      <trkpt lat="44.99194" lon="2.90421">
        <ele>1118.618565</ele>
        <time>2020-08-03T18:38:16.699Z</time>
      </trkpt>
      <trkpt lat="44.99188" lon="2.90432">
        <ele>1118.085928</ele>
        <time>2020-08-03T18:38:25.706Z</time>
      </trkpt>
      <trkpt lat="44.99183" lon="2.90444">
        <ele>1117.598202</ele>
        <time>2020-08-03T18:38:33.709Z</time>
      </trkpt>
      <trkpt lat="44.99177" lon="2.90455">
        <ele>1117.088523</ele>
        <time>2020-08-03T18:38:48.692Z</time>
      </trkpt>
      <trkpt lat="44.99174" lon="2.90468">
        <ele>1116.578499</ele>
        <time>2020-08-03T18:38:58.696Z</time>
      </trkpt>
      <trkpt lat="44.99174" lon="2.90481">
        <ele>1116.074477</ele>
        <time>2020-08-03T18:39:07.692Z</time>
      </trkpt>
      <trkpt lat="44.99175" lon="2.90495">
        <ele>1115.564674</ele>
        <time>2020-08-03T18:39:16.706Z</time>
      </trkpt>
      <trkpt lat="44.99172" lon="2.90508">
        <ele>1115.048905</ele>
        <time>2020-08-03T18:39:22.700Z</time>
      </trkpt>
      <trkpt lat="44.99172" lon="2.90522">
        <ele>1114.54867</ele>
        <time>2020-08-03T18:39:32.701Z</time>
      </trkpt>
      <trkpt lat="44.9917" lon="2.90536">
        <ele>1114.033978</ele>
        <time>2020-08-03T18:39:41.695Z</time>
      </trkpt>
      <trkpt lat="44.99169" lon="2.90549">
        <ele>1113.516796</ele>
        <time>2020-08-03T18:39:51.694Z</time>
      </trkpt>
      <trkpt lat="44.99169" lon="2.90564">
        <ele>1112.993071</ele>
        <time>2020-08-03T18:39:59.697Z</time>
      </trkpt>
      <trkpt lat="44.99166" lon="2.90577">
        <ele>1112.574473</ele>
        <time>2020-08-03T18:40:07.714Z</time>
      </trkpt>
      <trkpt lat="44.99164" lon="2.9059">
        <ele>1112.352247</ele>
        <time>2020-08-03T18:40:16.699Z</time>
      </trkpt>
      <trkpt lat="44.99162" lon="2.90604">
        <ele>1112.10959</ele>
        <time>2020-08-03T18:40:24.705Z</time>
      </trkpt>
      <trkpt lat="44.99159" lon="2.90617">
        <ele>1111.881303</ele>
        <time>2020-08-03T18:40:33.713Z</time>
      </trkpt>
      <trkpt lat="44.99156" lon="2.9063">
        <ele>1111.645814</ele>
        <time>2020-08-03T18:40:42.704Z</time>
      </trkpt>
      <trkpt lat="44.99154" lon="2.90644">
        <ele>1111.40929</ele>
        <time>2020-08-03T18:40:49.702Z</time>
      </trkpt>
      <trkpt lat="44.99148" lon="2.90654">
        <ele>1111.187191</ele>
        <time>2020-08-03T18:40:58.705Z</time>
      </trkpt>
      <trkpt lat="44.99143" lon="2.90665">
        <ele>1110.963808</ele>
        <time>2020-08-03T18:41:05.698Z</time>
      </trkpt>
      <trkpt lat="44.99137" lon="2.90675">
        <ele>1110.726992</ele>
        <time>2020-08-03T18:41:13.700Z</time>
      </trkpt>
      <trkpt lat="44.9913" lon="2.90685">
        <ele>1110.505286</ele>
        <time>2020-08-03T18:41:22.705Z</time>
      </trkpt>
      <trkpt lat="44.99123" lon="2.90695">
        <ele>1110.268752</ele>
        <time>2020-08-03T18:41:29.702Z</time>
      </trkpt>
      <trkpt lat="44.99116" lon="2.90703">
        <ele>1110.031273</ele>
        <time>2020-08-03T18:41:39.711Z</time>
      </trkpt>
      <trkpt lat="44.99108" lon="2.90712">
        <ele>1109.80515</ele>
        <time>2020-08-03T18:41:48.700Z</time>
      </trkpt>
      <trkpt lat="44.99101" lon="2.9072">
        <ele>1109.580537</ele>
        <time>2020-08-03T18:41:56.703Z</time>
      </trkpt>
      <trkpt lat="44.99095" lon="2.9073">
        <ele>1109.353047</ele>
        <time>2020-08-03T18:42:04.696Z</time>
      </trkpt>
      <trkpt lat="44.99088" lon="2.90741">
        <ele>1109.114044</ele>
        <time>2020-08-03T18:42:13.705Z</time>
      </trkpt>
      <trkpt lat="44.99081" lon="2.9075">
        <ele>1108.887874</ele>
        <time>2020-08-03T18:42:21.704Z</time>
      </trkpt>
      <trkpt lat="44.99075" lon="2.90758">
        <ele>1108.668171</ele>
        <time>2020-08-03T18:42:32.707Z</time>
      </trkpt>
      <trkpt lat="44.99066" lon="2.90763">
        <ele>1108.436553</ele>
        <time>2020-08-03T18:42:43.692Z</time>
      </trkpt>
      <trkpt lat="44.99059" lon="2.90773">
        <ele>1108.169347</ele>
        <time>2020-08-03T18:42:52.699Z</time>
      </trkpt>
      <trkpt lat="44.99054" lon="2.90786">
        <ele>1107.853663</ele>
        <time>2020-08-03T18:42:58.701Z</time>
      </trkpt>
      <trkpt lat="44.99052" lon="2.90799">
        <ele>1107.566108</ele>
        <time>2020-08-03T18:43:06.699Z</time>
      </trkpt>
      <trkpt lat="44.99058" lon="2.90809">
        <ele>1107.27296</ele>
        <time>2020-08-03T18:43:23.709Z</time>
      </trkpt>
      <trkpt lat="44.99067" lon="2.90815">
        <ele>1106.975418</ele>
        <time>2020-08-03T18:43:30.700Z</time>
      </trkpt>
      <trkpt lat="44.99075" lon="2.90821">
        <ele>1106.691564</ele>
        <time>2020-08-03T18:43:44.706Z</time>
      </trkpt>
      <trkpt lat="44.99084" lon="2.90826">
        <ele>1106.40203</ele>
        <time>2020-08-03T18:43:52.700Z</time>
      </trkpt>
      <trkpt lat="44.99091" lon="2.90834">
        <ele>1106.124533</ele>
        <time>2020-08-03T18:44:01.711Z</time>
      </trkpt>
      <trkpt lat="44.99099" lon="2.90842">
        <ele>1105.837732</ele>
        <time>2020-08-03T18:44:10.708Z</time>
      </trkpt>
      <trkpt lat="44.99108" lon="2.90849">
        <ele>1105.536827</ele>
        <time>2020-08-03T18:44:20.709Z</time>
      </trkpt>
      <trkpt lat="44.99117" lon="2.90855">
        <ele>1105.242817</ele>
        <time>2020-08-03T18:44:29.706Z</time>
      </trkpt>
      <trkpt lat="44.99125" lon="2.90861">
        <ele>1104.95428</ele>
        <time>2020-08-03T18:44:38.712Z</time>
      </trkpt>
      <trkpt lat="44.99133" lon="2.90865">
        <ele>1104.680828</ele>
        <time>2020-08-03T18:44:45.708Z</time>
      </trkpt>
      <trkpt lat="44.99142" lon="2.90871">
        <ele>1104.402326</ele>
        <time>2020-08-03T18:44:55.701Z</time>
      </trkpt>
      <trkpt lat="44.99149" lon="2.90879">
        <ele>1104.121787</ele>
        <time>2020-08-03T18:45:12.714Z</time>
      </trkpt>
      <trkpt lat="44.99158" lon="2.90886">
        <ele>1103.816582</ele>
        <time>2020-08-03T18:45:22.700Z</time>
      </trkpt>
      <trkpt lat="44.99166" lon="2.90894">
        <ele>1103.513798</ele>
        <time>2020-08-03T18:45:33.705Z</time>
      </trkpt>
      <trkpt lat="44.99173" lon="2.90903">
        <ele>1103.226589</ele>
        <time>2020-08-03T18:45:42.696Z</time>
      </trkpt>
      <trkpt lat="44.99178" lon="2.90914">
        <ele>1102.93734</ele>
        <time>2020-08-03T18:45:52.700Z</time>
      </trkpt>
      <trkpt lat="44.99184" lon="2.90926">
        <ele>1102.831787</ele>
        <time>2020-08-03T18:46:00.698Z</time>
      </trkpt>
      <trkpt lat="44.99189" lon="2.90937">
        <ele>1102.756921</ele>
        <time>2020-08-03T18:46:10.703Z</time>
      </trkpt>
      <trkpt lat="44.99196" lon="2.90945">
        <ele>1102.682952</ele>
        <time>2020-08-03T18:46:19.699Z</time>
      </trkpt>
      <trkpt lat="44.99204" lon="2.90952">
        <ele>1102.608673</ele>
        <time>2020-08-03T18:46:28.707Z</time>
      </trkpt>
      <trkpt lat="44.99209" lon="2.90965">
        <ele>1102.531238</ele>
        <time>2020-08-03T18:46:42.723Z</time>
      </trkpt>
      <trkpt lat="44.99217" lon="2.90973">
        <ele>1102.448897</ele>
        <time>2020-08-03T18:46:51.706Z</time>
      </trkpt>
      <trkpt lat="44.99224" lon="2.90982">
        <ele>1102.376983</ele>
        <time>2020-08-03T18:46:59.709Z</time>
      </trkpt>
      <trkpt lat="44.99232" lon="2.9099">
        <ele>1102.301515</ele>
        <time>2020-08-03T18:47:08.703Z</time>
      </trkpt>
      <trkpt lat="44.99239" lon="2.90997">
        <ele>1102.230324</ele>
        <time>2020-08-03T18:47:17.703Z</time>
      </trkpt>
      <trkpt lat="44.99247" lon="2.91006">
        <ele>1102.151983</ele>
        <time>2020-08-03T18:47:27.698Z</time>
      </trkpt>
      <trkpt lat="44.99256" lon="2.91012">
        <ele>1102.07418</ele>
        <time>2020-08-03T18:47:35.692Z</time>
      </trkpt>
      <trkpt lat="44.99264" lon="2.91018">
        <ele>1102.002981</ele>
        <time>2020-08-03T18:47:45.694Z</time>
      </trkpt>
      <trkpt lat="44.99273" lon="2.9102">
        <ele>1101.93126</ele>
        <time>2020-08-03T18:47:53.701Z</time>
      </trkpt>
      <trkpt lat="44.99282" lon="2.91025">
        <ele>1101.853206</ele>
        <time>2020-08-03T18:48:02.697Z</time>
      </trkpt>
      <trkpt lat="44.99292" lon="2.91029">
        <ele>1101.777221</ele>
        <time>2020-08-03T18:48:13.697Z</time>
      </trkpt>
      <trkpt lat="44.99301" lon="2.91033">
        <ele>1101.702968</ele>
        <time>2020-08-03T18:48:21.698Z</time>
      </trkpt>
      <trkpt lat="44.99309" lon="2.91041">
        <ele>1101.622277</ele>
        <time>2020-08-03T18:48:30.704Z</time>
      </trkpt>
      <trkpt lat="44.99318" lon="2.91045">
        <ele>1101.550173</ele>
        <time>2020-08-03T18:48:38.696Z</time>
      </trkpt>
      <trkpt lat="44.99325" lon="2.91053">
        <ele>1101.487311</ele>
        <time>2020-08-03T18:48:48.698Z</time>
      </trkpt>
      <trkpt lat="44.99333" lon="2.9106">
        <ele>1101.493466</ele>
        <time>2020-08-03T18:48:59.696Z</time>
      </trkpt>
      <trkpt lat="44.99341" lon="2.91067">
        <ele>1101.499645</ele>
        <time>2020-08-03T18:49:07.692Z</time>
      </trkpt>
      <trkpt lat="44.99351" lon="2.9107">
        <ele>1101.50668</ele>
        <time>2020-08-03T18:49:14.699Z</time>
      </trkpt>
      <trkpt lat="44.99361" lon="2.91071">
        <ele>1101.513353</ele>
        <time>2020-08-03T18:49:20.701Z</time>
      </trkpt>
      <trkpt lat="44.99371" lon="2.91071">
        <ele>1101.519958</ele>
        <time>2020-08-03T18:49:29.703Z</time>
      </trkpt>
      <trkpt lat="44.9938" lon="2.91072">
        <ele>1101.526003</ele>
        <time>2020-08-03T18:49:42.699Z</time>
      </trkpt>
      <trkpt lat="44.99389" lon="2.91075">
        <ele>1101.532196</ele>
        <time>2020-08-03T18:49:54.732Z</time>
      </trkpt>
      <trkpt lat="44.99398" lon="2.91077">
        <ele>1101.538319</ele>
        <time>2020-08-03T18:50:00.750Z</time>
      </trkpt>
      <trkpt lat="44.99408" lon="2.91078">
        <ele>1101.544874</ele>
        <time>2020-08-03T18:50:06.723Z</time>
      </trkpt>
      <trkpt lat="44.99418" lon="2.9108">
        <ele>1101.551412</ele>
        <time>2020-08-03T18:50:14.703Z</time>
      </trkpt>
      <trkpt lat="44.99427" lon="2.91084">
        <ele>1101.557934</ele>
        <time>2020-08-03T18:50:29.700Z</time>
      </trkpt>
      <trkpt lat="44.99437" lon="2.91086">
        <ele>1101.56448</ele>
        <time>2020-08-03T18:50:36.703Z</time>
      </trkpt>
      <trkpt lat="44.99454" lon="2.91092">
        <ele>1101.576103</ele>
        <time>2020-08-03T18:51:08.729Z</time>
      </trkpt>
      <trkpt lat="44.99464" lon="2.91096">
        <ele>1101.583012</ele>
        <time>2020-08-03T18:51:15.695Z</time>
      </trkpt>
      <trkpt lat="44.99471" lon="2.91106">
        <ele>1101.589613</ele>
        <time>2020-08-03T18:51:25.695Z</time>
      </trkpt>
      <trkpt lat="44.9948" lon="2.91107">
        <ele>1101.595769</ele>
        <time>2020-08-03T18:51:32.712Z</time>
      </trkpt>
      <trkpt lat="44.99489" lon="2.91106">
        <ele>1101.60226</ele>
        <time>2020-08-03T18:51:42.699Z</time>
      </trkpt>
      <trkpt lat="44.99499" lon="2.91109">
        <ele>1101.621829</ele>
        <time>2020-08-03T18:51:55.698Z</time>
      </trkpt>
      <trkpt lat="44.99508" lon="2.91114">
        <ele>1101.665325</ele>
        <time>2020-08-03T18:52:03.698Z</time>
      </trkpt>
      <trkpt lat="44.99516" lon="2.9112">
        <ele>1101.709772</ele>
        <time>2020-08-03T18:52:11.702Z</time>
      </trkpt>
      <trkpt lat="44.99524" lon="2.91127">
        <ele>1101.752415</ele>
        <time>2020-08-03T18:52:21.698Z</time>
      </trkpt>
      <trkpt lat="44.99532" lon="2.91135">
        <ele>1101.794881</ele>
        <time>2020-08-03T18:52:29.702Z</time>
      </trkpt>
      <trkpt lat="44.99539" lon="2.91144">
        <ele>1101.838189</ele>
        <time>2020-08-03T18:52:38.702Z</time>
      </trkpt>
      <trkpt lat="44.99546" lon="2.91152">
        <ele>1101.88219</ele>
        <time>2020-08-03T18:52:47.700Z</time>
      </trkpt>
      <trkpt lat="44.99554" lon="2.91158">
        <ele>1101.923646</ele>
        <time>2020-08-03T18:52:53.698Z</time>
      </trkpt>
      <trkpt lat="44.99561" lon="2.91168">
        <ele>1101.966522</ele>
        <time>2020-08-03T18:53:06.701Z</time>
      </trkpt>
      <trkpt lat="44.9957" lon="2.91175">
        <ele>1102.013236</ele>
        <time>2020-08-03T18:53:15.701Z</time>
      </trkpt>
      <trkpt lat="44.99578" lon="2.9118">
        <ele>1102.056476</ele>
        <time>2020-08-03T18:53:25.706Z</time>
      </trkpt>
      <trkpt lat="44.99587" lon="2.91188">
        <ele>1102.101183</ele>
        <time>2020-08-03T18:53:36.695Z</time>
      </trkpt>
      <trkpt lat="44.99595" lon="2.91195">
        <ele>1102.144251</ele>
        <time>2020-08-03T18:53:47.700Z</time>
      </trkpt>
      <trkpt lat="44.99604" lon="2.912">
        <ele>1102.190275</ele>
        <time>2020-08-03T18:53:55.698Z</time>
      </trkpt>
      <trkpt lat="44.99612" lon="2.91207">
        <ele>1102.236361</ele>
        <time>2020-08-03T18:54:10.739Z</time>
      </trkpt>
      <trkpt lat="44.99621" lon="2.9121">
        <ele>1102.278247</ele>
        <time>2020-08-03T18:54:20.702Z</time>
      </trkpt>
      <trkpt lat="44.99631" lon="2.91212">
        <ele>1102.320765</ele>
        <time>2020-08-03T18:54:31.693Z</time>
      </trkpt>
      <trkpt lat="44.9964" lon="2.91221">
        <ele>1102.37167</ele>
        <time>2020-08-03T18:54:39.716Z</time>
      </trkpt>
      <trkpt lat="44.99649" lon="2.91226">
        <ele>1102.416849</ele>
        <time>2020-08-03T18:54:48.701Z</time>
      </trkpt>
      <trkpt lat="44.99659" lon="2.91229">
        <ele>1102.427841</ele>
        <time>2020-08-03T18:54:56.693Z</time>
      </trkpt>
      <trkpt lat="44.99669" lon="2.91225">
        <ele>1102.424935</ele>
        <time>2020-08-03T18:55:03.806Z</time>
      </trkpt>
      <trkpt lat="44.99678" lon="2.91225">
        <ele>1102.422231</ele>
        <time>2020-08-03T18:55:10.706Z</time>
      </trkpt>
      <trkpt lat="44.99688" lon="2.91225">
        <ele>1102.419412</ele>
        <time>2020-08-03T18:55:18.687Z</time>
      </trkpt>
      <trkpt lat="44.99698" lon="2.91222">
        <ele>1102.416488</ele>
        <time>2020-08-03T18:55:27.696Z</time>
      </trkpt>
      <trkpt lat="44.99706" lon="2.91216">
        <ele>1102.413864</ele>
        <time>2020-08-03T18:55:35.729Z</time>
      </trkpt>
      <trkpt lat="44.99711" lon="2.91204">
        <ele>1102.411099</ele>
        <time>2020-08-03T18:55:45.696Z</time>
      </trkpt>
      <trkpt lat="44.99715" lon="2.91192">
        <ele>1102.408376</ele>
        <time>2020-08-03T18:55:54.692Z</time>
      </trkpt>
      <trkpt lat="44.99719" lon="2.9118">
        <ele>1102.405648</ele>
        <time>2020-08-03T18:56:05.711Z</time>
      </trkpt>
      <trkpt lat="44.99724" lon="2.91169">
        <ele>1102.402997</ele>
        <time>2020-08-03T18:56:17.729Z</time>
      </trkpt>
      <trkpt lat="44.99726" lon="2.91155">
        <ele>1102.400218</ele>
        <time>2020-08-03T18:56:26.695Z</time>
      </trkpt>
      <trkpt lat="44.99728" lon="2.91142">
        <ele>1102.397512</ele>
        <time>2020-08-03T18:56:34.719Z</time>
      </trkpt>
      <trkpt lat="44.9973" lon="2.91129">
        <ele>1102.394774</ele>
        <time>2020-08-03T18:56:43.703Z</time>
      </trkpt>
      <trkpt lat="44.99733" lon="2.91116">
        <ele>1102.392012</ele>
        <time>2020-08-03T18:56:52.689Z</time>
      </trkpt>
      <trkpt lat="44.99735" lon="2.91104">
        <ele>1102.389426</ele>
        <time>2020-08-03T18:57:01.702Z</time>
      </trkpt>
      <trkpt lat="44.99738" lon="2.91091">
        <ele>1102.386678</ele>
        <time>2020-08-03T18:57:10.701Z</time>
      </trkpt>
      <trkpt lat="44.99741" lon="2.91078">
        <ele>1102.38385</ele>
        <time>2020-08-03T18:57:20.692Z</time>
      </trkpt>
      <trkpt lat="44.99741" lon="2.91064">
        <ele>1102.381084</ele>
        <time>2020-08-03T18:57:28.701Z</time>
      </trkpt>
      <trkpt lat="44.99741" lon="2.91051">
        <ele>1102.378419</ele>
        <time>2020-08-03T18:57:37.697Z</time>
      </trkpt>
      <trkpt lat="44.99743" lon="2.91038">
        <ele>1102.906642</ele>
        <time>2020-08-03T18:57:47.722Z</time>
      </trkpt>
      <trkpt lat="44.99746" lon="2.91025">
        <ele>1103.496513</ele>
        <time>2020-08-03T18:57:57.690Z</time>
      </trkpt>
      <trkpt lat="44.99752" lon="2.91014">
        <ele>1104.061733</ele>
        <time>2020-08-03T18:58:08.687Z</time>
      </trkpt>
      <trkpt lat="44.99755" lon="2.91002">
        <ele>1104.635543</ele>
        <time>2020-08-03T18:58:17.728Z</time>
      </trkpt>
      <trkpt lat="44.99758" lon="2.90989">
        <ele>1105.201616</ele>
        <time>2020-08-03T18:58:27.692Z</time>
      </trkpt>
      <trkpt lat="44.99758" lon="2.90976">
        <ele>1105.790941</ele>
        <time>2020-08-03T18:58:43.707Z</time>
      </trkpt>
      <trkpt lat="44.99761" lon="2.90962">
        <ele>1106.414051</ele>
        <time>2020-08-03T18:58:51.697Z</time>
      </trkpt>
      <trkpt lat="44.99763" lon="2.90947">
        <ele>1107.053531</ele>
        <time>2020-08-03T18:58:57.731Z</time>
      </trkpt>
      <trkpt lat="44.99766" lon="2.90935">
        <ele>1107.621089</ele>
        <time>2020-08-03T18:59:04.728Z</time>
      </trkpt>
      <trkpt lat="44.9977" lon="2.90922">
        <ele>1108.20372</ele>
        <time>2020-08-03T18:59:14.787Z</time>
      </trkpt>
      <trkpt lat="44.99772" lon="2.90909">
        <ele>1108.793919</ele>
        <time>2020-08-03T18:59:25.723Z</time>
      </trkpt>
      <trkpt lat="44.99774" lon="2.90896">
        <ele>1109.34495</ele>
        <time>2020-08-03T18:59:45.701Z</time>
      </trkpt>
      <trkpt lat="44.99777" lon="2.90883">
        <ele>1109.942387</ele>
        <time>2020-08-03T18:59:55.702Z</time>
      </trkpt>
      <trkpt lat="44.99781" lon="2.9087">
        <ele>1110.546667</ele>
        <time>2020-08-03T19:00:05.704Z</time>
      </trkpt>
      <trkpt lat="44.99784" lon="2.90857">
        <ele>1111.144581</ele>
        <time>2020-08-03T19:00:16.697Z</time>
      </trkpt>
      <trkpt lat="44.99787" lon="2.90844">
        <ele>1111.746686</ele>
        <time>2020-08-03T19:00:27.697Z</time>
      </trkpt>
      <trkpt lat="44.99789" lon="2.90831">
        <ele>1112.306188</ele>
        <time>2020-08-03T19:00:36.698Z</time>
      </trkpt>
      <trkpt lat="44.99795" lon="2.90819">
        <ele>1112.903309</ele>
        <time>2020-08-03T19:00:46.692Z</time>
      </trkpt>
      <trkpt lat="44.99803" lon="2.90812">
        <ele>1113.551287</ele>
        <time>2020-08-03T19:00:57.696Z</time>
      </trkpt>
      <trkpt lat="44.99809" lon="2.90802">
        <ele>1114.287928</ele>
        <time>2020-08-03T19:01:08.701Z</time>
      </trkpt>
      <trkpt lat="44.99814" lon="2.90792">
        <ele>1115.00579</ele>
        <time>2020-08-03T19:01:18.699Z</time>
      </trkpt>
      <trkpt lat="44.99821" lon="2.90784">
        <ele>1115.755948</ele>
        <time>2020-08-03T19:01:30.696Z</time>
      </trkpt>
      <trkpt lat="44.99827" lon="2.90772">
        <ele>1116.571481</ele>
        <time>2020-08-03T19:01:40.708Z</time>
      </trkpt>
      <trkpt lat="44.99832" lon="2.90761">
        <ele>1117.335646</ele>
        <time>2020-08-03T19:01:50.746Z</time>
      </trkpt>
      <trkpt lat="44.99837" lon="2.90749">
        <ele>1118.136429</ele>
        <time>2020-08-03T19:01:59.730Z</time>
      </trkpt>
      <trkpt lat="44.99844" lon="2.90739">
        <ele>1118.89444</ele>
        <time>2020-08-03T19:02:09.698Z</time>
      </trkpt>
      <trkpt lat="44.99848" lon="2.90727">
        <ele>1119.676317</ele>
        <time>2020-08-03T19:02:23.697Z</time>
      </trkpt>
      <trkpt lat="44.99854" lon="2.90717">
        <ele>1120.420212</ele>
        <time>2020-08-03T19:02:31.705Z</time>
      </trkpt>
      <trkpt lat="44.9986" lon="2.90705">
        <ele>1121.203586</ele>
        <time>2020-08-03T19:02:40.694Z</time>
      </trkpt>
      <trkpt lat="44.99868" lon="2.90699">
        <ele>1121.977654</ele>
        <time>2020-08-03T19:02:51.695Z</time>
      </trkpt>
      <trkpt lat="44.99876" lon="2.90691">
        <ele>1122.755767</ele>
        <time>2020-08-03T19:03:02.698Z</time>
      </trkpt>
      <trkpt lat="44.99881" lon="2.9068">
        <ele>1123.510843</ele>
        <time>2020-08-03T19:03:11.698Z</time>
      </trkpt>
      <trkpt lat="44.99888" lon="2.90669">
        <ele>1124.329379</ele>
        <time>2020-08-03T19:03:23.698Z</time>
      </trkpt>
      <trkpt lat="44.99894" lon="2.90658">
        <ele>1125.107681</ele>
        <time>2020-08-03T19:03:33.697Z</time>
      </trkpt>
      <trkpt lat="44.99899" lon="2.90647">
        <ele>1125.833426</ele>
        <time>2020-08-03T19:03:41.688Z</time>
      </trkpt>
      <trkpt lat="44.99903" lon="2.90635">
        <ele>1126.59887</ele>
        <time>2020-08-03T19:03:50.700Z</time>
      </trkpt>
      <trkpt lat="44.99907" lon="2.90622">
        <ele>1127.396063</ele>
        <time>2020-08-03T19:03:58.743Z</time>
      </trkpt>
      <trkpt lat="44.99915" lon="2.90614">
        <ele>1127.99723</ele>
        <time>2020-08-03T19:04:09.699Z</time>
      </trkpt>
      <trkpt lat="44.99923" lon="2.90607">
        <ele>1128.466853</ele>
        <time>2020-08-03T19:04:21.700Z</time>
      </trkpt>
      <trkpt lat="44.99932" lon="2.90603">
        <ele>1128.919875</ele>
        <time>2020-08-03T19:04:29.710Z</time>
      </trkpt>
      <trkpt lat="44.99936" lon="2.90591">
        <ele>1129.388633</ele>
        <time>2020-08-03T19:04:37.696Z</time>
      </trkpt>
      <trkpt lat="44.99938" lon="2.90578">
        <ele>1129.826123</ele>
        <time>2020-08-03T19:04:44.692Z</time>
      </trkpt>
      <trkpt lat="44.9994" lon="2.90566">
        <ele>1130.266826</ele>
        <time>2020-08-03T19:04:55.696Z</time>
      </trkpt>
      <trkpt lat="44.99939" lon="2.90553">
        <ele>1130.703015</ele>
        <time>2020-08-03T19:05:05.701Z</time>
      </trkpt>
      <trkpt lat="44.99941" lon="2.9054">
        <ele>1131.161291</ele>
        <time>2020-08-03T19:05:18.698Z</time>
      </trkpt>
      <trkpt lat="44.99941" lon="2.90526">
        <ele>1131.608494</ele>
        <time>2020-08-03T19:05:27.692Z</time>
      </trkpt>
      <trkpt lat="44.99937" lon="2.90513">
        <ele>1132.084537</ele>
        <time>2020-08-03T19:05:39.692Z</time>
      </trkpt>
      <trkpt lat="44.99928" lon="2.90508">
        <ele>1132.561275</ele>
        <time>2020-08-03T19:05:50.733Z</time>
      </trkpt>
      <trkpt lat="44.9992" lon="2.90499">
        <ele>1133.030679</ele>
        <time>2020-08-03T19:06:00.698Z</time>
      </trkpt>
      <trkpt lat="44.99915" lon="2.90488">
        <ele>1133.469948</ele>
        <time>2020-08-03T19:06:09.696Z</time>
      </trkpt>
      <trkpt lat="44.99917" lon="2.90475">
        <ele>1133.931432</ele>
        <time>2020-08-03T19:06:18.696Z</time>
      </trkpt>
      <trkpt lat="44.99919" lon="2.90462">
        <ele>1134.37775</ele>
        <time>2020-08-03T19:06:27.704Z</time>
      </trkpt>
      <trkpt lat="44.99922" lon="2.9045">
        <ele>1134.820013</ele>
        <time>2020-08-03T19:06:37.819Z</time>
      </trkpt>
      <trkpt lat="44.99927" lon="2.90426">
        <ele>1135.664222</ele>
        <time>2020-08-03T19:07:08.782Z</time>
      </trkpt>
      <trkpt lat="44.9993" lon="2.90411">
        <ele>1136.177883</ele>
        <time>2020-08-03T19:07:13.732Z</time>
      </trkpt>
      <trkpt lat="44.99935" lon="2.90398">
        <ele>1136.558972</ele>
        <time>2020-08-03T19:07:19.711Z</time>
      </trkpt>
      <trkpt lat="44.99945" lon="2.90399">
        <ele>1136.850862</ele>
        <time>2020-08-03T19:07:31.713Z</time>
      </trkpt>
      <trkpt lat="44.99954" lon="2.90403">
        <ele>1137.161094</ele>
        <time>2020-08-03T19:07:37.741Z</time>
      </trkpt>
      <trkpt lat="44.99964" lon="2.90405">
        <ele>1137.474862</ele>
        <time>2020-08-03T19:07:43.700Z</time>
      </trkpt>
      <trkpt lat="44.99973" lon="2.9041">
        <ele>1137.772215</ele>
        <time>2020-08-03T19:07:51.734Z</time>
      </trkpt>
      <trkpt lat="44.99983" lon="2.90414">
        <ele>1138.066494</ele>
        <time>2020-08-03T19:08:00.703Z</time>
      </trkpt>
      <trkpt lat="44.99991" lon="2.90419">
        <ele>1138.348804</ele>
        <time>2020-08-03T19:08:08.732Z</time>
      </trkpt>
      <trkpt lat="45" lon="2.90421">
        <ele>1138.63001</ele>
        <time>2020-08-03T19:08:18.733Z</time>
      </trkpt>
      <trkpt lat="45.0001" lon="2.90422">
        <ele>1138.919801</ele>
        <time>2020-08-03T19:08:33.735Z</time>
      </trkpt>
      <trkpt lat="45.00019" lon="2.90422">
        <ele>1139.212142</ele>
        <time>2020-08-03T19:08:42.761Z</time>
      </trkpt>
      <trkpt lat="45.00029" lon="2.90418">
        <ele>1139.518983</ele>
        <time>2020-08-03T19:08:49.782Z</time>
      </trkpt>
      <trkpt lat="45.00039" lon="2.90418">
        <ele>1139.84758</ele>
        <time>2020-08-03T19:08:57.741Z</time>
      </trkpt>
      <trkpt lat="45.00049" lon="2.9042">
        <ele>1140.154052</ele>
        <time>2020-08-03T19:09:07.702Z</time>
      </trkpt>
      <trkpt lat="45.0006" lon="2.90419">
        <ele>1140.495426</ele>
        <time>2020-08-03T19:09:15.717Z</time>
      </trkpt>
      <trkpt lat="45.00071" lon="2.90417">
        <ele>1140.807725</ele>
        <time>2020-08-03T19:09:24.715Z</time>
      </trkpt>
      <trkpt lat="45.00081" lon="2.90413">
        <ele>1141.126226</ele>
        <time>2020-08-03T19:09:33.736Z</time>
      </trkpt>
      <trkpt lat="45.00089" lon="2.90407">
        <ele>1141.418768</ele>
        <time>2020-08-03T19:09:41.701Z</time>
      </trkpt>
      <trkpt lat="45.00098" lon="2.90408">
        <ele>1141.704447</ele>
        <time>2020-08-03T19:09:52.724Z</time>
      </trkpt>
      <trkpt lat="45.00107" lon="2.90412">
        <ele>1141.890641</ele>
        <time>2020-08-03T19:09:59.712Z</time>
      </trkpt>
      <trkpt lat="45.00116" lon="2.90417">
        <ele>1141.917079</ele>
        <time>2020-08-03T19:10:04.700Z</time>
      </trkpt>
      <trkpt lat="45.00123" lon="2.90426">
        <ele>1141.94376</ele>
        <time>2020-08-03T19:10:12.697Z</time>
      </trkpt>
      <trkpt lat="45.00131" lon="2.90431">
        <ele>1141.969194</ele>
        <time>2020-08-03T19:10:20.695Z</time>
      </trkpt>
      <trkpt lat="45.0014" lon="2.90436">
        <ele>1141.994525</ele>
        <time>2020-08-03T19:10:26.695Z</time>
      </trkpt>
      <trkpt lat="45.00148" lon="2.90443">
        <ele>1142.022349</ele>
        <time>2020-08-03T19:10:33.701Z</time>
      </trkpt>
      <trkpt lat="45.00157" lon="2.9045">
        <ele>1142.050418</ele>
        <time>2020-08-03T19:10:43.699Z</time>
      </trkpt>
      <trkpt lat="45.00166" lon="2.90457">
        <ele>1142.077882</ele>
        <time>2020-08-03T19:10:56.732Z</time>
      </trkpt>
      <trkpt lat="45.00175" lon="2.90463">
        <ele>1142.107086</ele>
        <time>2020-08-03T19:11:05.695Z</time>
      </trkpt>
      <trkpt lat="45.00187" lon="2.90463">
        <ele>1142.139578</ele>
        <time>2020-08-03T19:11:12.687Z</time>
      </trkpt>
      <trkpt lat="45.00195" lon="2.9047">
        <ele>1142.16724</ele>
        <time>2020-08-03T19:11:24.699Z</time>
      </trkpt>
      <trkpt lat="45.00202" lon="2.90478">
        <ele>1142.19309</ele>
        <time>2020-08-03T19:11:32.699Z</time>
      </trkpt>
      <trkpt lat="45.00211" lon="2.90482">
        <ele>1142.218903</ele>
        <time>2020-08-03T19:11:39.693Z</time>
      </trkpt>
      <trkpt lat="45.0022" lon="2.90486">
        <ele>1142.246285</ele>
        <time>2020-08-03T19:11:45.696Z</time>
      </trkpt>
      <trkpt lat="45.0023" lon="2.90489">
        <ele>1142.274578</ele>
        <time>2020-08-03T19:11:54.701Z</time>
      </trkpt>
      <trkpt lat="45.00237" lon="2.90497">
        <ele>1142.299805</ele>
        <time>2020-08-03T19:12:00.694Z</time>
      </trkpt>
      <trkpt lat="45.00244" lon="2.90506">
        <ele>1142.326442</ele>
        <time>2020-08-03T19:12:06.697Z</time>
      </trkpt>
      <trkpt lat="45.00251" lon="2.90516">
        <ele>1142.353902</ele>
        <time>2020-08-03T19:12:14.699Z</time>
      </trkpt>
      <trkpt lat="45.00261" lon="2.90522">
        <ele>1142.382376</ele>
        <time>2020-08-03T19:12:22.694Z</time>
      </trkpt>
      <trkpt lat="45.0027" lon="2.90525">
        <ele>1142.484921</ele>
        <time>2020-08-03T19:12:29.698Z</time>
      </trkpt>
      <trkpt lat="45.00276" lon="2.90535">
        <ele>1142.579745</ele>
        <time>2020-08-03T19:12:41.698Z</time>
      </trkpt>
      <trkpt lat="45.00285" lon="2.9054">
        <ele>1142.682437</ele>
        <time>2020-08-03T19:12:49.697Z</time>
      </trkpt>
      <trkpt lat="45.00293" lon="2.90548">
        <ele>1142.780748</ele>
        <time>2020-08-03T19:12:59.697Z</time>
      </trkpt>
      <trkpt lat="45.00301" lon="2.90553">
        <ele>1142.87646</ele>
        <time>2020-08-03T19:13:07.705Z</time>
      </trkpt>
      <trkpt lat="45.00309" lon="2.90559">
        <ele>1142.970583</ele>
        <time>2020-08-03T19:13:14.694Z</time>
      </trkpt>
      <trkpt lat="45.00317" lon="2.90567">
        <ele>1143.071008</ele>
        <time>2020-08-03T19:13:25.693Z</time>
      </trkpt>
      <trkpt lat="45.00326" lon="2.90569">
        <ele>1143.166684</ele>
        <time>2020-08-03T19:13:31.697Z</time>
      </trkpt>
      <trkpt lat="45.00335" lon="2.90574">
        <ele>1143.269526</ele>
        <time>2020-08-03T19:13:38.700Z</time>
      </trkpt>
      <trkpt lat="45.00345" lon="2.90575">
        <ele>1143.373218</ele>
        <time>2020-08-03T19:13:50.693Z</time>
      </trkpt>
      <trkpt lat="45.00357" lon="2.90577">
        <ele>1143.493706</ele>
        <time>2020-08-03T19:13:57.771Z</time>
      </trkpt>
      <trkpt lat="45.00367" lon="2.90575">
        <ele>1143.607151</ele>
        <time>2020-08-03T19:14:05.700Z</time>
      </trkpt>
      <trkpt lat="45.00377" lon="2.90578">
        <ele>1143.706941</ele>
        <time>2020-08-03T19:14:15.714Z</time>
      </trkpt>
      <trkpt lat="45.00386" lon="2.90576">
        <ele>1143.806215</ele>
        <time>2020-08-03T19:14:23.707Z</time>
      </trkpt>
      <trkpt lat="45.00395" lon="2.90575">
        <ele>1143.904878</ele>
        <time>2020-08-03T19:14:33.708Z</time>
      </trkpt>
      <trkpt lat="45.00405" lon="2.90575">
        <ele>1144.007909</ele>
        <time>2020-08-03T19:14:40.699Z</time>
      </trkpt>
      <trkpt lat="45.00414" lon="2.90578">
        <ele>1144.103054</ele>
        <time>2020-08-03T19:14:49.701Z</time>
      </trkpt>
      <trkpt lat="45.00423" lon="2.90575">
        <ele>1144.200077</ele>
        <time>2020-08-03T19:14:56.698Z</time>
      </trkpt>
      <trkpt lat="45.00432" lon="2.90577">
        <ele>1144.449242</ele>
        <time>2020-08-03T19:15:07.702Z</time>
      </trkpt>
      <trkpt lat="45.0044" lon="2.90582">
        <ele>1145.097719</ele>
        <time>2020-08-03T19:15:17.714Z</time>
      </trkpt>
      <trkpt lat="45.00449" lon="2.90575">
        <ele>1145.82119</ele>
        <time>2020-08-03T19:15:28.699Z</time>
      </trkpt>
      <trkpt lat="45.00454" lon="2.90563">
        <ele>1146.487827</ele>
        <time>2020-08-03T19:15:37.785Z</time>
      </trkpt>
      <trkpt lat="45.00457" lon="2.90551">
        <ele>1147.189999</ele>
        <time>2020-08-03T19:15:48.696Z</time>
      </trkpt>
      <trkpt lat="45.00463" lon="2.9054">
        <ele>1147.867982</ele>
        <time>2020-08-03T19:15:58.696Z</time>
      </trkpt>
      <trkpt lat="45.00471" lon="2.90534">
        <ele>1148.538701</ele>
        <time>2020-08-03T19:16:08.694Z</time>
      </trkpt>
      <trkpt lat="45.00482" lon="2.90534">
        <ele>1149.349492</ele>
        <time>2020-08-03T19:16:35.692Z</time>
      </trkpt>
      <trkpt lat="45.00493" lon="2.9053">
        <ele>1150.14374</ele>
        <time>2020-08-03T19:17:21.707Z</time>
      </trkpt>
      <trkpt lat="45.00502" lon="2.90525">
        <ele>1150.872326</ele>
        <time>2020-08-03T19:17:31.697Z</time>
      </trkpt>
      <trkpt lat="45.00512" lon="2.90521">
        <ele>1151.576014</ele>
        <time>2020-08-03T19:17:40.690Z</time>
      </trkpt>
      <trkpt lat="45.00521" lon="2.90519">
        <ele>1152.235536</ele>
        <time>2020-08-03T19:17:48.689Z</time>
      </trkpt>
      <trkpt lat="45.0053" lon="2.90516">
        <ele>1152.96034</ele>
        <time>2020-08-03T19:17:57.691Z</time>
      </trkpt>
      <trkpt lat="45.00539" lon="2.90515">
        <ele>1153.613154</ele>
        <time>2020-08-03T19:18:06.693Z</time>
      </trkpt>
      <trkpt lat="45.00548" lon="2.90516">
        <ele>1154.27353</ele>
        <time>2020-08-03T19:18:15.689Z</time>
      </trkpt>
      <trkpt lat="45.00558" lon="2.90515">
        <ele>1154.9405</ele>
        <time>2020-08-03T19:18:23.698Z</time>
      </trkpt>
      <trkpt lat="45.00567" lon="2.90513">
        <ele>1155.660499</ele>
        <time>2020-08-03T19:18:33.696Z</time>
      </trkpt>
      <trkpt lat="45.00577" lon="2.9051">
        <ele>1156.382314</ele>
        <time>2020-08-03T19:18:44.692Z</time>
      </trkpt>
      <trkpt lat="45.00586" lon="2.90507">
        <ele>1157.041474</ele>
        <time>2020-08-03T19:18:52.697Z</time>
      </trkpt>
      <trkpt lat="45.00595" lon="2.90505">
        <ele>1157.295142</ele>
        <time>2020-08-03T19:19:00.761Z</time>
      </trkpt>
      <trkpt lat="45.00604" lon="2.90503">
        <ele>1157.295142</ele>
        <time>2020-08-03T19:19:10.716Z</time>
      </trkpt>
      <trkpt lat="45.00614" lon="2.905">
        <ele>1157.295142</ele>
        <time>2020-08-03T19:19:18.733Z</time>
      </trkpt>
      <trkpt lat="45.00623" lon="2.90498">
        <ele>1157.295142</ele>
        <time>2020-08-03T19:19:27.706Z</time>
      </trkpt>
      <trkpt lat="45.00633" lon="2.90498">
        <ele>1157.295142</ele>
        <time>2020-08-03T19:19:37.727Z</time>
      </trkpt>
      <trkpt lat="45.00644" lon="2.90499">
        <ele>1157.295142</ele>
        <time>2020-08-03T19:19:47.694Z</time>
      </trkpt>
      <trkpt lat="45.00653" lon="2.90503">
        <ele>1157.295142</ele>
        <time>2020-08-03T19:19:56.701Z</time>
      </trkpt>
      <trkpt lat="45.00661" lon="2.90511">
        <ele>1157.295142</ele>
        <time>2020-08-03T19:20:03.727Z</time>
      </trkpt>
      <trkpt lat="45.00669" lon="2.90517">
        <ele>1157.295142</ele>
        <time>2020-08-03T19:20:11.704Z</time>
      </trkpt>
      <trkpt lat="45.00678" lon="2.9052">
        <ele>1157.295142</ele>
        <time>2020-08-03T19:20:19.695Z</time>
      </trkpt>
      <trkpt lat="45.00681" lon="2.90521">
        <ele>1157.295142</ele>
        <time>2020-08-03T19:20:23.100Z</time>
      </trkpt>
    </trkseg>
  </trk>
</gpx>